GFSNGP_sfc_rhum_000.txt.gz
RH
52 48 51 54 54 51 56 59 86 64 47 38 34 31 31 30 32 34 34 40 41 37 31 27 29 29 29 30 36 36 34 34 34 41 42 40 40 43 42 40 36 36 38 40
84 57 56 66 56 53 51 51 48 50 51 36 32 28 30 32 34 36 43 46 42 37 30 27 27 28 33 36 41 36 36 34 37 42 39 40 41 42 39 35 34 36 39 42
96 60 78 100 80 55 44 42 49 61 47 34 32 33 37 38 39 51 47 53 62 37 28 26 28 37 40 42 38 38 35 36 39 40 41 41 39 34 33 35 36 38 41 47
99 98 98 38 29 31 40 40 38 37 39 34 32 36 50 48 50 58 56 75 62 38 29 31 39 39 46 35 34 37 36 38 37 40 40 39 35 32 33 35 38 42 50 52
100 89 60 43 35 43 51 49 34 35 35 37 46 61 65 45 55 54 72 67 49 47 44 48 54 60 44 33 30 34 37 37 37 40 40 35 33 36 36 40 44 50 54 58
100 100 89 50 34 34 36 60 38 40 52 66 70 95 68 50 69 84 75 61 63 74 82 84 70 47 34 31 30 35 37 39 39 39 36 33 33 35 37 44 50 60 66 69
98 99 80 41 38 40 81 70 57 53 55 59 65 64 62 78 84 68 62 64 74 78 70 57 46 35 36 30 34 38 40 41 39 35 33 32 34 36 39 54 73 90 92 92
100 100 98 38 41 69 54 57 49 51 56 62 65 77 77 86 77 68 75 86 89 72 54 47 47 40 32 29 34 40 41 40 38 36 32 30 36 40 50 63 81 88 91 91
64 70 44 42 49 48 50 56 56 59 54 62 86 76 91 87 79 73 92 86 63 57 54 49 38 33 32 40 39 43 42 41 39 36 32 33 41 54 58 55 69 82 85 84
84 61 49 52 49 48 49 56 52 59 74 91 91 94 89 81 65 95 94 82 54 51 41 37 36 39 36 44 46 41 44 45 42 36 39 39 43 47 56 65 74 73 81 87
91 75 56 53 48 49 51 52 55 62 77 86 95 87 84 67 88 96 92 64 52 45 40 34 39 40 42 43 46 45 51 50 41 41 50 51 50 56 63 68 76 91 87 89
91 56 62 62 48 44 49 57 62 77 79 87 74 76 65 77 96 95 81 58 50 40 36 37 38 42 45 46 47 54 57 50 52 58 59 56 58 62 63 64 69 74 81 94
62 49 50 48 45 44 58 62 61 60 68 68 69 71 94 98 96 92 70 53 41 38 39 40 43 46 47 71 83 80 81 74 56 59 59 60 66 69 72 71 65 71 81 87
46 52 60 50 60 56 56 45 44 47 64 75 81 96 91 87 71 64 54 43 41 41 43 45 49 54 60 67 86 83 80 67 67 63 64 68 73 76 75 79 83 78 77 90
42 46 54 53 51 38 33 37 42 48 62 84 91 90 90 79 62 51 48 53 60 60 56 58 66 65 62 70 76 70 58 57 76 75 76 77 76 75 75 76 77 79 79 77
49 50 46 37 36 38 42 46 53 59 82 87 87 89 74 59 49 49 60 80 74 71 83 90 90 82 75 68 68 54 46 64 70 71 73 72 70 74 74 77 77 82 84 86
55 48 48 50 46 50 58 69 90 98 92 87 97 100 79 85 81 77 67 88 91 91 92 93 89 68 77 69 64 44 51 54 74 66 68 70 71 73 76 80 80 84 89 92
40 42 42 49 57 65 82 93 99 98 86 78 93 92 89 88 85 85 90 93 90 90 95 92 85 80 79 64 58 59 65 67 70 74 71 76 74 70 79 81 78 82 89 89
40 46 52 59 69 83 93 95 97 90 99 98 95 93 89 86 85 87 93 95 98 100 91 90 87 87 76 67 68 67 77 80 73 67 73 74 75 71 78 84 84 84 87 89
48 49 61 66 75 96 100 98 99 90 84 84 84 88 90 86 86 89 97 99 95 85 98 95 93 92 82 70 77 58 83 88 73 76 81 76 79 81 79 76 85 86 88 91
64 68 100 100 99 90 93 91 91 85 84 86 89 89 86 88 91 93 93 82 100 96 97 92 85 74 66 62 64 91 92 90 88 84 81 82 81 78 81 80 82 89 89 90
62 95 100 98 89 87 83 88 90 88 88 87 89 91 92 93 95 95 93 93 79 90 82 85 77 83 69 83 71 94 85 86 87 85 84 83 83 80 82 81 82 83 88 90
63 83 88 91 91 79 88 92 92 95 94 97 98 100 98 91 91 97 95 96 87 94 92 98 93 89 89 92 94 91 89 86 87 84 86 86 86 81 80 81 82 81 82 82
67 82 87 80 87 84 87 80 89 97 99 100 100 98 91 92 94 84 86 88 91 95 95 98 97 93 92 93 92 89 86 87 84 86 84 90 86 82 80 80 80 81 81 79
100 98 78 85 76 59 76 85 94 96 95 96 95 92 99 86 98 93 97 93 87 94 100 93 92 91 94 93 91 90 86 85 84 83 82 83 83 82 81 80 80 80 81 79
96 90 71 67 60 56 64 82 82 83 81 92 95 100 100 100 97 95 91 91 90 92 96 100 96 93 94 92 90 90 87 81 85 84 82 80 80 79 80 79 80 78 80 79
95 97 80 72 72 75 81 84 94 92 97 100 98 100 93 98 94 92 92 91 93 97 100 100 96 94 92 92 91 90 88 84 81 80 82 81 80 80 81 80 79 80 82 84

GFSNGP_sfc_rhum_003.txt.gz
RH
45 39 38 40 41 38 40 44 65 51 40 32 29 27 27 27 28 29 31 31 33 41 46 49 34 28 28 28 30 30 33 37 45 40 37 38 39 39 38 38 36 34 35 36
80 52 45 54 42 39 38 37 36 38 39 27 26 27 28 33 34 39 37 34 39 51 58 49 33 28 28 28 32 37 42 46 39 37 37 39 39 40 39 36 33 34 36 38
92 55 77 98 71 48 40 32 34 46 38 28 30 33 37 39 40 41 43 43 50 64 58 45 36 28 28 34 44 61 43 40 38 37 38 40 36 35 36 36 36 38 38 39
99 98 95 38 27 27 33 30 29 30 29 33 37 38 41 41 46 71 65 54 72 62 55 44 41 35 42 59 50 47 45 37 33 35 37 38 37 34 34 35 38 38 42 44
100 82 58 46 31 37 46 45 32 34 38 39 43 47 59 47 66 69 60 78 55 57 51 60 60 66 76 75 48 38 33 32 32 35 39 36 34 36 36 38 40 41 46 55
100 100 94 44 32 31 33 53 40 44 47 58 61 89 77 66 61 72 76 54 53 58 67 84 81 75 60 44 34 34 33 34 34 36 34 33 36 38 37 39 41 54 62 66
98 99 72 40 31 35 75 64 53 49 53 59 65 68 63 71 73 68 53 53 58 76 79 63 61 48 38 36 36 30 34 36 35 32 32 35 36 35 36 44 63 86 92 86
100 100 98 31 35 78 65 54 48 52 55 64 68 70 75 79 77 57 53 54 76 84 60 52 49 44 36 29 27 32 35 36 34 34 34 32 35 36 42 52 73 87 88 86
61 65 43 38 44 42 42 49 58 64 51 69 73 71 71 77 61 55 62 79 76 65 63 54 38 32 30 34 32 36 38 37 38 40 39 34 37 44 49 46 67 82 84 82
75 53 44 45 46 46 48 61 45 51 54 54 62 66 75 64 56 59 84 94 76 66 53 42 33 32 30 37 40 36 40 44 45 45 40 37 40 42 48 62 72 71 80 84
77 58 52 58 55 44 50 48 44 48 52 57 68 65 79 68 55 82 95 85 66 55 46 36 33 34 34 36 43 43 47 50 48 46 46 47 46 47 54 66 75 82 81 88
96 67 69 56 41 40 46 54 51 50 41 38 43 61 65 63 80 95 93 78 62 44 38 33 32 35 37 40 41 52 58 56 61 54 53 53 51 53 60 70 72 71 81 91
75 59 55 42 40 41 52 49 34 34 33 34 46 62 73 94 90 77 65 58 43 38 36 36 38 41 41 77 81 84 81 76 58 59 55 56 58 61 77 74 69 70 85 84
44 47 44 42 48 43 36 30 33 31 32 53 73 82 90 72 65 59 56 42 38 38 38 42 44 45 53 56 79 88 87 73 60 61 63 64 67 72 79 80 87 83 76 88
30 36 44 42 38 30 29 31 38 42 52 69 80 86 83 66 60 49 44 49 53 54 50 50 62 57 56 62 73 71 63 58 74 73 73 70 70 70 69 77 76 82 78 78
43 41 36 35 34 32 31 35 52 65 88 90 92 95 78 65 51 45 53 78 75 64 72 85 89 71 69 62 64 59 46 65 64 66 69 66 65 65 68 76 76 85 83 87
48 48 47 44 37 37 40 48 69 97 93 98 94 98 82 88 84 77 62 87 98 97 98 96 89 61 70 66 61 51 51 53 66 63 64 65 67 66 70 79 80 85 89 93
35 35 34 36 38 48 58 66 86 92 80 80 99 100 100 100 94 95 99 95 94 95 99 97 88 72 78 64 63 63 63 66 67 70 67 71 68 67 76 84 82 84 88 90
36 39 38 36 44 62 73 81 94 91 100 100 100 99 97 98 90 89 91 93 93 98 86 93 89 87 79 72 70 66 73 77 73 64 70 68 72 71 77 79 87 88 89 89
45 44 46 48 60 90 97 99 99 98 83 93 99 100 100 100 90 87 94 96 93 82 99 92 90 88 83 72 76 62 73 78 72 72 74 73 77 80 81 77 80 89 89 91
60 60 82 100 100 100 100 100 100 93 89 92 92 96 91 94 94 92 94 77 97 99 96 89 84 68 64 65 67 83 80 80 76 78 78 79 78 77 80 82 83 87 90 90
63 84 100 100 100 99 100 95 95 100 98 96 90 88 93 98 95 91 94 97 84 97 89 85 83 93 80 81 75 92 82 79 76 79 78 77 78 80 79 78 85 81 86 90
63 72 80 100 100 96 93 98 100 100 100 100 99 99 94 80 78 85 85 92 80 84 85 92 98 96 94 96 98 94 89 81 78 78 77 78 79 79 78 78 81 83 82 83
70 74 73 86 100 99 89 76 89 96 100 100 100 99 91 92 98 85 80 86 93 96 98 99 98 91 90 96 94 94 91 85 82 82 76 88 80 76 76 75 75 78 78 77
100 98 98 100 96 68 70 68 88 95 97 95 95 92 100 79 99 94 94 100 93 95 98 93 87 86 92 89 91 91 89 87 82 82 79 78 76 76 77 74 76 78 75 74
98 96 90 95 74 50 51 65 71 75 78 91 93 100 100 99 87 96 97 97 97 92 97 97 91 91 90 87 90 92 89 86 80 78 77 74 74 73 76 74 74 73 74 75
99 99 99 88 62 63 70 75 91 91 94 99 94 100 90 100 98 93 96 100 98 100 100 100 97 88 89 92 90 90 88 88 84 79 78 77 75 75 76 75 74 74 74 76

GFSNGP_sfc_rhum_006.txt.gz
RH
50 45 46 51 49 44 44 44 58 49 40 32 29 28 34 36 38 38 37 40 49 51 46 50 54 53 42 38 39 39 39 40 49 61 59 54 54 56 55 57 50 49 47 48
85 58 51 57 50 47 44 40 39 40 39 28 26 32 37 40 41 45 53 56 57 49 53 55 54 52 39 37 38 40 47 66 71 63 53 53 56 57 58 55 52 49 52 52
88 65 76 92 65 49 42 35 37 51 39 30 32 43 48 50 46 61 61 62 57 62 63 56 54 49 46 47 65 73 77 70 65 64 51 54 50 50 57 58 56 56 55 55
100 100 96 44 33 35 40 36 35 33 33 32 40 49 50 49 63 68 70 66 64 62 58 55 54 60 74 74 67 68 70 70 59 48 48 50 54 54 55 55 57 55 58 59
100 89 64 54 40 43 49 50 36 42 48 50 53 62 64 56 68 81 71 65 63 52 56 61 67 78 85 87 85 80 57 43 40 44 47 51 51 55 57 56 55 56 60 68
100 98 93 64 37 33 36 66 57 61 67 71 69 96 89 63 68 66 62 56 50 56 62 69 78 75 67 64 59 44 42 41 40 45 47 47 52 56 55 57 53 69 66 76
95 95 77 46 36 42 83 93 74 68 76 72 79 84 77 64 66 62 56 47 53 62 72 72 62 60 55 42 42 40 39 40 43 43 42 47 53 52 51 58 70 79 91 84
100 100 93 36 43 84 65 61 63 73 76 78 69 66 63 62 69 60 53 55 61 69 69 62 58 65 46 34 32 37 41 44 45 46 44 41 54 51 55 63 74 88 85 85
65 70 48 42 48 52 56 66 73 68 57 63 65 61 63 68 61 65 64 69 69 70 67 65 55 36 36 43 34 43 46 49 52 52 51 47 52 61 64 64 75 82 87 82
76 56 49 50 50 54 54 63 63 60 64 61 56 49 50 56 63 60 70 77 75 75 66 54 42 34 38 43 46 42 53 59 59 62 61 56 54 60 66 74 80 86 84 87
78 64 57 56 56 55 56 55 62 62 64 43 42 40 42 62 59 72 82 77 76 64 62 46 37 37 37 41 49 52 66 67 66 71 66 62 63 66 74 82 82 84 87 94
88 62 73 64 53 50 57 71 63 45 40 37 40 54 62 68 70 76 78 74 65 60 42 37 34 36 39 47 61 75 74 74 80 76 71 70 68 69 67 72 74 74 74 91
60 47 47 47 44 50 64 65 36 35 39 57 62 64 68 77 74 69 64 80 67 41 40 41 43 45 61 87 90 92 90 86 76 74 72 73 75 75 82 78 71 73 75 85
42 47 61 50 58 50 42 33 35 38 51 58 65 70 76 80 78 77 74 45 43 44 44 50 52 61 67 67 87 91 86 84 86 82 81 82 82 83 80 86 88 84 78 77
43 43 44 38 35 32 31 35 40 52 66 70 78 92 86 91 88 60 50 60 67 63 69 68 81 77 72 75 78 78 78 80 88 91 90 85 88 84 80 87 85 86 86 82
44 37 36 39 37 36 36 39 48 66 84 82 96 95 84 70 67 57 59 88 86 84 86 95 95 84 79 74 75 72 67 76 79 87 86 85 84 81 80 86 87 91 92 94
55 56 52 49 41 42 41 43 62 80 77 87 90 96 86 90 88 90 84 94 96 95 97 97 92 80 82 76 71 69 73 74 82 80 86 86 88 84 86 87 92 94 96 96
34 35 34 39 42 48 59 71 84 90 90 90 96 96 95 96 95 94 96 96 95 94 95 95 96 86 89 78 79 81 84 84 82 84 88 87 87 87 90 90 88 95 95 95
34 35 35 36 46 66 73 84 94 91 98 99 95 93 93 93 95 94 94 95 95 94 94 96 92 93 87 86 80 85 88 89 88 84 90 88 89 88 91 90 90 95 95 95
41 38 45 50 61 89 91 99 99 97 96 94 95 96 99 99 95 95 95 95 92 95 95 88 88 88 90 84 85 81 93 93 91 89 91 90 90 92 93 89 92 93 95 96
69 69 76 86 86 97 99 98 98 90 94 94 93 94 95 95 96 92 88 85 99 97 95 94 96 93 88 86 77 90 94 95 94 93 92 93 90 91 91 90 92 93 95 96
62 73 84 91 99 98 97 93 94 96 93 95 95 94 94 93 92 88 90 87 76 90 93 89 93 97 99 97 95 94 93 94 94 93 93 94 92 93 92 91 92 94 93 95
62 71 77 88 100 96 96 100 100 98 95 96 95 93 91 90 88 88 86 88 79 83 85 85 95 96 96 96 95 94 94 94 94 93 93 94 94 93 93 93 93 93 93 93
67 72 79 90 100 98 99 99 94 95 96 94 93 95 94 95 95 96 90 79 83 94 92 96 94 92 88 94 94 95 95 95 96 94 93 95 93 92 92 92 92 93 93 92
80 92 93 96 98 97 99 84 92 95 96 96 96 98 96 87 89 92 92 91 93 94 94 94 92 89 91 92 97 96 96 95 96 96 94 93 92 91 92 93 94 93 93 92
78 83 86 97 98 99 82 74 84 87 91 99 100 100 98 98 97 94 97 96 97 93 92 96 98 96 97 97 97 97 96 95 94 93 91 91 90 89 91 91 91 92 93 93
82 92 97 98 98 95 86 88 97 98 97 100 94 98 92 97 96 90 92 97 93 84 95 97 96 97 97 96 97 96 96 94 94 96 96 92 91 91 92 91 92 93 93 93

GFSNGP_sfc_rhum_009.txt.gz
RH
68 62 58 54 55 56 62 62 75 62 56 45 42 51 58 55 54 53 61 65 65 65 64 62 61 62 65 50 52 47 47 59 79 77 68 63 64 61 64 62 59 62 63 62
89 70 65 73 66 61 58 59 58 56 50 42 42 61 65 62 61 70 69 67 64 65 64 64 62 63 53 67 80 77 80 82 80 77 73 65 57 58 62 62 64 60 63 66
88 81 84 89 69 62 58 48 54 72 63 68 68 66 69 70 74 75 70 72 69 71 67 64 67 62 73 78 77 80 81 78 82 83 85 82 62 56 61 65 63 65 66 66
98 99 98 61 42 41 52 51 53 68 74 70 74 73 66 61 85 79 71 77 77 69 65 74 74 82 86 91 84 83 83 82 82 82 75 54 56 61 62 62 64 65 68 72
98 98 76 64 56 62 61 59 77 74 69 65 75 74 69 63 75 78 76 82 73 69 76 84 85 90 93 93 91 88 85 80 66 54 54 56 58 61 61 63 64 70 70 76
99 99 91 67 52 58 56 84 79 74 88 86 83 94 81 76 75 74 82 73 72 76 83 87 88 80 87 76 85 92 54 51 51 52 53 54 58 62 63 66 64 77 74 86
99 94 85 60 50 65 90 83 78 75 79 82 90 82 76 72 75 78 72 71 74 82 78 78 71 69 76 63 52 48 50 50 51 51 52 57 63 65 62 68 78 90 94 88
98 99 95 56 52 77 69 70 58 71 79 76 80 83 71 73 76 76 79 83 82 82 77 78 66 72 69 44 42 47 50 53 56 60 55 55 62 65 69 77 92 94 93 94
84 83 65 52 56 56 54 63 72 78 82 81 80 77 60 54 71 78 87 90 84 90 81 71 69 44 49 50 47 56 60 63 65 63 65 62 68 72 84 83 96 98 96 92
84 68 56 57 54 55 58 69 78 80 81 72 76 64 68 76 80 90 92 86 86 81 72 73 61 47 46 53 56 54 66 72 73 80 76 72 71 76 94 95 97 86 92 93
82 68 62 61 63 62 74 84 83 71 72 64 73 78 76 73 76 89 78 78 91 85 78 70 48 47 46 54 64 74 79 81 86 86 81 80 78 86 93 92 93 89 89 97
89 64 74 69 65 66 75 71 66 65 63 70 76 76 73 79 78 75 85 81 83 73 57 46 45 55 69 72 78 86 87 88 95 94 92 91 92 91 75 76 77 73 77 95
74 64 62 70 59 61 65 59 46 62 71 71 70 77 85 89 82 86 78 80 55 54 54 56 58 67 75 91 92 94 96 93 96 91 93 95 93 92 95 88 74 73 81 84
56 60 71 60 55 45 42 42 46 64 69 72 79 89 83 86 84 86 68 62 61 61 62 68 72 76 83 88 95 95 94 90 97 96 96 96 96 94 97 96 97 96 88 88
55 51 52 48 46 41 40 45 53 77 84 87 86 86 92 92 90 78 70 69 71 78 82 79 85 84 86 83 86 88 88 95 95 94 97 95 96 96 96 96 96 98 92 86
48 47 48 51 51 48 47 49 63 80 85 86 89 94 92 80 80 78 81 94 88 90 92 98 98 93 86 87 88 87 91 79 85 96 96 96 97 96 96 97 98 98 96 95
61 64 62 61 57 54 56 61 79 87 89 91 93 94 92 95 95 94 91 96 97 97 96 98 96 92 87 88 87 96 96 95 89 90 94 96 97 96 98 97 98 98 97 96
47 47 42 47 47 55 72 78 84 92 92 93 98 100 100 97 94 94 97 97 96 94 94 95 98 96 96 91 82 94 96 97 96 97 98 96 96 97 97 98 98 99 98 96
47 50 52 50 57 74 83 84 94 95 98 99 99 92 93 95 98 97 97 98 98 98 99 96 95 96 95 91 88 96 97 98 98 97 98 96 98 97 97 98 99 98 98 97
59 63 65 68 72 84 83 91 96 94 96 99 95 97 97 98 98 98 97 98 99 99 98 97 98 98 98 97 93 96 98 97 98 98 97 97 97 97 97 99 98 98 98 98
73 78 83 84 86 87 94 95 96 98 94 98 95 92 95 96 98 90 91 86 87 93 85 89 92 97 97 99 98 98 98 99 98 98 98 98 97 97 98 98 98 99 98 98
79 85 82 82 88 93 96 95 97 96 98 95 95 96 97 97 96 93 96 91 79 89 89 89 92 97 99 99 99 98 98 99 98 98 98 97 97 98 98 97 98 98 99 99
82 80 79 86 90 93 95 96 94 97 97 93 96 97 95 97 97 97 87 91 80 90 83 90 96 95 96 98 97 98 98 99 98 98 97 97 97 97 98 96 98 97 97 99
66 72 79 88 100 94 89 85 98 99 96 96 94 92 98 99 98 98 94 92 89 90 94 95 97 93 90 97 98 99 99 98 98 98 98 90 96 97 96 96 97 97 97 97
78 82 92 98 94 85 88 96 99 98 98 98 97 97 95 95 88 93 89 87 90 95 91 92 95 92 97 98 98 98 99 99 98 98 98 97 96 96 99 97 96 97 96 97
76 73 92 92 90 90 98 99 98 98 99 99 99 99 98 94 99 97 98 99 97 90 93 96 98 99 98 98 98 98 99 99 98 98 97 98 95 96 97 96 96 96 96 96
77 95 96 91 95 98 99 99 98 98 97 97 98 99 98 92 86 81 80 95 94 94 94 94 93 95 99 98 98 99 98 99 99 98 98 97 97 95 95 96 95 95 95 96

GFSNGP_sfc_rhum_015.txt.gz
RH
76 71 73 72 76 73 83 81 89 76 75 64 74 81 78 74 75 67 63 67 72 74 76 80 84 81 83 75 79 83 86 81 82 78 76 80 88 87 82 76 72 70 69 67
91 82 83 88 79 81 82 81 83 79 74 70 78 79 82 82 72 74 75 78 78 70 70 78 85 83 78 81 88 93 94 88 86 91 92 94 94 91 85 84 71 62 62 66
86 94 94 84 81 83 73 63 68 82 72 87 88 84 76 73 75 80 78 71 61 68 76 80 87 81 87 89 93 90 90 92 90 91 94 94 90 89 84 70 63 63 64 68
93 95 96 60 59 57 66 62 65 75 85 84 84 78 71 77 85 85 69 56 58 61 77 91 85 86 88 90 90 94 94 94 91 92 92 84 70 64 62 63 64 65 67 72
99 98 80 66 58 72 74 72 77 86 84 72 70 80 82 88 75 72 68 59 66 81 85 89 82 81 87 91 71 81 80 62 60 60 58 62 64 68 68 67 65 68 73 82
98 99 96 70 56 70 77 92 82 86 82 78 86 94 87 83 68 66 65 77 82 84 88 83 84 85 86 65 58 55 56 57 60 61 62 66 69 67 64 67 69 82 80 83
98 96 89 67 58 62 85 75 74 74 72 85 95 91 91 76 72 76 84 85 87 85 87 91 91 79 90 64 55 53 61 62 62 63 65 67 66 66 70 78 85 93 92 89
98 100 94 62 67 78 74 75 75 80 88 92 87 85 79 81 78 78 82 90 88 92 91 84 75 75 83 66 52 57 63 66 69 74 66 63 70 74 78 84 93 93 95 94
81 82 67 61 64 65 66 78 85 95 90 88 85 77 80 82 83 76 86 92 89 80 90 87 72 71 58 56 55 63 70 76 81 78 74 69 80 85 91 85 95 95 97 96
82 70 59 63 60 57 71 88 90 84 80 72 75 74 83 81 84 89 91 92 89 81 84 73 59 57 59 66 67 67 74 81 83 84 79 80 80 82 96 96 97 93 96 95
86 74 74 67 71 75 86 87 80 81 84 81 72 78 82 84 86 91 94 89 88 91 78 77 72 64 66 69 73 75 80 83 87 89 89 85 80 91 93 94 96 96 97 98
93 68 74 71 84 86 84 84 80 76 70 64 75 83 78 86 89 93 95 92 92 80 77 70 68 73 75 77 78 81 80 81 95 98 97 92 96 93 80 78 76 74 76 82
76 64 74 85 79 76 74 72 71 71 66 67 75 78 85 91 89 93 92 87 79 77 72 74 76 76 85 93 96 96 97 95 96 95 96 95 96 96 98 88 77 78 77 73
69 75 89 85 95 80 75 68 70 64 66 77 81 84 90 93 93 93 93 88 78 72 75 84 79 79 90 89 94 97 97 96 99 99 98 97 98 98 98 99 100 97 88 79
73 70 70 71 63 53 50 55 64 67 69 79 81 88 91 92 92 90 87 82 85 86 78 84 90 88 90 88 92 96 93 96 97 99 99 98 98 98 98 99 98 99 98 93
66 66 66 55 59 62 60 51 55 62 74 81 84 88 90 91 91 84 82 94 96 96 95 97 98 94 94 92 91 94 91 95 96 98 98 99 97 99 98 99 98 100 99 99
81 94 86 72 73 68 57 57 70 81 87 90 89 92 94 96 93 89 83 95 98 99 97 99 98 93 94 93 97 94 97 97 96 98 99 100 98 98 99 99 100 100 100 99
66 69 65 59 61 70 77 79 81 84 86 89 98 98 100 98 96 97 90 97 97 97 97 96 98 98 99 96 96 96 98 98 99 99 99 100 98 99 99 99 100 100 100 98
59 60 62 64 70 79 81 76 79 82 90 94 98 96 92 98 98 93 98 98 98 99 94 99 95 95 95 96 98 97 98 98 98 99 99 100 100 99 100 100 100 100 100 99
60 62 68 74 78 84 81 80 84 87 94 96 97 97 96 97 97 98 99 98 95 96 98 90 90 90 92 95 98 99 98 98 98 99 99 100 100 100 100 100 98 99 100 100
69 71 77 84 85 84 87 85 89 91 93 94 92 92 95 98 98 98 99 95 89 98 89 88 92 94 98 99 98 98 98 98 98 100 99 99 100 100 100 100 100 100 99 100
76 82 84 84 86 83 81 86 91 92 95 91 88 95 98 98 98 97 95 93 94 78 93 94 95 96 98 94 98 98 98 98 98 99 98 98 100 100 100 100 100 100 99 99
78 80 78 83 85 79 80 89 90 92 94 90 94 97 98 98 98 97 98 92 97 90 96 96 93 95 94 96 98 98 98 98 98 98 98 98 97 100 100 100 100 99 100 99
80 80 80 80 87 92 91 82 84 90 94 96 97 98 98 98 99 98 97 92 89 92 96 96 94 94 97 98 98 98 98 98 99 99 99 98 98 98 100 100 100 100 100 98
87 84 86 90 91 90 87 85 93 95 97 98 99 99 98 98 96 96 97 98 100 95 96 92 94 97 98 98 98 98 98 98 98 98 100 99 98 97 99 100 100 100 99 98
82 84 86 87 88 87 92 90 96 98 99 99 99 99 99 99 98 96 94 96 99 95 96 97 98 98 98 100 99 98 98 98 98 98 98 98 98 98 97 100 100 98 98 97
94 98 88 90 90 90 94 97 99 97 99 99 99 98 98 98 98 97 93 94 96 97 98 98 98 97 99 100 99 99 98 98 98 98 98 98 98 97 97 97 95 97 97 96

GFSNGP_sfc_rhum_018.txt.gz
RH
78 73 77 78 81 81 87 83 89 71 79 68 71 83 82 79 79 76 71 77 80 76 62 58 63 73 89 86 83 87 94 94 92 90 91 91 91 90 87 86 79 75 66 66
94 88 90 95 84 84 86 88 85 83 88 70 82 85 80 81 82 80 88 86 62 52 49 50 71 86 91 85 84 89 89 90 91 91 87 94 92 92 91 90 86 66 64 68
89 93 92 78 68 84 81 75 69 77 62 82 86 81 80 83 85 94 82 66 59 54 65 82 89 87 86 88 90 91 94 88 94 92 92 94 92 92 92 74 66 66 66 69
95 92 93 59 63 59 67 64 64 68 79 84 81 76 80 89 90 84 74 73 68 81 84 80 82 83 91 90 89 86 87 77 75 77 82 75 66 64 66 67 66 66 69 74
99 93 81 64 57 73 76 68 70 77 86 80 74 88 86 86 84 74 76 79 85 80 84 86 88 90 93 86 71 71 74 64 63 68 64 65 67 70 66 66 68 70 74 80
100 97 97 69 59 78 78 87 77 81 76 78 79 97 85 83 78 76 76 81 86 88 90 89 88 94 92 85 59 62 66 67 65 67 68 72 71 70 68 72 71 82 77 79
96 98 89 69 62 63 85 74 80 80 74 75 87 92 86 76 74 79 78 83 87 91 93 89 93 82 84 94 68 61 63 62 68 73 72 72 73 73 77 82 85 92 93 91
99 99 95 64 69 76 68 75 68 75 83 91 92 86 76 74 82 83 75 85 90 94 83 93 92 74 69 74 58 58 64 70 76 79 76 68 78 81 81 85 93 94 96 95
80 85 70 60 62 65 66 75 81 90 88 88 87 75 67 78 85 80 78 90 92 94 92 81 65 64 71 68 61 68 73 76 81 82 76 74 81 87 92 91 97 97 99 96
81 71 67 69 67 69 82 86 90 92 90 83 78 73 76 82 82 80 88 92 93 93 89 87 78 80 74 75 74 74 79 82 86 90 84 83 78 81 97 97 98 96 96 96
90 76 76 76 74 84 91 89 89 86 82 80 79 79 74 84 80 86 90 93 95 94 94 87 80 77 74 78 79 80 82 82 84 87 92 92 78 90 95 94 96 95 97 98
89 67 79 83 96 87 91 93 74 76 75 73 74 78 85 86 83 88 90 94 94 92 89 81 73 77 82 85 84 86 85 85 95 97 98 95 96 93 80 77 77 71 72 78
78 71 92 91 90 85 79 71 72 74 75 80 73 80 84 87 88 86 90 95 94 91 85 76 82 76 78 93 97 97 98 96 98 96 99 98 98 98 98 88 80 75 78 76
74 87 91 85 95 80 77 72 60 58 61 70 75 85 85 87 87 92 92 89 89 83 82 83 87 83 83 91 95 98 98 96 98 99 99 99 100 99 100 99 100 96 86 81
65 68 80 72 58 51 49 48 56 54 58 73 78 83 87 90 91 89 88 85 78 87 88 84 90 89 89 92 92 97 94 98 98 100 100 99 100 98 98 99 100 98 98 92
84 72 63 61 54 53 56 61 58 66 69 75 86 87 90 93 94 92 92 88 95 89 96 99 99 96 93 97 96 97 88 94 98 99 99 99 100 98 98 99 99 99 99 99
83 88 79 76 69 65 67 66 73 77 74 82 85 93 97 97 98 94 93 94 97 97 97 98 94 92 97 96 97 99 99 97 98 100 99 100 99 100 99 99 99 100 99 100
63 65 65 74 75 73 75 81 84 84 79 80 94 98 97 94 91 86 92 97 97 98 96 95 91 93 99 96 98 98 98 98 98 99 99 100 100 99 100 99 99 100 100 98
61 64 68 71 75 82 81 79 84 81 84 87 96 96 94 89 88 89 98 97 97 98 96 98 97 92 95 94 98 98 96 98 98 99 100 100 100 100 100 100 100 100 100 99
65 64 67 72 74 80 79 80 85 85 83 90 90 96 96 90 88 97 98 97 97 95 94 94 87 95 96 97 98 98 98 98 99 100 100 100 100 100 100 100 100 100 100 100
75 75 80 83 82 82 86 86 89 88 83 89 92 94 91 86 96 98 98 98 95 93 95 90 94 96 98 98 96 98 98 98 98 100 100 100 100 100 100 100 100 100 100 100
78 84 86 87 89 86 83 88 90 90 90 90 88 91 95 96 98 98 98 97 95 93 91 94 95 94 98 97 96 98 98 98 98 98 99 99 98 98 100 100 100 100 100 100
80 84 84 88 88 85 85 87 89 91 92 92 93 98 97 97 98 98 99 95 97 94 96 97 95 94 96 98 98 98 98 98 98 98 99 98 98 98 98 100 100 100 100 100
83 86 85 85 90 94 94 87 90 91 92 92 95 95 98 99 99 99 98 96 92 94 97 97 96 94 98 99 98 98 98 98 99 99 98 97 99 98 98 100 100 100 100 100
90 88 90 94 95 89 91 90 92 91 92 96 97 98 99 99 97 98 97 97 100 100 97 92 94 97 99 99 98 98 97 98 97 98 98 98 98 99 98 98 99 100 100 99
87 89 90 92 90 90 93 94 96 96 97 98 99 99 99 99 98 96 95 91 97 99 98 98 99 99 99 99 98 99 98 98 98 98 98 97 97 98 98 98 98 98 97 97
94 98 96 87 82 94 96 92 98 98 98 99 99 98 99 99 99 98 96 96 96 97 98 99 98 98 99 99 98 99 99 98 98 97 98 97 97 97 97 97 97 97 97 97

GFSNGP_sfc_rhum_021.txt.gz
RH
66 62 67 69 69 68 72 68 80 60 57 50 48 56 58 53 60 61 59 65 62 52 46 51 65 63 58 62 64 65 71 71 74 74 76 73 75 73 70 70 70 75 78 57
90 77 76 81 66 69 72 71 72 70 71 51 56 64 63 60 59 64 74 66 55 52 62 62 55 59 66 67 70 72 68 74 80 88 87 85 88 78 74 77 74 55 52 54
82 80 79 78 58 67 65 68 64 64 47 62 70 63 58 58 66 78 69 60 60 65 60 60 64 69 73 73 71 65 71 72 76 78 71 69 64 52 52 54 53 52 52 53
97 89 84 50 50 51 57 53 52 55 54 54 62 56 58 63 75 72 68 62 67 62 61 64 66 69 75 71 63 64 60 62 54 54 52 52 51 52 53 51 52 52 54 56
97 89 72 57 48 52 64 55 50 58 65 58 56 66 60 74 68 65 64 66 63 62 66 65 64 71 75 76 62 51 55 51 50 53 52 53 53 54 52 52 53 54 54 56
100 99 93 65 47 62 60 70 60 64 64 66 65 97 83 77 78 66 61 62 58 64 69 65 60 70 70 71 76 60 56 55 54 57 56 56 57 56 54 55 54 59 58 58
91 92 83 62 56 52 80 71 66 72 68 70 79 84 84 87 71 62 68 59 61 67 71 67 65 61 59 56 72 50 54 55 55 58 59 57 56 54 54 55 67 83 87 82
97 96 95 55 57 74 62 64 64 68 70 78 91 91 86 60 60 62 67 59 62 71 72 68 53 52 50 51 48 52 53 55 58 60 56 54 55 52 54 61 76 87 89 84
76 80 63 56 62 59 62 77 82 81 89 92 96 73 64 63 60 60 67 58 63 72 76 66 60 56 62 59 57 57 58 58 58 59 56 56 57 59 62 61 71 79 79 76
79 65 60 63 58 74 86 94 92 91 92 88 64 65 68 62 58 63 65 62 63 73 76 73 65 62 62 59 59 57 59 60 59 62 65 64 61 58 65 71 73 71 77 79
87 73 67 69 90 89 90 86 75 63 60 62 67 66 66 64 63 68 68 65 67 77 81 74 67 62 56 58 63 61 66 66 63 67 71 72 66 67 72 74 77 80 75 77
92 68 78 92 92 89 89 72 62 63 67 62 55 58 64 63 66 67 67 67 72 77 77 71 65 58 58 60 64 68 68 67 72 75 75 72 70 70 72 78 78 74 71 75
72 79 93 92 89 85 68 65 54 54 47 45 46 58 64 70 66 72 74 75 74 72 72 66 61 63 61 73 86 87 83 83 75 82 74 74 75 77 78 72 76 76 75 74
74 88 95 92 90 70 50 44 46 43 43 47 55 60 68 71 74 75 75 74 74 72 68 63 66 64 66 72 86 90 91 92 83 81 83 83 83 83 80 84 88 82 75 78
62 62 67 58 52 50 46 46 52 53 52 55 53 63 66 71 75 80 83 80 80 82 82 72 74 74 74 79 83 85 85 80 87 89 92 91 88 85 83 83 82 80 75 75
69 60 55 54 51 54 54 54 57 59 59 61 64 70 65 78 85 90 79 83 93 88 84 93 95 88 86 87 83 83 83 81 92 88 89 86 84 85 82 83 81 81 80 83
65 58 60 61 61 66 62 59 63 64 67 75 75 80 82 89 89 91 77 82 90 96 96 96 95 81 89 87 87 82 84 82 92 87 87 86 87 86 84 86 85 84 85 90
54 57 60 66 64 64 66 69 74 76 77 72 82 87 91 90 92 89 84 88 97 96 95 96 94 86 94 81 85 85 83 85 88 90 88 89 86 86 87 87 86 86 86 84
52 56 58 59 64 72 72 72 76 76 83 85 88 88 88 88 89 91 89 97 97 95 94 97 95 85 77 84 89 88 89 90 89 86 89 94 92 87 88 90 88 89 88 85
58 60 64 66 70 78 80 80 86 84 83 86 89 91 91 88 88 91 96 97 95 93 93 86 83 81 89 92 89 80 90 93 90 90 94 91 94 95 93 93 90 90 92 90
68 69 80 85 84 84 89 88 90 89 86 89 94 93 93 92 94 99 97 91 92 96 87 86 80 78 82 86 79 86 93 93 92 92 94 94 94 93 94 94 92 92 92 91
70 82 87 87 88 87 84 89 89 92 93 92 91 92 93 93 96 97 96 92 91 92 83 79 77 83 84 92 85 91 88 89 91 92 94 94 94 94 94 94 93 92 93 92
73 79 81 89 90 83 86 90 92 93 94 93 94 94 94 94 95 95 92 88 89 89 82 88 88 86 88 98 98 95 94 93 92 91 94 95 94 94 94 93 93 93 93 91
76 79 81 84 92 94 94 82 88 90 92 93 95 96 98 95 96 93 89 94 98 94 93 96 95 87 90 98 97 95 94 94 94 95 94 97 95 95 94 94 93 93 94 95
88 86 88 94 93 84 87 84 90 84 84 94 96 94 98 94 97 93 96 93 92 91 93 94 86 94 98 96 96 94 94 93 94 95 94 95 95 94 94 94 94 93 93 92
82 82 81 87 87 85 83 88 92 86 94 98 98 96 98 97 94 91 91 88 86 91 91 95 95 96 96 94 95 95 94 92 93 92 94 94 94 93 94 93 94 93 93 90
88 95 89 88 83 82 78 87 94 92 97 99 98 98 95 100 99 94 90 92 90 90 92 96 97 96 93 94 94 94 92 92 94 92 94 94 94 94 94 94 93 93 93 91

GFSNGP_sfc_rhum_024.txt.gz
RH
39 36 35 40 42 38 43 46 60 48 34 29 28 31 34 39 39 39 39 42 45 44 36 39 35 34 36 44 46 47 47 45 53 63 76 83 86 71 65 56 53 53 54 46
67 45 42 50 41 39 42 43 41 42 44 29 31 33 42 42 41 43 45 49 50 45 41 40 37 38 44 46 49 49 47 47 56 61 60 62 61 56 47 43 40 41 42 44
85 57 62 87 49 39 41 38 43 51 36 33 36 43 45 44 45 48 53 54 46 42 43 40 41 41 45 49 47 48 48 46 46 46 46 45 40 38 42 44 42 43 43 44
99 92 92 44 33 34 41 38 32 33 34 40 42 41 42 42 53 60 59 52 43 45 42 40 37 36 43 42 47 50 48 48 43 45 42 41 42 44 44 42 44 44 45 46
100 78 51 42 36 41 46 48 37 42 44 42 43 48 46 56 65 73 62 52 47 41 41 41 36 37 41 42 38 46 49 52 51 46 44 43 45 45 43 44 44 44 45 48
96 100 88 43 36 44 45 56 46 50 56 59 73 97 82 77 70 69 64 38 45 43 41 39 36 40 40 36 37 42 45 45 42 44 45 46 43 45 44 42 43 50 55 56
92 99 69 39 43 42 78 73 54 53 64 78 90 89 89 75 66 44 37 40 41 42 42 39 41 41 42 36 34 35 39 43 42 43 43 41 43 42 42 45 55 83 96 77
95 100 96 40 45 73 62 56 53 60 68 86 89 82 68 54 45 36 29 26 32 42 41 38 41 41 39 37 32 37 42 44 44 43 40 38 44 43 45 49 64 94 88 87
57 60 41 38 48 46 52 62 76 89 89 83 74 65 48 39 35 31 33 34 37 38 42 43 44 42 43 39 40 44 45 44 44 42 43 44 47 49 51 51 66 80 80 76
67 48 42 46 46 69 70 87 85 85 84 70 56 41 40 31 29 32 32 34 34 36 39 43 43 45 44 46 46 43 47 47 45 46 51 47 45 46 53 64 75 67 72 74
62 56 56 53 69 82 86 84 71 49 45 47 42 37 30 28 27 29 35 34 37 43 46 45 45 46 44 44 47 50 51 52 51 52 56 54 52 53 60 63 74 76 70 71
87 65 78 87 91 87 82 57 41 40 38 33 29 28 29 30 30 32 36 40 43 43 43 43 42 46 43 42 46 50 54 53 56 64 63 59 56 59 67 73 73 72 70 76
78 70 83 90 87 70 47 42 36 36 32 32 30 31 34 34 33 42 40 42 44 50 50 48 50 55 52 60 71 76 70 68 66 72 65 62 64 66 71 65 66 71 70 70
68 76 95 94 87 47 41 36 36 29 29 32 36 38 38 39 38 38 39 45 57 52 51 57 73 76 64 75 71 95 90 87 75 70 71 72 74 76 74 77 81 72 62 70
62 63 69 52 44 39 30 30 33 31 32 34 32 37 41 46 46 46 49 58 61 55 55 67 79 79 91 70 73 77 77 72 81 81 83 82 83 78 76 75 75 66 63 61
52 44 38 36 29 29 30 31 36 38 37 38 46 55 53 53 54 55 54 63 74 67 66 96 98 90 89 80 73 65 64 79 83 74 79 80 75 76 74 74 71 68 67 68
52 36 34 37 34 37 38 38 41 43 52 59 61 76 76 83 84 75 67 76 100 100 100 100 96 84 88 76 71 65 67 65 78 72 77 75 76 78 75 76 75 70 72 80
32 33 32 36 40 46 47 50 55 59 63 65 87 90 91 91 91 91 92 95 100 100 98 94 92 80 81 66 68 67 70 78 77 78 76 80 78 74 77 78 75 72 73 73
31 34 36 41 47 55 57 57 67 72 88 91 92 93 94 93 94 93 96 100 100 98 84 92 93 85 65 78 76 70 77 80 76 73 78 79 85 79 82 84 81 78 74 72
35 37 43 50 58 71 81 81 91 84 80 88 93 95 95 92 91 93 97 100 98 91 94 82 80 78 81 77 82 63 78 88 77 78 89 82 84 86 85 84 87 81 80 79
51 51 74 90 87 92 92 93 92 91 89 93 96 95 96 97 96 99 99 88 97 99 88 79 73 59 60 66 67 83 90 94 92 90 90 92 90 85 86 86 86 86 82 81
51 78 96 93 92 89 90 93 90 94 96 95 93 95 100 98 99 98 100 91 83 92 77 73 63 74 65 86 73 96 84 82 87 88 87 89 89 88 88 89 87 87 82 81
56 62 71 92 95 78 84 95 96 99 98 95 94 99 99 97 90 90 84 89 81 90 82 88 84 84 86 100 100 99 97 94 91 89 93 95 90 87 86 87 88 87 85 80
59 62 66 72 94 95 96 72 80 85 88 89 92 98 99 100 97 90 84 85 89 95 98 98 96 88 84 100 100 99 94 93 89 88 88 86 92 89 87 87 86 85 85 86
84 78 78 96 84 65 68 64 73 79 82 86 92 96 99 90 100 95 100 100 90 91 98 94 88 88 99 100 99 94 92 84 85 86 86 87 89 92 93 90 88 87 84 85
66 64 60 65 69 70 69 69 75 78 82 92 97 100 100 100 98 98 100 97 96 88 95 100 100 100 100 97 96 92 92 83 80 80 83 84 86 86 87 88 92 89 89 85
70 81 71 70 66 70 77 76 89 89 89 99 99 100 98 100 100 100 99 100 100 100 100 100 100 94 94 97 91 91 90 87 83 86 87 84 86 87 87 89 93 92 86 87

GFSNGP_sfc_rhum_027.txt.gz
RH
31 25 23 25 27 27 30 30 50 40 32 27 26 28 28 27 31 31 31 34 39 41 38 34 32 30 29 31 34 36 38 37 40 54 55 61 65 63 56 54 40 37 37 36
55 31 25 30 27 28 27 30 30 32 34 28 26 24 28 31 31 34 40 41 45 40 39 38 31 32 31 31 36 37 38 38 40 48 46 48 49 48 44 43 42 37 36 37
80 51 56 82 45 28 28 29 32 46 35 26 28 33 39 45 47 51 63 49 44 45 44 38 33 32 30 30 31 34 38 35 41 44 45 46 42 42 42 43 37 38 38 38
96 90 90 30 23 25 30 28 27 28 29 31 33 41 42 50 59 61 56 53 51 50 40 31 33 33 29 28 29 32 32 35 37 46 47 43 39 38 38 37 39 40 41 40
99 66 43 35 32 37 42 43 31 35 37 35 39 44 44 54 59 61 58 55 51 39 33 34 32 30 29 29 27 27 31 34 38 44 39 37 37 38 37 38 40 39 40 51
94 99 87 39 28 34 34 56 39 42 46 50 50 82 79 80 65 54 51 41 31 29 28 30 30 30 32 32 29 29 29 31 36 37 37 36 36 38 38 37 37 44 57 55
89 99 62 32 35 36 69 71 51 50 72 82 88 92 81 70 64 48 34 28 22 22 26 28 29 29 32 31 30 27 28 34 38 36 35 34 36 36 36 38 47 80 98 74
91 99 90 33 37 68 61 52 68 64 77 86 79 76 69 54 36 30 25 22 22 25 26 24 25 28 28 32 27 29 36 38 40 38 34 32 38 38 38 42 56 99 100 91
61 61 41 38 47 55 55 65 73 85 80 79 69 52 37 34 29 23 21 18 20 22 25 26 26 26 29 36 41 50 44 43 44 40 35 34 39 40 43 44 58 83 81 80
64 42 39 46 51 60 62 71 76 75 65 50 41 40 33 24 20 19 18 20 20 23 26 30 26 25 27 33 46 49 44 48 49 44 43 42 39 40 47 57 70 72 70 74
60 46 51 72 79 80 75 78 69 44 37 37 35 30 25 22 20 21 22 20 22 28 30 28 28 28 29 29 45 46 57 68 55 46 46 57 51 48 53 58 70 71 68 71
84 74 85 89 85 79 76 50 38 36 35 29 27 25 24 25 25 24 26 26 27 28 30 32 31 34 38 51 46 59 81 73 53 57 61 62 59 56 70 71 71 70 68 74
61 76 86 83 80 62 50 40 34 33 28 25 24 25 27 26 26 33 29 31 31 34 38 38 43 47 49 74 73 87 92 65 59 71 69 71 67 69 77 70 84 80 72 71
67 74 93 86 77 51 40 34 31 24 22 23 27 26 27 29 34 35 35 36 37 38 48 48 53 61 72 70 83 97 84 86 72 67 77 79 78 81 79 78 80 77 90 77
71 71 58 54 42 35 26 24 25 26 27 28 27 32 39 42 43 43 44 45 49 53 55 54 66 73 69 71 76 74 78 73 83 83 88 86 82 85 79 80 80 74 64 70
52 40 35 32 27 25 25 27 30 31 31 35 43 51 49 49 55 56 54 59 73 76 71 94 96 79 72 72 70 68 58 78 78 74 83 86 84 82 78 78 76 75 68 71
52 39 35 34 30 30 30 30 34 37 44 52 52 69 74 78 80 65 64 73 94 100 100 100 93 73 73 70 65 57 57 66 81 77 78 84 83 80 82 79 81 76 75 88
31 30 27 28 31 35 39 46 52 51 54 59 86 95 94 94 91 90 91 93 98 100 100 96 91 73 72 61 63 58 66 72 78 84 84 86 84 76 80 82 82 81 77 72
28 28 28 28 34 44 51 53 53 67 90 97 98 97 96 97 95 91 94 99 99 99 98 86 92 82 64 67 69 65 79 83 82 80 82 82 87 85 85 88 85 84 82 74
29 28 31 38 49 66 73 73 96 76 69 82 98 97 97 95 97 100 100 100 98 88 85 77 76 72 70 64 80 61 80 88 82 83 90 84 88 90 89 84 85 83 87 85
49 44 52 82 83 98 100 99 99 91 83 97 100 99 94 92 98 100 97 77 91 98 83 78 76 58 55 64 68 86 91 90 92 89 90 92 91 89 91 91 90 89 87 86
44 70 99 100 95 85 86 90 84 100 100 99 95 88 90 93 100 98 100 91 76 94 78 77 70 71 61 81 66 98 85 85 86 92 91 93 90 89 91 91 89 88 89 87
46 48 61 93 100 74 74 92 99 100 100 100 91 87 90 86 93 94 87 89 78 95 84 92 87 83 85 100 100 100 99 97 93 89 93 99 99 95 90 89 90 88 90 88
52 51 56 62 88 94 94 65 64 74 99 100 93 97 94 95 99 83 87 86 89 94 99 100 99 89 87 100 100 100 100 100 90 90 88 85 97 98 93 91 87 89 88 86
68 66 68 90 81 61 53 52 63 70 80 79 85 80 94 99 100 97 100 100 96 94 100 98 91 89 100 100 100 100 99 94 90 88 86 88 90 90 95 93 93 90 89 87
55 56 54 54 57 57 60 66 76 81 79 85 92 100 100 100 100 100 100 99 100 94 100 100 100 100 100 100 100 100 95 84 87 87 85 82 87 90 91 90 91 94 90 85
56 72 61 61 53 58 70 78 93 93 90 100 98 100 93 100 100 100 99 100 100 100 100 100 100 98 97 100 98 96 95 90 85 86 81 82 84 90 89 89 89 90 94 89

GFSNGP_sfc_rhum_030.txt.gz
RH
31 24 23 22 21 22 25 30 49 40 31 28 31 30 28 39 39 37 41 43 48 46 43 40 41 40 35 38 37 40 40 44 48 57 58 60 65 66 62 61 55 54 52 52
62 27 27 31 25 28 25 27 26 31 34 27 26 35 41 42 46 45 57 57 53 43 43 45 43 39 36 37 38 39 39 44 45 52 56 61 63 63 60 58 56 53 52 53
84 60 64 87 57 29 28 27 32 47 34 28 39 46 47 48 52 56 58 55 52 50 48 48 45 36 38 37 36 38 37 36 41 48 54 59 52 50 54 59 54 56 56 55
96 93 84 32 24 26 31 29 30 29 30 39 41 42 49 55 61 63 59 56 53 50 49 46 36 35 38 33 36 38 35 34 35 47 48 53 53 50 54 54 58 58 60 65
100 73 48 35 32 40 46 47 33 43 47 49 52 49 56 64 65 64 60 54 51 45 37 31 30 31 33 33 34 35 36 33 34 43 48 49 49 55 53 56 58 58 60 69
99 92 81 45 28 32 34 63 52 57 67 70 63 87 74 67 65 62 53 40 32 28 25 27 28 29 30 30 31 34 38 45 51 47 46 51 53 53 54 55 52 78 77 76
84 94 70 36 33 34 66 77 67 65 75 80 83 80 70 63 58 44 32 26 23 22 23 24 26 27 30 27 28 42 52 52 48 48 50 50 50 51 51 58 72 95 98 95
89 99 87 35 44 82 68 61 68 68 74 71 68 65 60 44 35 29 23 20 19 21 22 24 24 27 26 26 25 39 47 53 62 62 50 45 52 55 57 61 77 94 94 91
71 74 50 48 64 64 65 73 73 70 61 68 58 42 38 34 28 23 21 19 20 21 24 26 26 26 29 31 34 48 62 72 68 57 56 49 57 60 65 65 86 92 90 86
64 44 39 60 64 64 67 76 70 64 57 43 41 39 34 26 23 23 23 24 23 25 27 30 29 29 31 37 43 53 60 72 75 76 70 55 57 60 77 86 90 79 83 88
55 43 45 71 73 74 78 70 57 44 36 36 34 32 27 27 26 25 26 26 27 31 33 31 31 35 37 42 55 62 80 78 82 79 70 74 70 73 81 80 86 92 90 92
79 64 64 83 86 82 76 55 39 36 35 29 26 27 28 29 27 26 32 32 34 35 37 37 37 40 40 53 61 72 84 89 95 94 86 83 82 80 73 78 75 72 71 80
61 66 72 80 78 68 56 41 34 33 28 26 26 28 29 30 32 41 37 38 41 44 44 45 48 52 56 74 86 90 87 81 82 86 84 83 88 83 90 83 80 87 82 77
63 72 88 81 68 57 45 35 33 23 23 27 30 29 31 37 40 42 42 46 47 49 54 57 59 75 76 73 83 96 94 84 92 87 87 91 92 93 88 91 93 89 82 87
69 69 65 58 51 39 28 24 26 27 28 30 30 38 44 48 49 50 51 52 57 62 66 72 80 91 77 78 77 74 85 85 92 82 90 93 93 90 93 91 90 86 85 93
57 47 40 37 30 27 26 28 30 32 33 37 50 65 57 55 59 62 62 64 78 83 84 90 97 97 83 75 79 78 75 80 83 84 89 91 92 96 92 91 90 89 88 95
58 46 37 36 33 31 31 31 37 43 48 64 68 76 81 84 87 76 73 78 88 90 90 90 97 89 81 76 71 72 75 76 81 84 89 92 96 92 93 93 92 90 91 96
35 32 29 30 32 35 40 53 66 67 69 73 85 93 95 95 91 89 90 88 90 89 89 96 94 83 78 74 76 79 85 87 89 90 91 93 92 94 89 91 91 92 95 93
30 29 29 29 34 54 64 68 69 79 88 90 94 92 90 92 93 91 87 87 88 87 97 86 86 89 76 72 75 80 88 89 88 87 90 89 92 90 93 92 93 94 92 94
31 32 34 40 51 76 80 79 88 82 78 83 93 92 92 88 84 88 87 97 93 92 88 80 89 86 84 73 81 77 85 88 87 89 91 91 91 92 94 90 91 93 93 95
66 58 63 82 86 90 98 93 96 95 88 95 97 94 89 90 90 90 98 92 84 96 87 80 87 78 75 74 78 87 88 91 91 91 91 92 91 90 90 92 93 93 94 95
62 73 86 90 93 88 88 90 88 94 93 93 96 96 90 90 90 89 94 91 84 90 88 87 82 82 80 84 79 90 90 89 89 91 92 92 92 92 91 91 92 93 93 96
65 65 68 85 89 79 83 94 90 90 97 98 98 97 88 86 88 94 96 90 96 95 96 95 93 86 84 93 96 94 91 92 91 91 91 92 92 92 91 91 92 94 94 94
67 67 68 71 85 90 89 79 78 81 98 99 100 99 88 87 92 96 96 90 91 93 97 98 95 97 93 93 97 93 92 91 92 92 91 90 94 91 91 91 92 93 95 94
71 72 72 84 81 80 76 68 70 78 82 81 83 82 84 87 100 94 99 99 99 99 98 92 98 93 93 93 94 94 92 92 92 92 93 92 93 95 93 91 92 91 96 96
68 67 66 70 71 67 66 69 80 85 87 89 89 94 99 100 99 98 96 98 99 98 98 98 97 99 97 95 95 94 92 90 90 91 92 95 93 93 93 94 94 93 92 97
68 77 71 71 67 66 75 86 95 94 89 92 91 90 89 93 94 92 94 100 100 99 99 99 99 98 98 97 95 92 90 91 90 92 94 95 92 92 94 95 96 95 93 93

GFSNGP_sfc_rhum_033.txt.gz
RH
53 40 36 37 37 33 35 39 65 52 46 43 48 58 58 55 52 63 66 63 60 58 58 56 56 56 53 48 46 45 46 50 59 68 67 68 69 71 69 68 64 64 60 61
70 54 51 50 45 46 40 41 44 48 51 52 54 52 58 61 62 65 66 61 59 56 55 56 56 56 47 47 49 50 50 53 55 66 66 72 70 68 68 64 61 57 58 64
90 78 80 80 64 42 41 40 46 59 56 56 64 67 72 74 71 72 70 65 64 62 59 58 60 52 50 48 50 49 51 51 50 60 63 66 63 64 61 65 59 60 61 72
93 87 64 53 39 44 49 48 50 60 67 66 69 74 77 78 83 77 73 71 67 64 60 56 54 52 50 41 50 56 49 49 54 66 61 63 72 63 59 57 59 60 73 75
96 96 66 50 46 54 59 73 67 76 76 75 72 71 92 74 78 82 79 74 67 59 56 54 41 35 37 39 37 36 63 69 72 70 71 77 68 64 54 55 63 70 78 81
94 94 89 64 47 43 48 82 75 78 84 86 79 92 90 82 77 75 70 62 59 37 31 33 36 36 39 35 35 49 50 71 74 79 80 92 84 67 56 60 78 84 84 90
98 93 82 60 48 47 75 78 84 84 89 90 90 90 83 78 75 67 58 32 29 29 31 33 34 36 34 37 39 53 59 66 76 82 76 78 61 54 57 76 91 98 98 93
89 90 95 52 61 67 78 87 81 82 84 83 84 79 76 68 49 37 32 28 28 32 34 33 33 34 39 40 48 58 61 68 90 87 77 57 63 64 67 84 92 96 96 96
80 82 64 65 71 83 80 85 84 76 75 78 76 59 52 47 37 34 33 33 34 36 37 38 38 40 44 49 54 67 77 86 86 79 74 69 63 72 78 85 94 96 96 97
78 60 70 84 81 77 79 86 81 73 69 70 55 54 46 37 35 35 34 37 35 38 41 45 44 41 50 56 68 73 92 90 87 89 87 81 74 78 95 96 96 96 97 97
73 77 87 86 86 87 87 83 72 63 60 52 45 40 39 39 37 39 45 42 44 48 50 50 48 49 53 62 73 80 88 83 90 96 87 83 79 86 92 89 90 95 96 97
88 76 82 93 91 88 87 71 64 50 49 39 37 40 42 42 43 48 51 48 49 53 56 56 57 60 66 77 81 87 92 83 89 98 96 95 96 94 78 81 80 79 80 88
86 87 91 94 91 82 70 61 46 41 40 40 41 40 45 50 54 59 53 53 58 60 64 64 68 74 89 92 92 94 93 94 97 96 97 97 97 98 98 89 82 79 84 85
80 85 94 90 89 68 61 49 37 33 37 41 45 50 55 57 61 61 60 61 62 65 66 71 77 85 83 91 86 93 98 92 96 97 91 89 92 97 95 99 99 98 85 86
84 79 80 77 66 62 53 37 38 41 45 49 56 63 67 72 70 68 69 69 74 77 79 84 81 84 95 92 81 82 83 88 94 91 89 92 96 97 98 98 98 98 96 96
75 62 60 62 44 38 37 40 46 53 56 59 68 74 77 77 80 80 81 88 89 90 90 93 83 85 99 82 81 85 90 86 89 96 96 96 95 98 99 97 98 98 98 99
68 58 53 47 46 44 42 56 60 63 67 73 75 81 85 90 95 93 89 90 94 93 91 93 95 98 89 81 78 80 96 93 86 87 93 97 99 99 98 99 97 98 98 98
44 39 37 42 46 57 62 72 72 75 75 81 89 95 98 100 97 94 89 88 83 83 84 98 96 91 82 74 81 85 94 94 88 95 96 96 97 98 98 98 98 99 98 99
38 43 47 47 63 67 68 73 78 84 90 91 95 94 96 97 94 84 86 90 91 90 85 93 80 91 89 84 80 88 94 95 95 92 95 96 96 96 96 99 99 98 98 97
49 51 52 54 61 69 76 80 92 89 89 93 94 98 97 90 85 80 85 91 86 92 96 94 83 95 93 88 88 94 92 92 92 93 98 97 97 98 98 99 99 98 99 98
65 66 64 70 84 88 93 93 96 98 92 96 99 98 97 92 88 85 91 92 82 93 97 90 87 94 91 94 93 95 96 96 97 95 95 95 94 94 95 96 96 98 97 99
73 77 82 87 91 85 88 90 90 94 96 97 96 97 97 92 89 85 91 94 85 96 95 94 92 89 86 89 84 93 96 98 98 97 97 96 98 99 98 98 96 98 98 98
72 74 76 86 87 80 86 93 92 92 93 95 95 94 98 95 88 93 93 88 98 98 98 97 96 97 95 94 94 95 97 98 97 96 96 96 96 97 99 98 96 95 98 97
75 76 77 76 89 92 89 80 88 89 91 97 97 98 98 88 88 93 92 97 96 93 97 98 98 98 99 98 97 98 98 98 97 96 96 94 97 99 98 98 98 98 98 98
77 76 77 89 86 84 86 87 91 90 92 93 93 93 93 92 97 93 93 95 93 95 98 98 98 98 98 97 96 96 96 97 95 94 95 95 96 95 97 98 97 98 98 98
79 86 87 81 86 87 90 95 97 98 98 96 94 94 90 92 92 92 92 92 93 96 97 99 99 98 98 97 96 96 96 96 96 95 96 94 97 97 98 98 98 98 98 99
84 88 89 92 93 94 97 97 97 97 98 98 94 90 90 90 92 94 94 94 92 91 96 98 98 98 98 98 98 96 96 97 98 97 96 96 97 97 97 98 98 99 99 98

GFSNGP_sfc_rhum_036.txt.gz
RH
58 51 46 44 44 42 43 43 61 55 62 71 70 70 69 67 69 67 66 66 64 64 64 62 62 63 61 57 54 54 53 54 58 64 75 73 80 78 81 74 68 68 61 67
61 67 63 53 46 54 50 44 48 63 77 66 64 68 72 72 71 74 71 66 67 64 62 60 59 63 64 63 61 60 59 57 59 63 70 76 78 82 73 69 75 59 64 70
62 85 70 75 59 48 47 55 55 62 71 71 76 76 81 83 79 80 78 73 71 68 67 65 67 64 57 53 53 54 58 62 64 64 72 75 75 83 89 96 68 59 70 74
81 78 47 48 48 45 68 73 72 76 78 76 76 83 85 83 87 83 79 74 73 72 69 64 62 46 46 42 43 48 62 67 73 74 74 78 88 89 88 85 72 63 79 77
79 90 54 53 50 54 56 74 76 82 82 82 77 88 93 81 82 84 82 77 76 73 65 50 40 40 41 43 44 57 67 75 76 82 84 91 91 96 94 91 67 81 80 83
99 71 66 54 53 45 48 79 80 83 88 85 82 90 87 84 79 74 73 72 62 48 34 37 37 39 43 44 49 66 68 72 76 83 90 93 96 95 89 68 82 83 83 88
99 95 81 58 55 52 76 69 86 84 87 86 84 82 79 83 74 70 57 34 35 37 38 38 40 42 46 46 57 63 67 72 85 90 93 84 87 71 76 87 90 94 96 90
95 95 86 56 60 64 68 91 88 89 86 87 86 81 76 74 54 38 36 36 38 42 43 42 44 50 49 52 53 66 76 85 87 89 86 79 67 70 77 90 90 98 97 96
77 79 62 68 64 85 85 88 85 85 84 78 78 74 59 44 40 38 39 42 42 46 49 52 52 54 57 55 61 74 88 91 92 87 87 82 72 75 82 85 95 97 98 97
79 65 74 89 86 82 82 86 82 77 76 75 68 57 46 40 40 43 47 48 48 52 57 63 61 59 66 65 75 82 90 89 87 87 92 78 75 74 91 97 97 97 98 97
80 94 91 90 89 88 88 83 74 69 68 62 46 45 43 43 46 52 54 54 55 61 68 67 66 63 67 84 84 98 99 88 82 92 99 93 83 87 93 89 92 96 97 97
88 71 80 88 91 88 87 78 67 63 54 44 43 43 46 51 56 58 62 61 64 68 71 72 64 70 73 90 90 94 99 97 92 95 97 94 95 94 82 83 82 81 84 93
77 91 92 93 91 84 75 66 61 45 45 44 46 51 57 59 62 68 65 67 70 70 74 72 75 80 83 90 99 98 98 98 92 96 92 88 86 92 97 86 83 81 82 80
85 86 95 93 92 77 65 51 45 43 46 51 57 62 63 66 72 71 71 72 73 78 80 82 83 76 74 87 99 94 96 98 95 94 88 86 95 94 96 99 100 97 87 86
88 84 80 80 74 69 54 42 46 49 53 59 63 66 73 77 78 78 80 82 88 90 90 86 84 80 75 98 91 86 88 94 98 96 93 92 94 96 99 99 97 98 98 95
83 73 72 69 58 44 45 49 53 58 60 64 69 73 78 82 86 90 91 92 88 88 83 86 91 87 99 95 84 83 84 88 92 97 94 95 96 99 99 98 97 96 99 99
75 67 54 54 51 51 56 60 63 64 69 72 75 82 86 91 96 93 91 84 93 90 88 86 88 95 91 86 83 88 88 86 91 91 93 94 96 99 99 100 99 98 98 98
47 45 46 50 56 63 68 72 72 74 74 81 91 97 98 100 98 93 90 90 86 88 89 86 96 86 92 83 79 90 95 96 95 95 95 96 97 97 97 100 98 97 98 99
49 52 56 58 60 62 62 65 72 82 92 93 97 95 95 97 94 89 87 89 83 84 78 92 95 86 90 92 92 96 95 94 96 96 93 97 97 97 99 98 98 98 98 98
53 53 52 54 59 63 67 71 90 88 86 95 97 98 98 96 94 90 90 86 85 86 86 96 95 88 89 92 92 91 95 94 94 94 94 96 96 97 98 99 100 100 99 98
65 65 65 70 81 86 92 92 94 93 88 96 99 97 97 95 94 93 87 84 83 92 92 98 99 92 87 89 89 94 95 95 96 96 96 96 95 95 97 98 98 98 98 98
66 77 82 86 90 83 85 88 89 93 94 96 96 99 99 98 96 95 92 91 85 96 93 94 96 96 97 95 92 95 92 94 94 98 99 98 97 97 99 99 100 98 98 99
70 71 77 89 89 79 81 90 92 93 93 93 96 95 96 96 96 98 94 89 96 95 93 93 90 90 98 98 98 98 97 95 96 95 97 97 96 96 96 98 99 98 99 98
77 77 78 78 90 94 91 80 83 88 93 94 96 98 98 99 94 96 94 95 97 98 93 93 94 97 98 98 98 97 96 96 96 96 96 99 96 95 97 97 97 98 98 99
78 77 77 90 86 84 83 83 91 92 94 96 96 96 93 94 95 90 96 95 92 93 92 88 95 98 96 96 97 97 97 96 96 96 97 97 96 96 95 95 96 97 98 98
81 87 89 85 87 87 90 95 96 97 98 98 98 97 95 94 94 94 97 98 96 91 88 87 86 94 96 95 98 97 96 96 96 96 97 97 97 97 96 97 97 98 98 98
88 94 93 90 91 93 95 96 98 96 96 98 98 97 95 96 98 99 100 97 93 93 93 90 90 89 90 91 94 92 93 95 95 96 97 97 98 97 97 97 97 97 97 98

GFSNGP_sfc_rhum_039.txt.gz
RH
62 59 49 45 41 42 42 48 56 50 63 67 76 78 80 81 78 73 72 69 67 65 63 64 66 69 70 66 63 63 62 64 68 71 72 77 82 84 86 91 83 86 88 71
67 71 66 55 45 48 54 48 51 72 85 72 73 75 79 78 76 76 72 69 69 67 66 67 68 70 59 54 53 56 55 67 70 70 72 80 83 85 87 93 95 93 84 75
55 84 61 54 53 50 50 57 54 83 69 75 80 80 86 84 81 81 80 77 76 74 73 69 66 55 46 48 49 51 62 68 73 75 75 75 76 91 95 96 94 86 74 74
74 75 53 40 51 47 54 70 74 79 77 75 79 85 87 86 85 80 78 75 74 72 62 58 46 40 46 43 48 54 67 73 78 81 85 85 90 93 92 94 93 88 81 78
80 79 50 46 58 70 59 62 78 82 84 82 87 92 92 85 83 78 80 78 78 69 50 39 39 41 45 49 49 62 69 74 75 82 89 93 93 88 92 95 91 84 81 78
98 67 55 44 59 51 50 71 80 82 86 89 95 99 86 88 82 79 77 60 40 36 38 42 43 48 53 52 53 64 69 72 77 89 94 95 94 96 96 81 85 84 79 83
100 86 73 54 55 53 68 55 88 80 84 89 89 84 75 79 80 63 39 39 40 45 47 47 51 56 59 60 60 56 70 79 88 91 92 92 93 78 90 87 86 93 95 89
96 95 74 57 60 64 66 88 86 89 87 86 80 83 78 71 44 40 40 44 45 50 53 55 58 63 67 70 63 64 79 88 91 91 88 86 83 71 82 93 91 97 97 95
76 78 61 63 71 84 84 89 90 88 86 80 81 74 64 46 43 42 47 49 50 57 59 63 65 68 74 71 74 82 85 89 96 87 93 91 75 81 84 83 95 96 99 98
75 61 68 71 89 88 85 87 85 81 81 74 71 61 48 42 44 50 53 56 57 61 67 72 71 70 73 78 91 92 92 96 97 90 88 92 97 83 92 97 98 98 98 98
84 81 92 89 88 87 87 86 80 77 71 70 55 48 45 47 52 58 61 60 63 69 74 75 75 73 75 83 95 88 90 91 99 94 99 96 89 86 88 89 93 97 97 97
84 70 77 77 89 88 90 84 76 67 54 48 46 47 49 55 58 63 66 66 71 75 77 79 77 79 84 75 80 96 95 91 98 99 98 95 90 90 82 82 85 83 84 95
72 89 90 94 92 87 82 73 62 59 47 46 48 52 57 60 64 72 70 73 78 81 83 85 88 91 66 75 92 98 98 97 99 97 94 89 88 86 94 86 83 81 80 79
92 90 96 94 94 83 66 60 50 46 47 53 61 62 63 67 77 76 78 83 85 90 93 92 80 76 78 71 92 99 97 97 99 98 93 90 95 95 96 99 99 99 86 87
92 84 84 87 85 75 43 44 50 52 59 64 64 67 74 77 80 84 90 92 92 82 74 75 76 80 82 97 98 94 90 97 97 99 97 94 95 96 98 98 98 98 98 94
88 83 78 76 55 47 48 51 56 62 63 66 68 73 79 83 87 92 92 91 88 79 76 77 84 80 88 98 94 88 83 87 92 96 95 95 97 98 99 98 98 98 99 98
85 65 60 65 73 71 59 60 62 64 70 70 74 82 86 93 97 91 89 89 91 83 85 90 89 85 89 93 88 86 97 96 90 95 96 94 95 96 97 99 98 99 98 98
58 62 71 84 74 71 71 71 68 71 71 78 92 97 98 100 99 95 92 89 92 89 85 86 87 90 92 90 91 88 96 94 96 97 95 97 95 97 97 99 99 99 97 98
85 86 70 61 60 61 59 61 66 77 91 93 96 94 95 96 96 94 92 92 90 91 83 88 88 97 98 87 94 97 96 95 94 95 97 95 97 95 98 98 98 98 98 100
57 55 57 57 62 62 65 66 88 83 82 94 97 99 98 95 96 95 95 96 88 83 89 91 93 97 96 94 91 94 94 96 97 96 96 95 96 95 95 98 100 99 98 98
69 64 68 72 81 86 90 92 93 91 84 95 98 96 96 96 98 97 98 97 85 89 92 97 95 95 97 97 93 98 97 95 95 95 96 96 97 97 96 96 96 98 98 99
67 79 83 86 89 83 85 86 87 92 93 94 95 97 100 98 99 97 95 96 87 95 95 88 87 90 87 88 90 97 97 97 97 97 97 97 96 97 97 96 97 97 97 98
73 73 78 90 91 80 84 89 90 93 92 91 92 93 95 95 97 98 95 88 95 98 95 92 88 96 97 96 93 95 97 96 96 96 96 96 96 96 96 96 95 95 97 97
74 75 76 78 91 93 88 77 82 85 91 91 93 93 96 98 99 96 93 97 100 100 98 90 87 90 91 95 97 97 98 97 97 97 97 96 97 96 96 96 97 96 96 97
81 80 80 92 89 87 86 83 89 91 92 92 94 95 98 98 98 92 97 97 99 100 97 90 89 89 92 92 93 95 96 96 96 97 97 97 97 97 97 97 96 96 96 97
88 93 94 91 94 94 93 93 95 92 94 96 96 96 96 96 97 98 98 99 98 98 98 97 92 92 93 93 93 92 92 91 93 96 97 95 96 97 97 97 97 97 97 97
94 98 94 93 88 90 92 95 98 96 94 98 97 96 97 97 98 98 96 98 98 100 99 98 97 94 93 91 91 91 89 93 93 94 97 96 96 96 98 97 97 97 98 98

GFSNGP_sfc_rhum_042.txt.gz
RH
71 66 55 47 44 48 48 52 53 51 63 55 74 84 88 86 82 76 73 71 69 67 64 62 65 65 59 57 56 57 56 65 71 75 74 76 78 81 88 92 91 94 96 95
75 75 68 60 50 49 50 50 54 64 62 72 80 81 89 86 81 76 76 75 73 70 69 66 64 61 49 48 50 56 56 70 74 76 76 78 81 85 92 95 95 92 96 98
72 78 57 57 52 52 57 55 57 70 61 82 87 84 89 87 81 77 76 72 72 77 73 65 58 48 45 49 51 56 60 68 76 79 82 85 87 92 95 94 92 91 88 81
71 72 48 38 47 54 52 57 62 71 73 77 81 86 85 84 82 78 73 70 76 74 59 53 44 44 50 50 54 57 65 72 78 80 85 90 93 94 91 91 93 90 85 80
74 74 44 36 65 66 58 54 73 70 84 84 92 88 88 85 81 74 72 75 74 68 49 43 46 49 53 56 56 58 66 74 76 82 92 94 95 95 95 96 96 90 83 79
96 65 55 42 60 58 52 73 71 78 87 91 90 96 85 88 84 82 74 63 43 41 44 49 52 57 62 65 68 71 70 73 81 90 93 94 95 95 97 88 85 86 78 80
99 82 67 52 58 55 69 61 86 80 86 93 91 84 77 85 76 61 40 39 43 49 51 54 59 64 70 74 75 74 76 78 88 86 91 93 95 84 86 88 91 96 94 87
96 92 73 54 60 62 64 80 83 86 88 87 83 84 82 76 47 42 42 44 48 53 58 62 66 72 76 79 78 87 90 92 93 95 94 87 95 83 80 99 92 97 97 95
76 78 60 60 74 80 78 79 88 88 88 84 85 82 75 50 45 44 46 50 53 58 62 66 72 76 77 76 85 94 93 83 80 91 96 91 76 83 89 91 96 96 98 98
74 59 67 65 75 85 86 83 87 86 84 83 81 72 54 46 45 50 52 56 57 63 69 74 76 78 78 80 90 94 81 89 92 97 95 97 98 93 97 98 98 98 98 98
82 74 87 82 88 84 86 87 84 82 81 77 63 54 48 46 51 56 60 58 64 72 77 78 81 81 82 88 78 77 92 92 96 98 98 98 94 92 94 93 92 96 96 97
80 63 66 64 84 88 90 88 84 76 68 55 54 49 48 52 56 61 66 66 72 77 82 87 89 89 89 73 68 76 89 91 93 100 100 98 98 94 81 84 84 83 87 94
68 86 85 96 93 89 87 83 73 54 53 53 50 50 56 59 64 71 70 76 86 90 93 94 90 79 70 73 80 84 95 95 99 98 99 98 96 96 97 87 79 83 79 80
92 91 93 94 94 83 73 58 51 49 52 56 60 60 60 63 72 74 79 90 92 93 93 83 70 74 79 79 87 99 96 98 99 99 99 97 96 96 97 98 98 98 85 85
91 88 88 91 66 54 45 47 54 60 63 63 62 65 69 74 76 79 89 90 90 88 84 79 76 76 79 85 96 93 92 96 98 99 100 99 96 94 97 98 98 97 98 93
89 80 68 57 52 52 58 65 73 67 62 67 66 70 75 79 81 88 91 90 91 90 79 83 88 83 85 93 94 94 87 89 91 98 98 97 93 97 97 97 97 98 99 97
72 78 88 93 93 91 87 66 63 66 69 70 70 79 82 90 96 92 88 86 92 90 88 88 88 86 86 91 91 93 84 82 92 96 98 96 97 95 95 97 97 98 97 96
78 84 88 90 86 76 71 70 66 68 68 71 89 96 97 100 94 91 92 93 94 93 90 86 90 88 91 92 92 95 97 94 96 96 94 97 96 95 97 97 97 98 96 97
83 88 88 76 64 62 59 59 63 72 88 92 96 93 93 95 95 94 96 98 98 97 84 90 91 93 91 93 97 98 98 98 97 92 94 95 96 95 95 96 96 97 97 98
58 59 60 59 63 64 66 65 86 80 79 94 96 97 95 92 94 97 98 99 93 89 90 92 93 97 97 97 98 98 98 96 97 96 95 96 96 94 95 96 95 96 96 97
67 64 69 72 81 88 90 92 92 88 83 94 96 93 93 92 97 100 100 98 90 92 93 97 96 88 86 94 93 96 97 97 97 96 96 96 96 96 96 96 96 96 95 96
69 82 85 87 89 85 86 88 86 92 91 91 92 95 96 96 96 96 98 97 91 95 99 95 94 93 93 95 96 97 97 97 97 97 97 96 96 96 96 96 96 96 95 95
75 74 78 89 91 82 87 89 89 92 91 90 90 90 93 90 94 99 97 91 93 98 99 97 87 83 83 92 94 95 95 96 96 97 96 96 96 96 96 96 96 96 96 95
78 81 83 85 94 92 93 89 90 89 92 91 91 89 92 94 93 96 97 99 100 100 98 99 98 98 100 95 94 93 92 93 94 95 95 96 96 96 96 96 96 95 96 96
91 92 93 95 96 96 93 89 92 89 88 88 88 88 90 93 98 98 98 98 100 97 98 99 100 98 98 97 96 95 93 93 94 91 92 95 95 96 95 95 96 96 96 97
95 97 96 94 93 90 90 88 89 87 86 88 86 85 91 97 96 97 97 97 96 98 98 98 99 98 98 95 95 95 94 93 94 94 94 94 94 95 96 96 97 97 97 97
88 90 84 83 78 82 85 84 90 91 87 89 91 87 85 89 94 97 97 97 96 97 99 99 100 98 97 98 97 96 95 95 94 94 93 93 93 94 94 96 96 97 97 97

GFSNGP_sfc_rhum_045.txt.gz
RH
57 56 45 36 37 50 43 43 51 39 43 35 44 57 64 64 64 63 57 54 51 50 50 47 46 41 36 34 35 38 39 41 52 57 56 54 56 62 66 72 73 73 80 81
62 61 56 49 41 40 43 39 41 42 41 34 53 60 70 70 65 62 57 53 52 53 51 47 43 37 35 35 37 42 41 45 52 60 56 58 62 68 72 74 72 70 77 79
65 60 46 63 48 43 43 44 38 44 36 64 70 68 70 70 65 61 56 56 59 58 49 47 37 35 34 37 41 43 43 45 52 60 59 60 63 66 69 72 74 76 72 66
71 68 53 36 41 40 45 45 43 50 55 59 60 64 65 62 62 62 57 58 60 52 45 36 33 35 42 40 44 47 48 49 51 58 61 64 68 67 71 76 79 71 74 64
77 55 38 29 43 54 54 40 47 46 62 71 73 67 68 66 60 56 58 58 53 41 35 34 37 42 44 44 48 49 51 56 57 61 66 69 67 71 72 78 74 76 72 62
81 64 58 38 39 50 43 59 49 58 72 78 69 81 62 68 64 60 59 54 39 33 36 40 43 47 48 49 50 54 61 66 63 67 72 72 72 70 71 62 61 65 63 62
83 80 60 41 43 46 57 51 68 62 70 78 70 69 68 74 70 60 43 33 35 37 38 42 48 52 53 52 53 59 65 66 69 73 78 74 70 66 64 69 75 94 99 71
91 84 74 44 49 62 56 56 63 72 72 78 75 75 80 68 50 37 35 38 39 41 42 46 50 56 54 55 53 64 69 72 67 63 64 76 72 63 65 85 92 95 95 88
67 67 55 49 57 61 61 60 66 72 72 73 75 73 64 48 40 40 38 39 42 43 48 51 52 58 62 59 62 70 71 73 66 63 68 70 71 73 73 72 83 92 85 79
68 51 56 58 57 68 70 71 66 74 73 72 72 68 51 39 42 43 42 44 44 48 50 55 56 62 63 65 70 66 72 71 72 71 73 74 73 73 72 76 76 73 77 81
69 62 65 64 73 67 75 75 77 73 72 71 65 48 48 49 45 43 49 48 51 56 59 61 65 68 67 67 66 63 69 74 76 79 83 78 72 66 68 70 79 82 76 82
79 58 58 58 77 80 80 79 74 68 59 55 58 57 53 51 46 51 53 54 58 63 66 67 72 72 68 63 57 64 78 78 86 86 83 79 72 68 77 85 84 82 83 92
62 75 70 85 84 78 78 75 59 55 57 52 48 51 49 50 56 63 57 62 66 70 71 70 69 63 58 66 74 78 81 87 83 88 83 84 83 74 73 68 77 80 81 81
83 80 79 85 87 68 56 50 52 49 55 68 72 54 52 54 62 60 60 64 72 70 69 68 67 66 62 60 69 89 92 91 84 85 84 83 82 86 81 79 80 79 78 82
86 84 79 59 49 46 48 58 74 80 82 59 54 57 57 59 60 61 64 72 72 71 67 67 69 65 63 71 76 85 90 89 92 88 90 91 90 88 82 82 79 77 76 85
62 54 52 62 70 77 82 86 91 86 68 58 59 62 59 63 64 65 70 78 80 74 65 82 85 71 70 72 74 83 86 90 90 87 86 82 80 81 78 80 78 78 76 78
80 87 85 93 94 91 84 76 71 61 61 65 64 70 73 79 83 80 74 80 90 92 89 90 87 70 74 73 74 79 88 83 85 81 85 84 84 83 80 82 83 81 82 89
79 84 88 90 84 80 66 66 62 60 59 61 85 91 93 95 88 87 87 89 94 95 90 86 86 76 79 75 80 86 93 92 92 93 89 90 90 84 83 83 82 81 82 83
80 83 80 70 65 62 55 55 60 65 87 89 90 90 91 92 88 86 89 96 97 95 82 84 86 88 82 84 90 92 94 91 89 88 90 92 93 89 90 90 87 86 83 83
57 56 57 58 62 65 70 70 85 76 74 86 92 93 91 89 90 93 94 98 89 82 84 83 84 88 87 81 91 86 89 90 89 91 92 92 94 94 94 92 93 94 93 94
64 63 72 74 76 86 91 90 90 82 80 93 94 91 90 88 90 94 98 96 82 90 86 90 87 81 78 84 84 94 94 96 95 96 97 97 95 93 94 95 96 96 96 95
68 80 87 88 86 82 85 85 86 93 92 93 92 93 93 90 88 90 90 93 80 92 86 83 82 83 84 86 78 92 89 91 94 95 96 98 98 96 94 94 95 94 95 95
74 76 83 92 93 85 86 91 93 91 92 91 92 93 92 87 84 92 92 79 88 93 88 90 90 94 96 92 90 89 88 89 91 93 94 94 94 96 95 96 96 95 94 94
85 86 86 86 91 86 83 73 79 80 90 90 90 90 91 88 87 82 87 94 95 97 96 95 96 95 95 92 92 92 92 92 91 89 87 85 92 93 94 93 94 96 96 94
88 83 84 87 81 78 72 70 72 74 77 77 79 74 78 78 89 88 91 92 93 95 97 95 94 92 92 92 92 92 92 92 93 92 92 92 92 92 92 94 96 97 98 96
74 75 75 75 73 70 71 72 79 80 84 88 85 87 87 84 84 86 95 95 95 94 94 95 94 93 91 90 92 92 91 89 91 91 91 91 91 90 91 92 92 94 96 95
75 80 72 69 67 70 75 78 85 85 86 93 92 87 84 88 87 86 90 93 94 95 95 95 94 92 91 92 91 91 90 90 90 90 91 91 91 91 91 91 91 91 92 93

GFSNGP_sfc_rhum_051.txt.gz
RH
22 24 23 21 21 21 24 22 32 21 14 9 11 16 18 19 23 32 36 34 34 35 35 35 36 33 31 31 26 23 23 21 23 27 29 31 34 37 38 41 40 38 41 46
40 28 28 28 22 20 18 19 15 15 15 11 12 13 16 20 25 32 34 33 33 33 34 34 32 29 30 25 24 25 22 22 23 26 28 32 36 40 40 39 38 41 49 56
41 32 31 62 34 22 18 17 19 25 18 17 19 19 18 22 28 31 34 34 35 34 33 31 29 26 24 24 25 25 24 22 23 26 29 32 30 33 39 43 42 49 57 57
59 67 80 18 17 16 22 18 15 16 16 16 18 19 21 22 27 32 33 34 34 32 32 28 25 24 26 22 23 24 24 25 25 29 32 33 36 39 41 42 45 51 58 60
90 42 26 19 14 19 20 19 13 17 14 15 27 29 29 26 27 31 34 34 33 31 30 26 24 25 24 23 21 21 23 25 27 32 35 38 41 44 43 44 46 52 52 59
74 91 90 27 22 24 23 30 18 20 22 28 32 45 30 30 32 34 34 32 32 31 26 25 27 26 26 22 21 25 26 29 32 36 38 41 44 48 49 46 43 51 57 58
69 96 52 22 25 27 38 39 27 23 22 27 31 41 39 34 38 36 33 32 28 25 26 26 31 29 27 23 24 24 29 33 35 37 38 40 42 45 49 46 56 72 93 71
82 100 82 22 28 39 39 29 30 30 30 36 38 50 46 41 40 37 34 26 25 26 31 32 32 29 24 22 21 28 34 37 39 40 39 37 43 45 46 53 64 98 100 89
46 47 32 25 26 35 33 35 35 38 34 39 45 48 45 44 41 32 28 26 28 37 42 35 29 26 29 31 31 36 40 41 41 45 48 46 44 46 53 59 71 84 89 88
43 24 24 26 27 29 30 34 34 38 41 40 42 44 45 39 31 29 32 40 54 55 40 30 28 33 34 36 38 38 43 43 44 49 53 56 51 49 55 66 69 68 72 78
36 27 24 31 42 47 44 48 48 48 47 46 44 46 36 33 35 44 66 74 52 37 33 30 32 36 33 34 39 41 43 44 48 50 61 69 66 65 63 56 61 64 64 68
55 45 43 51 54 55 51 51 48 47 47 44 40 37 42 52 70 75 72 58 43 39 41 35 30 30 32 32 34 41 51 52 56 59 68 69 70 70 71 78 77 72 74 80
43 49 53 57 52 49 51 48 46 47 47 47 45 51 70 76 71 70 57 46 44 34 30 32 34 35 33 38 48 56 56 59 58 66 66 71 75 74 79 74 82 80 79 80
52 52 61 53 56 46 44 47 54 50 52 69 75 66 60 55 51 47 41 33 30 32 34 34 34 36 38 40 46 56 57 74 67 72 78 76 77 84 83 87 89 83 80 82
50 47 48 45 49 56 60 68 80 74 73 65 50 41 40 39 36 30 28 30 34 37 38 37 38 41 39 54 57 57 54 56 73 81 86 84 86 86 85 87 86 82 77 79
46 45 49 58 63 66 69 67 63 56 45 41 44 50 41 33 33 33 32 40 49 52 41 78 84 59 59 53 51 54 51 67 77 74 81 83 82 85 81 84 85 86 85 80
66 73 72 74 65 61 51 44 45 44 47 51 52 59 56 58 56 45 44 49 71 100 91 90 86 57 63 58 57 55 53 52 73 70 75 80 86 92 89 95 91 88 90 97
62 65 61 61 53 46 43 42 46 50 60 65 84 99 100 100 83 81 81 83 99 99 81 71 70 66 64 59 58 60 65 70 77 87 87 91 87 82 85 87 87 96 93 87
61 56 48 40 38 41 48 56 63 64 91 93 97 100 100 100 81 74 77 94 96 87 61 61 74 78 69 69 71 70 80 87 83 79 85 85 95 87 92 96 94 95 95 98
41 39 45 55 59 62 70 74 91 67 64 82 91 88 84 86 88 91 93 90 74 65 59 61 67 67 74 85 95 95 100 98 88 89 94 88 96 100 98 90 94 99 100 100
50 57 65 70 81 94 97 94 90 68 64 88 86 87 89 85 84 81 78 61 53 66 64 68 64 62 58 82 97 100 100 100 100 96 97 100 100 98 100 100 100 100 100 100
62 90 100 99 75 65 64 59 68 83 81 85 86 85 83 68 70 71 77 70 61 69 71 72 72 76 76 89 95 100 99 98 96 93 93 92 90 89 88 92 93 99 99 100
68 72 76 77 78 58 57 58 77 72 78 79 77 76 72 64 57 68 73 58 65 72 75 81 84 88 90 99 100 100 99 96 95 93 86 86 86 89 88 89 88 89 93 92
63 61 61 58 59 52 49 41 39 41 69 67 70 76 67 71 75 61 62 68 73 86 82 94 85 83 88 96 96 95 94 94 93 94 88 82 89 87 86 87 86 86 89 89
58 55 53 55 45 42 38 37 39 43 51 55 61 55 64 60 76 73 80 80 79 77 86 83 80 86 90 92 93 93 94 93 93 93 90 89 89 88 87 86 87 87 88 89
52 49 46 44 42 40 44 46 56 58 62 70 68 74 76 72 74 76 79 76 76 79 83 86 86 87 89 89 91 92 92 90 90 89 87 85 83 81 82 81 82 82 84 85
50 50 44 45 43 47 58 62 71 72 69 82 79 77 70 76 80 76 78 82 83 85 85 85 85 83 84 88 88 89 90 90 90 85 83 82 81 82 82 82 82 82 82 84

GFSNGP_sfc_rhum_054.txt.gz
RH
19 18 19 24 22 19 21 24 40 33 20 14 14 20 19 19 22 24 30 34 37 39 42 40 44 46 42 43 40 34 30 30 35 40 40 43 48 52 52 55 52 54 54 62
40 28 24 29 23 22 21 20 18 20 19 13 14 15 17 18 20 22 31 34 35 36 38 40 42 42 38 38 35 34 32 31 33 36 37 46 50 54 55 54 53 56 61 66
64 35 36 60 36 26 21 18 20 27 22 16 17 18 22 22 19 26 29 33 34 36 38 41 41 36 36 32 34 32 33 29 31 36 39 46 42 43 50 58 59 61 64 67
84 72 78 26 16 15 19 17 15 14 15 15 19 21 21 22 27 30 31 34 37 39 40 38 34 32 35 27 30 32 31 29 31 37 39 42 46 50 56 60 62 63 65 67
98 62 32 24 17 18 20 22 18 19 18 18 28 27 26 24 27 32 35 36 38 37 37 34 30 30 28 28 28 26 30 31 32 39 40 44 46 57 60 61 62 65 62 67
90 99 87 32 22 19 20 45 20 19 25 27 27 57 42 32 31 32 33 35 36 36 34 32 31 31 31 33 30 30 31 36 36 40 43 47 53 57 60 64 57 71 71 74
81 98 66 26 24 24 48 54 29 27 25 31 34 52 42 37 36 35 36 35 34 31 31 31 35 36 41 36 28 26 32 38 38 40 43 49 54 56 57 62 70 84 93 90
91 100 92 23 25 42 45 38 35 32 39 51 56 53 46 41 42 38 32 30 28 31 33 37 40 44 34 28 28 33 38 40 43 46 44 45 58 58 57 65 80 97 97 99
65 69 41 26 34 38 34 36 36 42 38 39 48 47 44 46 40 32 30 29 30 42 48 48 41 35 38 42 34 40 43 45 46 45 49 50 59 64 70 70 85 93 92 94
51 27 27 28 28 35 35 43 41 45 44 44 45 48 48 37 33 32 35 55 60 63 58 46 35 34 39 39 40 38 46 49 52 56 56 59 59 64 75 80 91 87 88 88
37 29 26 43 49 50 48 49 46 46 46 48 45 46 39 35 42 60 73 70 57 51 49 42 38 41 41 34 40 41 48 51 59 62 70 73 65 72 78 78 82 84 84 92
72 51 50 59 55 51 52 51 47 46 44 40 39 40 48 60 69 68 69 66 55 43 46 45 36 32 31 32 35 46 59 63 80 86 84 75 69 76 77 80 81 80 80 82
49 48 57 56 50 47 51 50 48 47 48 52 55 60 66 73 72 71 59 54 45 41 35 33 35 35 34 41 54 64 72 75 80 82 84 82 76 80 87 81 81 83 84 83
48 51 59 53 54 48 51 49 55 58 63 68 70 67 61 57 57 51 39 33 31 32 35 35 36 37 39 40 53 69 74 79 76 78 84 85 86 86 85 87 90 87 84 86
49 49 50 50 58 62 63 64 65 66 65 62 50 43 40 38 34 33 33 33 38 41 41 41 49 59 53 63 62 71 72 73 81 82 87 84 87 87 87 88 88 88 85 86
46 46 51 62 67 66 60 60 61 54 45 49 54 56 44 44 44 44 41 66 74 74 65 81 83 74 69 58 57 60 64 74 79 80 89 89 88 88 87 88 96 98 92 87
64 71 70 72 67 57 51 49 48 48 53 69 74 80 77 79 72 76 70 79 84 98 92 88 83 68 76 69 68 68 71 71 78 86 87 90 91 89 89 90 91 91 92 91
60 63 60 61 55 50 47 54 61 68 79 81 90 96 97 96 92 80 77 76 84 85 78 75 75 74 70 64 68 77 83 85 84 97 99 98 91 87 88 87 85 86 86 86
63 59 53 42 42 52 58 68 80 85 87 88 96 97 95 95 76 78 84 86 84 76 71 69 74 69 67 68 75 78 85 94 98 99 99 95 96 95 91 90 90 93 91 96
45 45 50 61 68 79 84 82 78 72 75 82 92 90 88 82 86 90 82 82 73 77 66 66 68 65 66 71 75 80 84 88 94 97 97 97 98 97 96 97 98 98 98 98
58 66 81 84 81 82 87 88 87 71 72 92 91 92 90 86 85 83 76 69 69 68 69 72 70 84 74 78 82 83 87 91 98 99 99 98 98 96 92 92 91 93 95 96
73 94 96 89 75 70 69 65 76 90 89 91 92 91 87 70 76 76 80 77 70 76 77 77 81 82 81 86 90 96 96 98 98 97 97 97 96 94 94 93 94 92 92 92
78 79 77 79 77 65 61 60 88 86 85 87 88 84 79 69 68 76 81 67 73 82 75 90 84 84 90 88 90 92 94 94 94 95 96 96 96 96 96 96 93 94 93 93
72 70 68 64 67 59 54 44 45 53 80 78 85 89 76 80 83 73 74 79 80 86 86 91 88 84 86 90 90 91 94 92 94 95 94 94 95 94 94 94 92 92 90 91
66 63 58 65 51 47 43 42 45 52 60 61 68 61 70 70 87 82 84 84 82 85 87 86 87 85 88 89 90 91 93 94 94 94 94 95 94 94 92 89 88 88 89 88
62 58 50 47 47 46 50 53 62 64 66 78 76 83 84 82 80 81 84 83 83 84 86 88 90 89 88 88 90 91 91 90 92 92 94 94 94 93 89 88 88 88 89 87
54 60 50 52 48 54 64 67 76 76 76 88 83 86 78 85 85 83 86 88 87 89 87 88 88 89 89 90 88 88 90 89 88 92 92 92 91 90 89 89 88 89 86 88

GFSNGP_sfc_rhum_057.txt.gz
RH
32 30 32 30 35 33 33 39 56 44 38 31 26 30 26 28 26 39 44 50 51 54 60 66 62 60 56 58 52 46 40 36 47 47 47 47 52 56 56 59 57 58 62 67
58 43 39 42 34 35 33 31 31 34 34 26 26 23 24 25 31 35 48 48 52 56 54 54 56 52 52 53 48 41 39 40 43 44 45 49 52 53 54 55 57 61 68 71
74 48 47 60 43 36 34 33 33 40 33 28 28 27 28 29 30 34 46 47 49 50 50 50 47 45 48 46 42 41 38 39 42 44 46 50 46 49 55 61 67 71 68 67
83 73 64 43 30 23 30 26 25 26 34 40 37 36 34 34 38 40 45 48 52 52 52 48 43 42 38 36 40 38 39 37 39 42 44 48 54 57 63 66 69 74 72 69
77 81 55 37 30 30 32 36 30 32 38 39 37 45 46 43 46 48 54 54 52 44 38 37 36 37 35 36 33 37 38 38 38 46 50 52 57 62 64 67 68 72 73 78
97 90 76 55 31 27 28 55 41 36 38 40 40 80 71 48 50 53 49 44 42 38 37 41 44 42 42 44 45 43 36 40 43 51 56 58 61 64 64 66 63 75 76 81
98 96 80 54 33 37 50 58 47 43 63 60 74 75 59 50 41 39 38 36 36 42 47 50 48 44 41 39 43 42 41 48 48 50 50 55 68 69 70 72 77 87 94 93
98 97 83 47 35 46 62 53 50 56 66 74 68 62 59 44 39 36 36 46 49 54 53 50 47 39 42 50 42 41 46 50 51 53 52 51 62 69 74 84 86 98 99 98
80 85 66 57 55 51 49 56 62 60 58 62 66 62 44 41 39 49 59 58 57 58 54 49 43 42 48 48 47 49 52 54 55 55 56 57 66 76 88 90 95 91 96 97
62 50 43 62 59 60 62 64 64 64 62 60 60 46 42 41 70 74 71 71 62 59 55 52 46 44 46 51 51 47 54 57 62 66 67 67 71 75 86 95 94 88 96 98
57 66 68 71 69 67 66 65 54 49 50 56 46 52 68 80 81 78 74 67 57 59 60 58 52 50 50 49 54 50 56 61 70 75 81 83 80 84 88 85 84 85 91 89
78 72 75 80 71 67 64 59 54 57 63 65 68 75 73 75 75 74 76 70 67 63 55 52 50 48 44 42 44 55 66 73 84 88 91 90 88 82 82 82 84 83 82 85
74 70 69 64 60 58 60 60 61 66 70 76 75 74 74 78 77 73 71 73 68 51 48 44 45 46 46 51 59 65 73 80 88 89 89 86 90 87 85 82 84 84 84 85
62 63 71 66 70 60 67 71 73 73 75 78 79 73 69 69 70 67 55 48 48 52 53 56 60 65 64 61 69 78 81 87 90 89 88 87 88 86 90 92 92 90 88 85
64 62 67 70 71 71 69 71 78 82 80 74 62 56 55 56 58 58 71 72 72 75 76 76 79 79 77 84 81 82 79 80 84 86 85 84 87 90 91 94 98 93 91 93
64 68 71 77 74 72 71 75 79 75 67 68 73 79 75 75 79 79 81 85 89 87 82 93 94 88 78 71 72 72 79 84 83 84 87 93 94 94 98 98 98 98 98 95
82 88 83 79 77 73 68 64 67 72 77 88 93 92 87 88 85 80 79 86 89 93 92 93 86 70 74 64 69 78 82 83 85 73 78 85 97 99 99 98 97 96 94 95
67 70 68 69 61 68 74 80 86 88 92 94 94 95 96 93 88 89 94 90 91 91 75 76 75 72 71 73 80 75 78 89 88 87 81 88 98 98 98 97 97 97 93 93
67 67 58 53 62 73 83 90 86 85 91 92 89 93 94 94 85 86 88 92 90 82 77 72 79 84 74 70 76 82 87 86 88 90 89 87 95 98 98 99 98 98 98 96
62 68 75 82 86 88 89 86 84 80 85 89 93 92 90 92 95 92 92 89 78 82 78 81 77 72 74 77 90 89 92 95 96 94 98 95 97 97 97 96 96 96 96 96
84 84 85 83 85 87 89 88 88 82 85 92 90 94 94 95 90 92 88 87 77 84 75 85 78 74 79 88 83 90 93 92 93 95 95 95 96 95 95 96 96 96 95 94
87 89 88 83 77 78 83 77 81 89 90 92 94 94 92 84 91 89 93 87 87 90 90 84 78 83 87 93 88 92 91 90 91 92 93 94 94 94 95 95 95 94 94 94
90 87 82 82 78 68 76 80 89 85 89 91 93 93 92 89 86 93 95 83 82 90 90 95 94 89 94 91 92 92 93 93 92 92 94 94 94 95 95 95 95 94 94 94
79 76 74 72 76 72 62 67 70 69 88 90 93 92 91 97 97 93 91 95 98 98 99 99 97 96 96 96 95 94 94 94 94 93 93 90 93 94 94 94 94 93 92 92
76 72 70 74 64 66 61 64 72 72 81 81 85 81 86 93 95 97 97 97 98 97 97 96 98 99 99 99 99 100 99 96 94 96 94 93 93 94 93 94 94 92 93 91
68 64 62 63 68 69 73 81 92 92 94 96 95 96 97 97 97 97 97 98 96 97 97 98 98 98 99 100 100 100 100 97 95 94 98 94 93 92 92 92 92 92 91 91
72 71 66 69 71 78 89 93 96 97 98 97 96 97 94 97 98 97 97 98 98 98 98 99 98 99 97 100 99 100 100 99 98 95 99 100 99 95 95 94 94 92 91 93

GFSNGP_sfc_rhum_060.txt.gz
RH
39 37 40 42 38 39 40 44 54 43 47 34 32 30 32 34 43 58 56 57 68 73 74 66 64 66 70 69 69 61 54 49 56 55 51 52 53 55 56 58 59 65 69 72
52 49 44 45 39 40 39 36 37 39 39 34 31 35 30 31 34 49 56 64 68 72 70 71 75 75 70 64 54 42 43 46 48 52 51 53 54 53 55 56 61 68 71 76
68 53 53 67 47 38 36 37 37 42 35 37 36 33 36 38 31 54 62 64 67 68 68 69 67 63 58 45 42 42 43 44 52 54 51 50 46 53 57 65 67 68 70 75
84 74 75 50 38 35 37 36 35 41 47 42 42 51 54 51 49 56 57 62 64 62 63 59 54 46 43 37 40 42 43 47 46 47 47 52 53 59 64 70 68 69 72 77
78 82 61 43 32 26 32 41 42 47 43 47 51 48 55 57 62 66 66 60 54 48 44 41 38 39 39 39 42 44 46 44 42 54 53 56 60 65 69 72 71 70 71 76
98 78 75 54 36 30 33 56 48 45 47 44 54 82 75 61 56 50 44 42 42 44 45 46 46 41 44 48 50 49 47 54 52 54 57 63 66 69 71 75 74 78 79 85
98 86 70 48 41 38 45 49 52 61 60 63 77 77 62 50 45 43 46 49 50 49 50 51 47 40 42 44 47 48 52 53 51 52 55 58 67 70 75 82 86 89 95 94
96 91 73 50 41 45 52 61 68 72 74 77 73 59 52 46 52 54 56 54 50 50 49 47 43 51 60 62 47 50 50 52 56 58 57 55 68 70 74 84 88 95 97 96
78 78 59 62 54 61 58 64 67 70 73 70 59 51 48 63 62 62 61 57 53 54 52 51 50 49 51 55 50 54 56 57 60 60 62 64 72 77 86 87 93 93 95 94
74 63 72 73 72 68 68 73 71 71 68 68 52 52 69 69 68 68 68 65 55 54 56 57 54 48 49 53 56 55 58 60 63 69 72 74 77 80 89 93 94 88 90 90
87 82 74 75 77 76 64 64 63 61 60 51 56 74 76 79 77 71 67 61 58 63 62 58 54 54 53 53 58 60 64 65 70 76 80 83 83 84 85 83 81 82 86 89
80 71 74 83 81 68 65 67 67 69 74 71 71 77 74 76 73 73 74 65 64 66 58 54 51 51 55 60 63 66 68 72 85 86 84 84 87 82 84 80 80 82 80 84
81 77 78 75 69 62 69 72 70 72 73 79 77 72 74 78 77 76 71 67 59 59 67 71 72 69 72 80 84 86 89 87 88 88 87 85 85 87 88 77 84 83 85 85
63 64 73 71 82 76 76 76 73 71 75 80 84 81 77 68 65 74 76 74 73 74 73 75 81 89 84 77 79 85 85 87 93 93 93 92 91 90 89 94 92 89 90 88
73 69 71 74 76 77 72 72 79 80 66 66 63 63 66 76 85 82 74 69 67 75 83 88 88 78 71 75 72 74 79 85 87 89 89 90 80 77 84 90 93 95 95 99
76 74 75 80 79 77 76 80 72 72 71 74 80 85 81 77 74 75 78 85 89 94 91 94 78 71 77 75 78 78 77 80 82 82 82 78 83 83 79 87 91 98 99 98
88 95 88 86 82 79 77 70 69 74 83 84 83 83 74 74 79 82 82 86 90 86 84 82 81 78 76 65 69 76 84 85 86 84 85 87 90 91 87 91 98 98 97 96
74 76 72 75 76 80 82 83 86 87 84 80 82 87 91 92 87 89 93 85 89 90 77 83 82 70 67 70 81 87 91 91 90 93 93 95 94 93 95 97 97 97 96 96
72 69 65 66 71 78 79 81 86 81 86 87 85 91 92 94 81 81 83 92 92 84 83 76 76 70 71 80 84 86 93 91 90 89 90 90 91 91 95 95 95 96 95 95
60 67 75 80 80 76 78 80 83 81 74 78 89 89 88 93 95 92 92 92 85 77 81 71 63 69 76 77 87 87 92 92 92 91 93 92 92 94 93 91 93 93 93 94
82 83 86 86 88 87 84 84 84 75 71 89 89 92 94 94 94 94 92 90 76 88 78 77 72 77 74 88 82 94 94 93 94 95 95 95 93 93 93 92 93 93 94 94
82 87 88 84 78 78 77 73 82 89 88 91 95 95 94 90 95 94 99 86 78 99 85 85 78 91 86 98 88 96 94 94 94 95 95 94 94 94 94 93 93 93 94 94
79 78 78 80 78 73 71 75 89 88 89 91 92 93 94 92 90 97 98 81 86 98 92 97 98 98 99 100 100 100 100 100 100 98 96 95 95 96 94 94 94 94 94 94
79 75 70 67 77 75 70 66 67 74 90 90 91 94 90 97 98 97 92 99 100 100 100 100 100 100 100 100 100 100 100 100 100 100 100 100 99 96 94 94 94 93 93 92
73 72 67 70 62 67 69 66 75 80 82 81 89 85 90 92 95 98 98 98 100 99 98 100 100 100 100 100 100 100 100 100 100 100 100 100 100 100 97 96 95 95 93 92
71 70 69 66 69 73 79 80 90 94 91 96 95 98 98 99 97 98 98 99 98 100 99 100 100 100 100 100 100 100 100 98 100 99 100 100 100 99 99 98 98 96 95 95
68 73 73 77 73 80 87 88 95 99 98 96 94 98 97 98 98 98 100 100 100 100 100 100 100 100 100 100 100 99 100 100 100 100 100 100 100 100 100 98 98 96 95 94

GFSNGP_sfc_rhum_063.txt.gz
RH
46 40 39 38 40 43 45 47 54 46 50 38 36 34 32 37 46 63 71 63 63 77 88 83 76 69 66 69 73 75 74 66 70 66 57 59 56 57 57 57 58 65 70 71
64 52 47 49 41 42 44 43 47 45 44 37 36 35 34 36 40 52 68 65 72 80 81 74 74 78 74 78 81 69 69 65 64 59 55 56 57 56 58 60 67 67 70 75
58 59 58 68 54 43 40 39 40 46 39 41 42 42 51 45 41 54 69 79 82 80 74 76 76 75 81 75 66 55 60 57 58 55 52 55 53 55 60 66 71 69 71 72
80 75 75 45 45 41 44 40 39 46 51 47 55 65 72 74 66 73 79 82 83 82 80 82 77 62 54 48 55 53 54 52 51 55 56 55 56 61 65 71 74 74 76 76
78 82 61 50 41 40 36 38 47 49 55 57 60 61 64 65 62 70 71 66 65 62 58 52 45 43 43 46 47 48 49 48 49 58 55 58 62 68 69 73 77 79 77 81
94 80 81 61 45 33 34 51 43 48 59 58 57 55 72 61 54 53 51 50 50 48 45 44 44 42 45 51 47 51 53 59 57 55 57 61 66 69 74 77 75 82 84 88
97 87 75 52 41 38 45 51 50 49 52 60 59 67 65 58 58 55 54 51 48 47 48 48 45 44 49 53 52 51 56 56 53 55 57 61 66 73 74 78 82 85 89 92
94 84 76 49 49 42 50 74 69 71 75 79 69 66 65 61 60 56 54 50 45 45 47 53 56 60 66 55 52 54 52 54 57 60 60 59 72 76 77 84 88 92 95 93
74 76 61 58 46 60 65 71 74 76 79 63 64 62 64 67 64 59 54 54 54 58 58 54 49 51 55 54 49 53 57 60 61 61 64 68 75 78 85 86 93 89 92 90
68 68 71 76 75 72 70 71 72 78 67 58 60 68 72 69 67 66 71 66 55 56 56 59 52 51 52 57 62 60 64 66 68 72 72 74 79 80 88 89 88 84 87 89
88 89 77 76 84 72 72 72 70 71 64 58 68 72 71 76 77 76 70 62 59 61 60 58 58 64 68 71 74 77 79 80 83 83 86 86 83 85 82 79 79 78 82 86
80 77 72 78 82 72 72 74 72 69 75 73 72 75 76 78 73 66 66 64 64 58 62 65 70 84 86 84 85 89 84 86 92 92 92 92 93 88 81 85 84 84 85 85
62 73 85 82 72 69 75 75 74 74 75 80 78 76 77 79 76 69 61 65 69 69 74 81 89 81 73 76 81 78 83 81 86 90 92 93 91 91 85 78 77 78 81 84
71 71 79 75 82 76 75 76 77 79 80 83 85 76 70 71 72 72 72 66 72 85 92 86 77 73 74 78 78 84 87 89 92 88 89 87 92 90 85 82 85 80 70 82
77 73 74 80 79 78 73 73 76 78 75 70 66 72 73 67 66 73 75 80 87 81 76 72 74 81 79 77 68 70 73 82 87 91 90 89 88 88 88 88 90 88 83 80
76 76 74 80 80 79 76 71 75 75 75 80 85 86 76 71 77 84 85 84 84 85 76 93 90 79 73 67 73 80 86 91 92 90 89 84 89 88 86 90 91 91 94 97
87 92 88 88 85 82 72 66 69 74 81 82 76 72 72 75 81 86 83 79 87 88 90 91 78 61 67 70 77 89 87 85 89 86 90 89 92 92 92 93 92 94 95 95
79 75 72 77 81 78 79 81 78 72 73 70 78 87 88 89 89 89 87 86 91 94 82 74 71 64 68 71 71 84 88 87 90 92 90 93 92 92 93 93 92 91 91 92
76 76 75 76 75 77 81 79 77 73 78 83 84 89 91 92 86 81 82 92 92 85 81 65 73 74 71 78 80 90 92 95 94 91 94 94 94 93 94 94 93 93 92 92
75 78 80 77 76 79 79 76 74 67 69 81 88 89 89 95 95 95 94 89 82 84 69 65 63 70 71 74 90 89 93 96 93 94 96 96 97 96 96 96 94 94 95 94
90 83 78 76 78 82 82 80 76 66 71 89 88 92 94 95 94 96 94 90 81 85 73 75 72 75 73 87 82 97 99 99 100 99 100 98 98 96 97 99 98 96 95 95
83 86 85 77 73 76 78 70 74 87 89 92 93 94 94 93 98 96 98 88 81 94 86 86 79 91 87 100 92 100 98 99 100 100 100 100 99 98 99 96 97 96 96 95
84 87 78 78 78 75 77 78 87 87 89 92 94 95 96 88 89 97 98 84 88 99 95 98 99 99 100 100 100 100 100 100 100 100 100 100 100 100 99 97 97 98 96 95
91 74 74 70 71 70 73 70 64 73 90 91 91 94 92 98 99 97 91 99 99 100 100 100 100 100 100 100 100 100 100 100 100 100 100 100 100 100 100 99 99 97 97 96
69 71 69 72 67 66 65 67 75 77 86 84 89 85 88 89 95 98 98 99 100 100 99 100 100 100 100 100 100 100 100 100 100 100 100 100 100 100 100 99 99 99 98 97
68 69 69 69 75 75 76 80 90 88 87 92 96 99 100 98 98 98 97 98 100 100 100 100 100 100 100 100 100 100 100 99 100 100 100 100 100 99 99 98 99 97 98 97
76 76 80 87 87 82 86 90 96 97 94 96 94 98 99 98 97 95 98 100 100 100 100 100 100 100 100 100 100 100 100 100 100 100 100 100 100 100 99 99 98 97 97 96

GFSNGP_sfc_rhum_066.txt.gz
RH
47 44 39 39 38 47 47 49 54 48 52 39 36 37 35 35 40 65 76 76 83 92 94 94 90 87 84 80 77 75 76 80 89 81 67 63 62 59 59 59 57 61 69 72
65 56 51 56 47 48 46 47 48 50 49 39 40 37 37 39 39 47 71 79 78 88 90 93 88 86 85 87 87 82 85 87 70 66 56 57 60 59 60 58 63 71 71 73
58 61 59 65 56 47 46 47 46 54 45 39 41 52 72 76 64 55 70 78 83 92 90 89 90 86 93 92 82 76 65 60 55 56 58 61 56 56 57 62 68 71 72 73
77 74 66 44 52 46 49 46 42 43 47 44 54 78 75 74 85 87 90 94 93 90 91 91 90 84 76 65 61 55 53 52 56 60 60 57 57 59 62 68 71 75 77 79
76 78 56 48 49 47 45 42 42 47 58 64 68 71 75 61 62 71 77 76 77 77 71 61 56 54 52 50 44 46 54 53 54 59 56 57 61 65 69 74 75 78 79 81
91 80 76 58 52 36 35 50 44 52 63 64 55 52 58 63 63 62 58 57 56 53 50 49 48 44 41 44 49 55 57 57 57 59 58 61 65 70 74 80 77 82 78 81
96 86 77 58 43 37 49 53 52 54 64 60 49 59 69 67 64 58 56 54 52 51 53 52 48 46 54 54 52 56 59 58 56 56 58 61 68 75 78 80 82 87 87 86
90 87 75 50 49 43 49 71 62 58 62 77 75 74 72 66 62 56 52 49 46 48 59 66 66 58 54 54 54 56 56 56 57 60 61 62 74 78 79 84 88 90 91 87
72 75 63 58 49 51 57 64 70 69 76 69 73 72 70 68 61 57 54 59 63 60 57 54 51 59 60 66 59 60 62 68 72 72 74 76 79 82 86 88 91 88 89 87
66 61 65 67 73 72 70 72 78 79 66 63 69 70 71 65 62 65 67 66 61 57 60 63 68 72 76 75 72 72 80 84 85 87 88 88 88 86 94 96 94 88 88 88
78 82 80 76 78 74 78 81 81 69 65 66 70 71 67 70 72 70 72 69 63 64 69 78 81 81 80 79 77 82 83 83 88 90 94 93 89 93 90 89 93 90 89 90
73 57 60 65 81 77 79 82 74 68 73 72 68 72 70 74 72 72 70 59 66 70 75 85 78 72 74 77 77 77 75 82 89 89 88 85 84 81 75 75 75 75 74 76
55 73 86 85 78 74 79 80 76 75 74 78 75 71 73 81 79 72 69 67 68 78 84 74 75 80 83 81 80 80 86 79 84 84 86 89 90 88 92 79 72 72 75 77
75 74 80 76 80 79 79 81 80 81 80 81 85 77 73 74 71 67 68 79 84 82 77 73 80 84 79 71 69 77 82 89 94 95 97 92 87 83 87 86 88 84 77 80
82 77 79 81 82 86 83 83 90 90 84 82 76 74 68 65 67 78 84 75 70 70 73 81 78 69 68 68 69 78 83 90 95 96 85 80 85 91 93 93 92 91 86 82
81 77 75 83 85 81 77 81 84 83 80 83 76 69 68 74 80 83 82 81 74 81 84 95 75 66 68 69 73 81 78 88 89 92 93 92 93 93 91 91 87 90 91 93
88 92 89 86 82 77 77 75 77 81 84 79 71 72 76 81 78 78 77 79 91 93 84 83 69 64 66 65 75 84 85 77 91 88 92 93 93 95 93 94 94 94 94 92
75 77 75 78 75 78 80 82 80 79 74 71 76 85 88 88 86 86 88 91 94 90 72 68 69 66 68 68 72 81 85 85 91 96 94 97 96 94 95 96 95 95 93 90
78 81 79 72 72 80 85 90 89 74 79 80 81 90 92 92 81 81 78 91 94 87 72 62 76 73 68 76 81 87 91 96 95 92 96 98 97 95 99 98 96 96 94 94
79 80 82 87 88 90 94 78 70 69 72 82 88 90 95 96 94 93 91 91 83 77 65 64 65 68 72 71 91 87 95 98 92 95 100 99 100 100 100 97 96 96 99 96
91 92 93 92 95 91 81 81 83 74 75 88 88 91 94 95 95 95 93 89 84 80 69 75 71 75 73 85 85 99 100 100 100 100 100 100 100 100 100 100 99 100 100 96
92 94 95 88 83 82 82 76 79 88 90 91 93 93 94 92 95 93 96 88 83 93 84 86 80 92 87 100 92 100 98 99 100 100 100 100 100 100 100 100 98 98 98 97
92 92 94 95 94 80 77 81 89 88 91 92 93 94 92 87 87 94 96 82 90 98 93 97 98 100 100 100 100 100 100 100 100 100 100 100 100 100 100 100 98 99 98 97
95 93 93 83 78 76 72 65 65 78 92 92 94 94 90 96 99 95 91 99 100 100 100 100 100 100 100 100 100 100 100 100 100 100 100 100 100 100 100 100 98 97 97 97
86 74 72 74 73 73 68 69 76 79 83 82 86 82 86 88 95 97 98 99 100 100 99 100 100 100 100 100 100 100 100 100 100 100 100 100 100 100 100 100 99 99 97 96
92 93 93 85 78 78 81 85 92 89 88 92 94 98 98 98 97 96 94 97 98 100 100 100 100 100 100 100 100 100 100 100 100 100 100 100 100 99 100 98 99 97 98 96
92 94 91 91 90 91 93 94 94 95 92 95 95 98 97 97 97 94 96 99 100 100 100 100 100 100 100 100 100 100 100 100 100 100 100 100 100 100 100 99 99 98 97 96

GFSNGP_sfc_rhum_069.txt.gz
RH
38 32 36 38 38 47 43 43 50 39 41 30 28 27 27 28 31 31 35 55 65 69 76 77 80 81 79 76 74 71 73 73 83 88 94 88 76 64 70 59 48 46 49 54
47 47 40 42 36 42 43 39 37 38 40 31 30 30 29 36 43 36 36 43 60 73 78 79 80 78 78 77 76 78 81 85 90 91 78 64 63 72 64 49 51 53 53 57
53 50 48 65 52 42 40 40 39 44 34 34 31 32 43 51 58 62 61 63 66 75 78 78 77 74 77 74 72 73 78 79 66 58 53 65 64 48 49 57 56 56 58 58
73 69 76 41 40 36 42 40 38 38 36 32 33 55 57 57 67 76 78 77 78 77 78 76 74 74 74 63 63 62 57 53 54 61 62 60 47 53 58 52 56 55 57 59
82 64 51 40 42 44 45 30 37 37 34 43 56 57 57 54 59 68 74 74 74 71 70 69 66 61 56 50 47 46 49 54 58 59 52 53 59 51 52 55 55 56 56 58
80 76 69 50 38 37 31 45 32 37 46 58 58 55 41 55 57 58 57 58 57 55 54 56 54 48 44 41 44 50 51 54 56 56 49 49 51 52 54 55 54 54 55 57
82 88 66 49 38 36 54 44 35 42 49 57 43 47 54 58 56 52 51 50 48 47 48 45 41 40 48 52 58 58 60 52 46 46 46 49 53 54 55 56 62 71 81 68
84 94 70 48 36 45 48 47 43 50 56 62 64 66 64 56 54 51 49 46 44 44 43 40 42 48 49 51 48 46 45 49 52 55 53 54 59 59 58 61 69 93 100 83
64 65 59 48 45 44 47 48 56 52 57 61 67 62 58 55 51 47 46 47 47 50 55 53 48 45 49 52 46 53 57 61 59 56 53 51 50 51 52 49 59 73 78 77
65 56 56 59 54 55 52 56 60 60 57 57 59 60 57 51 49 54 52 51 49 51 56 65 62 62 59 62 60 54 56 56 53 51 50 49 46 47 56 64 68 66 71 79
69 60 71 63 68 58 61 70 66 61 57 57 60 58 52 52 54 55 54 50 50 60 67 67 62 61 56 54 52 53 53 50 51 55 59 58 55 60 65 63 73 76 73 78
69 56 53 42 57 68 68 73 62 62 64 59 56 56 53 55 57 56 55 55 63 69 64 59 59 60 55 53 47 44 46 50 66 64 66 64 64 65 67 69 68 68 76 81
54 66 72 77 72 68 70 70 62 61 62 65 58 57 58 64 58 61 58 63 69 66 60 63 64 58 52 53 51 56 58 62 64 70 66 70 69 66 68 65 66 69 71 72
70 71 71 68 71 71 71 70 70 65 63 64 66 64 64 64 62 64 70 72 63 62 63 62 55 55 52 50 57 67 68 82 69 71 71 70 70 73 73 76 81 75 66 71
75 73 71 75 76 79 75 74 79 81 78 74 67 68 64 65 71 76 69 62 61 65 64 53 52 58 56 58 58 62 60 62 74 78 78 78 75 74 73 74 76 74 68 70
77 75 74 76 79 80 78 76 82 81 74 72 70 67 67 74 72 68 64 62 64 70 58 81 66 60 59 57 58 59 56 75 76 71 72 73 72 76 75 76 76 78 77 79
86 89 85 84 81 78 73 72 76 76 74 74 73 75 74 76 73 73 73 74 82 80 72 72 64 56 58 57 62 59 59 60 81 67 71 73 77 78 79 79 80 79 80 82
73 72 66 73 77 82 83 85 84 77 76 83 93 94 93 89 81 83 85 80 83 80 64 64 62 60 60 57 63 64 68 68 72 77 76 82 79 76 81 80 78 79 79 74
74 74 71 71 74 81 84 86 88 88 95 96 95 96 95 93 80 79 80 89 88 74 63 61 71 63 58 67 69 71 74 78 75 73 78 82 82 78 84 84 81 81 79 79
76 77 81 84 85 88 93 95 96 94 88 90 95 93 93 94 91 90 86 83 72 66 57 58 58 60 60 64 73 68 76 81 73 78 84 81 85 86 84 79 78 82 86 86
92 90 91 90 94 96 96 96 95 92 90 92 92 94 94 90 88 89 84 77 75 69 62 66 62 62 60 65 62 79 81 83 84 85 88 88 87 84 84 85 85 86 87 87
90 92 95 95 93 94 94 93 89 92 92 94 93 92 92 89 93 90 91 75 73 81 71 70 67 82 71 83 73 86 80 81 81 85 86 88 88 89 88 86 86 86 87 88
94 94 94 94 95 91 86 85 91 89 91 91 91 88 82 75 72 78 81 74 76 86 75 81 87 91 91 91 91 92 91 90 87 86 89 91 91 91 89 88 85 86 87 88
94 92 91 79 72 72 72 66 68 78 91 90 91 88 79 86 89 79 80 88 92 91 92 92 95 94 93 93 93 93 93 93 93 92 89 98 93 92 89 88 87 85 87 88
88 87 87 91 88 89 78 70 72 74 84 86 83 75 79 77 85 88 90 90 90 88 90 94 95 95 92 91 91 92 93 91 92 94 92 93 93 94 91 89 90 88 89 88
89 89 89 87 82 78 77 81 88 88 88 89 89 94 95 91 90 89 89 86 84 88 89 94 95 94 93 91 91 91 92 89 92 91 94 93 93 93 93 90 91 90 90 90
88 90 86 86 84 86 87 88 90 88 83 88 89 93 89 92 92 89 90 88 88 90 91 93 93 94 92 94 93 92 93 92 94 91 92 94 94 94 95 93 92 91 91 91

GFSNGP_sfc_rhum_072.txt.gz
RH
20 16 16 18 17 20 25 24 28 24 20 16 17 17 16 17 21 20 19 21 27 34 42 51 58 62 62 67 69 72 72 75 76 80 86 94 93 92 78 60 70 67 42 38
30 23 23 24 20 20 23 22 22 24 21 15 15 18 20 20 22 23 23 24 25 36 47 57 63 65 69 73 72 68 68 72 75 83 86 88 88 71 74 70 55 39 43 47
38 31 33 56 35 24 23 25 25 27 20 16 18 20 21 22 30 32 38 42 41 46 54 59 63 64 73 70 67 69 69 74 75 74 72 61 54 52 56 51 47 52 49 44
50 70 82 28 25 21 24 22 21 22 20 18 18 22 31 35 38 50 52 53 55 56 58 58 58 60 64 62 63 66 64 59 50 53 59 56 45 49 57 53 50 45 44 43
88 51 29 30 31 29 30 26 18 20 18 16 21 32 34 41 47 53 58 56 55 55 58 59 60 56 54 58 59 56 50 45 50 53 50 49 65 61 47 44 43 41 37 41
66 86 82 32 22 23 24 37 18 19 22 23 35 42 25 43 49 51 50 48 51 53 53 55 53 49 50 51 47 44 43 48 44 46 63 54 46 43 40 39 38 38 40 44
64 89 41 32 31 26 41 38 22 21 23 32 36 32 41 47 49 46 46 47 47 48 50 50 46 43 42 40 42 46 48 49 49 44 40 40 41 40 40 42 48 59 69 62
68 99 82 34 31 34 28 34 26 30 31 39 42 50 51 48 48 48 46 45 43 45 44 41 39 41 40 43 43 45 41 41 41 41 38 39 44 45 43 43 47 59 99 70
49 44 36 32 26 27 29 25 33 31 33 40 49 49 47 48 48 46 43 40 39 39 42 40 38 40 43 40 37 40 44 46 44 42 39 35 37 36 36 34 45 58 64 63
51 30 34 37 30 38 30 33 32 35 36 43 44 45 47 44 41 41 40 40 39 41 42 43 39 38 38 42 43 40 43 43 40 38 34 32 26 31 40 49 54 52 59 68
39 34 44 42 43 36 35 41 45 43 38 40 41 44 42 41 42 41 41 40 39 44 46 46 44 43 41 40 40 40 39 36 36 39 42 41 39 47 50 53 64 66 65 67
55 35 42 28 36 44 43 44 43 44 44 39 39 42 40 42 41 41 42 41 45 45 46 44 41 40 36 32 32 32 34 37 51 48 49 44 42 52 69 66 66 68 70 75
37 50 46 55 55 55 49 43 43 42 41 43 39 39 42 44 45 49 44 47 46 46 47 44 41 39 35 38 37 39 40 45 50 52 46 48 49 50 52 63 62 61 63 66
55 55 49 50 48 57 54 49 52 43 43 43 44 42 44 46 47 45 47 48 48 49 49 43 40 38 37 39 45 51 52 66 49 53 53 55 56 60 58 64 72 65 56 63
55 53 52 56 59 58 53 52 54 53 51 50 46 50 48 49 49 54 52 48 48 48 45 41 40 43 42 46 41 43 43 49 60 66 67 65 64 63 62 64 65 62 58 58
54 55 59 58 57 60 57 56 59 61 57 56 56 55 51 55 57 54 53 61 75 71 48 70 54 46 46 42 40 40 45 68 65 57 59 59 59 63 62 65 65 66 66 67
66 70 70 66 65 64 60 58 59 58 61 63 62 66 68 75 80 89 93 92 88 84 80 74 54 45 48 44 39 39 40 47 71 52 56 60 65 66 65 68 69 68 70 73
58 58 58 63 65 64 68 74 75 73 81 87 94 95 94 94 94 93 90 83 86 83 68 59 53 49 46 48 46 50 55 55 60 67 64 72 70 65 69 69 68 69 70 66
59 62 62 62 65 72 76 79 82 86 93 96 96 97 97 96 87 77 76 89 88 76 65 60 68 52 49 65 53 57 63 69 66 61 69 71 73 69 74 76 74 74 71 72
65 68 75 80 80 83 90 91 95 94 95 94 95 96 94 93 90 92 88 79 64 59 53 53 49 50 49 55 59 54 67 73 63 68 76 74 79 81 78 71 73 76 80 80
88 88 90 91 93 95 97 96 94 93 94 95 91 91 93 94 92 88 80 72 69 60 56 59 52 49 48 50 46 71 75 76 77 77 78 81 82 77 79 80 80 80 81 80
88 92 96 94 91 93 94 93 89 93 91 94 95 94 93 88 89 87 84 69 64 68 60 58 57 72 61 72 61 76 71 72 75 78 79 80 80 82 82 81 81 81 80 80
94 92 91 93 93 90 84 83 94 94 94 93 90 85 74 65 60 67 72 64 63 73 62 70 81 80 77 81 80 80 78 77 78 79 80 82 82 82 82 81 80 81 80 79
89 85 84 69 62 62 74 73 66 73 86 83 85 79 70 78 81 68 68 76 80 79 80 84 84 79 91 82 81 81 80 80 80 81 78 82 82 81 80 81 80 79 80 79
82 80 80 80 75 73 66 60 69 77 81 78 75 68 69 70 82 81 86 85 81 72 79 91 84 81 82 81 80 80 80 80 81 82 81 82 81 81 80 79 80 81 82 82
78 78 78 77 75 73 74 71 77 78 77 82 82 86 87 83 80 80 83 80 77 74 77 80 80 80 78 78 79 79 80 76 79 79 79 79 78 78 80 79 81 81 82 82
80 76 72 74 71 72 74 75 80 80 80 86 85 85 79 83 85 80 84 84 83 81 80 80 79 78 79 80 78 78 78 78 78 79 81 80 79 81 81 82 83 83 83 84

GFSNGP_sfc_rhum_075.txt.gz
RH
18 15 14 15 16 16 19 21 29 23 18 13 12 12 13 13 14 14 13 13 16 20 27 34 40 43 43 52 60 63 73 80 89 90 89 86 87 89 91 89 87 72 74 74
24 18 16 17 14 15 14 14 15 16 16 12 12 11 12 13 14 16 16 16 17 19 24 38 46 52 56 64 66 69 77 83 87 89 87 92 91 88 85 72 69 71 62 40
40 21 22 39 22 17 16 15 17 22 18 14 13 13 14 14 14 19 21 27 27 26 33 45 52 66 72 73 73 75 80 86 84 84 85 82 73 70 65 59 55 52 44 49
56 66 67 26 18 16 18 15 15 16 15 14 13 13 14 20 21 25 33 36 39 40 45 48 59 67 73 72 76 79 79 76 74 72 64 53 49 47 49 50 52 52 48 44
76 54 32 21 24 23 22 20 15 16 15 14 13 19 20 23 28 32 40 41 43 44 48 53 66 70 71 73 73 72 67 58 52 48 47 50 53 53 56 53 49 46 39 37
66 66 67 32 21 18 17 34 16 16 17 17 16 33 18 31 37 42 40 42 46 48 50 53 55 56 61 61 56 53 47 44 43 45 44 48 54 52 46 42 36 33 34 38
67 76 38 19 19 18 40 37 17 16 17 18 20 24 34 37 40 38 39 42 43 45 48 48 46 48 51 49 45 41 39 39 42 44 48 46 43 40 37 37 40 56 68 64
70 96 83 27 29 32 29 24 21 21 19 24 27 41 43 40 40 41 40 43 41 44 45 43 41 43 41 41 39 40 42 42 40 40 36 36 39 40 39 40 50 54 90 67
45 45 32 30 25 29 22 24 23 24 20 25 41 41 40 41 42 41 40 38 38 40 42 40 38 36 40 42 40 41 41 42 42 39 35 33 36 37 38 31 43 54 60 60
40 29 28 28 29 26 24 26 23 27 24 29 39 36 39 38 38 38 37 37 37 40 42 44 41 39 38 37 37 37 41 42 38 36 33 28 23 28 38 45 51 50 54 64
33 26 25 30 31 31 26 29 27 28 26 30 33 35 35 36 36 36 38 37 37 40 42 40 37 37 37 38 39 39 38 35 35 34 36 38 36 46 48 58 67 65 64 65
48 31 35 30 31 30 32 32 32 32 31 30 31 34 34 34 34 36 38 38 41 42 42 40 38 38 36 34 32 33 33 35 48 47 45 38 38 60 65 69 70 71 70 72
30 29 37 42 40 39 38 34 32 33 32 32 31 31 33 35 38 47 38 40 42 42 40 38 35 32 31 34 33 36 42 50 48 50 42 43 44 47 47 74 65 67 67 64
26 40 42 37 36 45 43 39 46 35 32 33 34 33 34 37 41 39 40 40 40 40 38 36 35 39 38 40 43 48 52 71 46 49 50 52 50 55 53 60 70 64 68 62
39 41 40 43 43 42 41 41 41 40 39 39 36 38 39 42 42 43 42 42 42 41 39 41 49 51 45 49 42 43 46 53 60 63 64 62 59 59 58 60 63 60 55 60
37 42 44 46 45 46 46 46 47 47 43 42 44 46 43 43 50 50 48 50 55 75 87 92 84 74 50 40 40 44 51 64 66 54 55 54 56 58 58 61 62 63 63 61
54 55 54 52 52 51 49 47 48 47 50 55 55 58 60 65 80 88 95 96 95 94 88 82 68 54 48 39 36 38 40 48 68 50 53 56 62 63 62 64 66 65 67 70
50 48 46 51 54 55 57 58 59 63 72 81 89 92 93 94 95 96 96 94 92 91 82 66 51 47 49 46 44 49 54 54 56 63 62 67 67 64 65 66 65 65 66 63
51 54 54 56 62 73 78 82 85 88 92 92 93 96 96 96 92 86 76 90 94 88 73 65 65 51 51 66 51 57 62 68 65 58 66 67 71 65 71 73 71 71 68 70
66 69 74 81 81 86 91 90 92 93 96 95 96 95 95 96 93 94 94 90 79 64 55 50 48 49 47 51 60 52 65 70 63 65 72 74 77 78 76 69 70 73 78 80
88 88 90 90 94 97 97 96 91 92 96 94 93 95 95 95 94 94 90 75 63 63 60 55 49 47 46 49 46 68 71 73 73 74 76 78 78 75 77 77 78 79 81 80
94 95 97 96 93 94 94 92 88 94 95 95 95 94 93 91 88 84 80 72 64 63 55 56 57 72 60 77 58 74 68 69 72 76 77 79 79 80 80 80 81 81 80 79
94 92 90 91 91 90 87 87 95 94 95 94 94 86 70 63 68 73 72 59 60 64 61 76 78 76 74 82 78 77 76 74 77 77 79 82 83 82 82 80 80 80 80 78
88 79 85 84 78 74 82 84 77 74 85 81 85 84 77 81 80 65 65 74 74 80 88 86 81 75 84 80 80 80 79 79 79 83 80 79 84 84 80 83 80 77 77 76
77 73 71 72 67 67 66 65 68 70 74 74 75 71 73 74 87 85 85 82 74 82 90 81 78 75 81 81 81 80 82 82 84 79 79 84 82 80 79 78 79 78 77 77
74 74 71 69 68 66 66 66 73 73 74 83 84 85 86 82 79 80 80 78 75 72 77 82 78 76 82 81 79 80 78 77 80 79 81 78 78 77 77 76 77 76 78 79
69 69 66 68 67 69 74 76 81 82 80 87 85 84 81 85 82 74 81 83 77 80 81 83 79 80 78 79 78 80 79 82 84 79 76 78 78 79 79 79 79 79 80 80

GFSNGP_sfc_rhum_078.txt.gz
RH
22 19 17 19 21 20 21 21 29 27 22 18 15 13 19 18 20 18 15 15 16 19 30 35 41 48 49 75 81 85 88 90 95 96 96 95 95 94 94 92 92 91 93 93
34 21 21 21 17 18 18 17 16 18 19 13 12 12 17 14 13 14 17 17 19 19 26 38 46 54 72 79 84 85 91 96 96 95 95 96 95 94 92 91 90 88 83 81
49 28 24 37 25 18 15 15 17 22 19 15 16 15 16 17 18 16 16 21 26 28 28 50 70 74 79 81 83 86 91 93 95 95 96 94 89 86 84 85 78 78 74 74
61 68 59 28 19 17 20 18 17 16 16 15 15 14 14 18 23 22 26 31 35 36 52 69 71 76 79 78 84 89 91 90 89 90 88 81 77 75 73 69 68 70 69 61
75 59 37 26 23 24 26 26 19 18 16 15 14 21 20 21 26 31 36 39 42 46 60 67 72 74 78 82 83 84 85 84 81 77 71 67 62 63 64 66 69 65 59 58
84 75 74 43 24 25 24 39 20 18 22 22 19 41 30 32 34 42 42 44 47 52 68 74 74 72 76 79 78 79 76 72 67 59 56 56 60 66 69 64 59 53 50 70
72 83 54 28 23 26 43 47 25 22 23 28 26 34 37 38 40 40 42 45 49 53 60 69 69 68 72 70 68 61 54 52 50 51 52 57 63 61 54 53 70 88 89 78
78 97 78 32 33 36 37 38 30 27 30 37 43 46 44 40 42 41 42 47 49 54 54 54 55 59 58 55 47 46 47 47 49 51 46 47 56 50 50 65 80 90 93 86
54 57 46 42 35 37 36 37 35 34 29 29 49 44 42 42 42 42 42 45 45 48 53 52 50 49 49 46 44 48 51 50 49 44 44 43 51 58 60 55 70 88 92 91
57 39 41 53 59 38 34 39 29 32 32 34 44 43 43 40 40 40 42 43 43 47 48 50 45 43 45 48 47 45 49 52 50 46 41 38 34 45 66 76 83 84 88 90
37 32 32 29 43 38 36 35 34 31 30 34 42 41 39 39 39 40 41 42 43 48 50 49 46 45 43 43 45 48 50 46 45 48 54 59 59 71 80 77 84 88 88 87
58 38 45 38 34 41 41 34 30 35 35 34 36 38 37 38 38 39 42 41 45 48 46 42 42 43 43 42 42 44 42 52 73 73 68 63 68 74 76 76 73 73 70 77
31 35 43 50 42 40 45 43 40 38 37 37 38 35 38 38 41 51 43 45 45 45 45 43 38 40 44 51 50 56 61 64 66 75 70 68 73 80 85 76 67 70 68 66
25 26 52 42 47 44 42 40 42 36 35 37 40 38 37 40 45 43 44 45 44 42 40 41 43 47 47 48 55 62 65 83 75 76 77 79 77 79 78 82 91 90 74 72
40 42 43 46 43 42 40 40 43 43 43 42 40 41 44 45 45 47 47 43 40 44 47 54 63 69 69 67 64 80 82 87 89 88 84 79 79 80 80 81 84 82 77 83
25 36 44 46 44 45 44 44 49 48 44 45 49 51 50 54 58 62 60 60 72 84 88 93 95 93 65 62 82 79 77 79 74 71 73 72 74 78 77 80 81 84 85 86
55 57 52 52 52 50 48 48 49 49 57 70 77 80 80 84 89 93 95 92 93 95 96 95 96 94 77 49 50 56 57 66 78 64 69 72 78 79 78 82 83 85 88 94
50 51 48 54 56 64 76 81 78 81 86 86 88 90 92 92 95 96 96 96 96 96 94 92 83 66 56 50 52 60 70 67 69 76 75 83 84 78 81 82 81 82 85 80
54 60 65 67 72 78 85 89 92 92 92 91 91 95 95 96 95 94 93 95 95 92 89 61 59 54 56 67 56 70 76 80 76 71 79 79 84 81 87 88 87 87 85 86
78 81 84 87 86 90 94 93 94 95 96 95 94 94 95 96 96 95 94 92 84 74 55 51 49 49 48 54 65 64 78 81 72 78 85 86 91 92 88 84 86 90 91 91
88 87 88 89 93 93 95 96 95 96 97 95 92 93 94 95 94 93 91 85 78 66 55 59 55 52 51 62 56 81 85 85 86 87 88 90 90 88 89 89 91 91 92 94
91 94 95 95 94 96 96 95 91 94 94 94 93 92 93 93 94 93 90 78 66 72 62 68 68 78 68 88 77 87 82 83 85 88 89 90 90 91 91 90 92 92 91 91
96 95 95 94 93 93 91 92 96 93 95 95 95 94 89 86 87 78 82 64 67 87 84 83 83 84 87 91 89 89 87 87 90 90 89 93 90 91 91 92 93 91 92 92
95 93 93 92 85 79 87 79 72 77 87 85 90 93 87 88 87 76 76 81 86 90 90 89 88 85 94 95 89 90 88 89 89 94 89 85 90 91 89 90 91 92 92 93
90 84 77 75 75 77 73 70 74 76 80 81 82 76 77 82 92 94 89 85 83 91 90 91 90 85 88 92 92 88 90 90 94 90 92 92 88 90 90 89 91 93 92 90
79 83 82 76 75 76 77 78 88 84 81 90 91 91 90 87 87 84 83 86 83 81 87 92 91 90 89 87 85 88 89 86 90 91 91 88 88 90 90 88 89 90 91 92
74 74 74 77 74 78 79 80 87 91 91 89 89 86 85 92 89 88 88 86 88 88 87 89 88 86 90 86 91 85 85 88 90 92 89 89 89 90 91 91 91 90 88 88

GFSNGP_sfc_rhum_081.txt.gz
RH
36 27 26 28 27 26 28 35 42 41 37 31 26 22 22 25 24 25 23 22 23 37 42 45 52 71 70 87 93 95 97 98 99 98 98 98 98 96 95 94 94 93 93 93
46 36 29 29 27 26 24 25 25 27 31 22 22 20 20 20 26 25 24 24 25 28 40 52 73 91 92 97 98 96 98 98 98 98 98 97 97 97 97 95 94 93 93 93
64 42 41 56 34 27 28 24 27 32 26 23 22 21 22 22 20 24 25 33 33 45 68 81 89 92 98 97 95 96 97 98 98 98 98 98 96 93 94 94 93 92 89 86
85 70 73 40 26 24 27 25 24 26 27 24 20 21 26 26 26 31 38 40 48 84 88 91 93 94 94 95 95 96 97 97 95 95 96 94 93 92 91 87 84 84 81 78
97 76 58 45 32 31 31 33 26 28 27 24 22 24 36 34 36 40 48 52 74 87 88 92 93 93 94 96 96 95 94 93 91 88 87 87 86 84 77 74 74 74 75 70
96 97 91 58 37 28 31 50 29 32 32 31 29 46 42 47 58 59 60 68 86 84 86 90 92 88 92 94 92 90 87 84 81 81 81 80 75 72 68 73 69 65 67 76
98 99 84 42 34 35 51 55 33 33 34 34 40 46 46 57 60 59 63 71 83 86 91 89 85 84 89 88 88 78 76 77 73 64 62 64 68 71 69 71 80 89 82 80
94 97 96 39 38 44 45 40 37 41 40 49 54 59 59 56 58 59 64 71 75 84 89 85 83 82 84 79 70 70 63 58 56 56 54 62 64 61 66 78 87 87 87 91
73 76 61 57 59 59 55 50 47 43 41 55 63 59 57 59 59 60 65 67 68 74 82 80 76 74 77 65 56 58 57 58 59 54 53 52 58 62 73 77 86 90 87 90
66 48 40 53 59 46 45 49 42 41 41 54 56 58 58 58 58 60 63 63 67 67 72 74 68 59 59 59 60 57 56 56 53 48 49 50 54 66 78 83 86 87 89 92
60 49 44 41 44 37 38 38 45 40 39 42 56 59 57 58 57 58 60 63 60 63 62 62 59 60 58 57 56 56 51 51 56 62 65 69 75 80 82 87 90 90 93 90
72 47 47 44 49 48 39 41 44 47 41 41 54 55 54 57 57 59 61 59 59 59 54 51 51 56 53 50 50 56 58 62 74 75 82 80 81 88 85 85 83 82 83 86
40 42 54 58 58 53 56 59 53 50 46 45 50 52 55 58 60 67 57 56 50 49 50 50 51 54 58 61 60 62 69 75 78 83 88 87 91 87 87 83 82 72 66 64
53 51 61 61 62 55 51 49 53 52 50 55 54 52 53 55 58 57 51 47 49 53 58 62 65 68 73 76 83 88 90 95 94 95 94 94 95 95 91 93 96 92 75 74
56 58 60 57 54 52 52 55 56 56 56 55 52 55 58 57 53 53 55 58 66 76 78 81 82 90 90 92 93 96 95 96 97 96 96 94 90 89 87 89 90 88 86 88
40 57 56 59 58 57 57 58 61 68 69 72 74 73 71 72 76 81 82 80 84 92 93 95 95 97 97 96 95 93 93 96 92 85 84 83 87 89 87 88 88 92 92 94
68 70 68 69 73 76 79 77 76 80 81 84 85 82 81 85 89 93 95 95 95 96 96 95 96 95 92 93 93 92 89 72 78 78 83 83 89 88 87 92 91 93 96 96
72 74 70 76 81 88 90 89 89 89 92 89 88 89 90 91 94 95 96 95 94 95 94 94 91 79 64 58 62 73 81 79 81 87 86 91 87 89 94 94 93 96 96 92
81 85 84 85 88 91 92 93 92 90 90 90 91 95 95 95 95 94 93 94 95 91 90 62 65 58 58 70 70 83 89 91 86 86 91 90 94 94 97 96 97 97 97 97
86 85 86 90 88 90 94 91 90 93 95 94 95 95 95 96 95 94 90 93 88 80 64 62 57 57 59 66 80 83 92 94 89 93 96 97 98 98 98 97 97 98 99 100
91 90 91 91 94 93 93 90 90 94 96 94 93 95 95 95 93 92 89 89 81 67 66 72 69 66 66 87 81 93 94 95 96 98 99 100 100 98 99 99 99 100 100 100
89 92 93 91 92 95 96 95 94 95 95 94 94 92 92 93 92 90 86 78 73 83 79 82 81 84 81 96 92 96 95 94 97 98 98 99 98 100 100 100 100 99 100 100
94 95 95 95 94 96 95 94 96 94 94 92 92 93 93 83 79 87 93 88 86 88 84 90 89 89 94 98 97 96 96 98 99 100 96 97 99 100 98 96 97 100 99 98
95 94 95 95 93 88 92 89 82 84 90 91 96 88 84 92 94 86 88 93 90 90 95 95 92 94 97 92 92 94 98 100 99 99 99 100 96 97 98 98 95 96 97 97
94 94 91 88 84 86 82 78 80 81 84 86 87 82 86 85 90 94 90 93 94 96 97 96 97 97 97 96 96 99 98 98 98 96 97 100 100 100 99 96 98 98 96 97
92 92 92 88 88 87 81 80 88 87 88 93 94 94 95 93 92 92 95 97 92 96 97 97 95 96 94 97 98 96 99 99 97 98 100 100 100 100 100 100 97 97 99 100
79 80 80 83 79 81 84 88 92 93 92 92 94 93 90 93 92 93 96 94 94 95 96 95 97 93 97 100 99 100 100 100 97 99 100 100 100 100 100 100 100 100 100 100

GFSNGP_sfc_rhum_087.txt.gz
RH
53 32 30 40 40 39 43 46 52 46 47 37 36 34 31 31 30 29 28 30 42 46 52 53 57 58 63 69 71 72 74 74 76 78 90 94 97 97 96 96 95 93 96 96
63 49 32 32 31 40 45 44 40 40 39 34 31 34 34 28 26 29 28 30 31 38 45 54 62 63 64 70 74 79 81 83 98 99 99 99 99 99 100 99 99 98 97 96
78 53 54 68 50 38 34 42 40 45 41 35 37 32 32 30 29 30 30 29 31 34 41 46 74 86 89 95 97 94 98 99 99 99 99 99 99 99 99 99 99 98 98 97
96 72 82 55 41 37 42 34 37 32 29 29 26 28 28 26 27 31 32 33 61 84 92 97 95 99 99 98 99 99 99 98 99 99 99 99 99 99 99 99 98 98 98 98
99 84 69 62 51 47 49 47 35 33 27 25 26 37 36 41 37 33 43 59 84 93 98 93 97 97 98 98 98 98 99 99 99 99 99 99 99 99 98 98 98 98 97 97
99 98 89 68 44 43 45 64 35 30 36 32 35 46 38 42 53 54 77 92 98 99 96 95 97 93 97 99 99 99 98 97 94 94 96 96 96 97 96 95 95 93 92 91
98 99 87 66 57 54 88 72 48 34 36 38 36 40 37 62 70 86 95 99 98 98 98 97 96 92 98 96 97 92 89 89 87 87 88 88 89 87 83 85 86 91 92 90
99 99 94 52 63 64 59 64 51 43 35 41 36 53 63 67 84 94 98 98 97 98 99 98 96 96 95 95 87 84 84 85 81 77 77 77 81 80 79 85 91 93 94 93
82 81 63 56 58 57 57 56 55 55 43 43 56 64 70 80 93 96 97 98 94 96 97 96 95 93 95 87 78 71 65 65 66 66 68 74 82 85 86 85 91 92 92 95
80 58 60 56 57 65 59 49 44 50 56 61 60 67 72 79 91 96 97 98 94 84 80 83 80 76 69 62 58 60 66 69 70 74 76 75 77 82 89 91 94 95 97 97
70 58 54 44 51 55 50 48 49 46 49 60 64 70 71 87 89 87 78 69 67 69 69 67 62 60 58 58 58 62 66 69 71 70 76 84 87 90 92 98 99 98 98 97
64 48 53 49 41 51 55 52 50 47 48 60 59 69 73 80 74 66 66 64 66 68 69 67 66 66 62 59 61 69 80 83 88 89 93 94 95 96 97 96 95 94 92 90
55 49 55 59 61 60 60 71 65 60 57 68 65 71 72 65 62 67 64 70 75 79 79 80 81 83 80 79 80 85 91 92 94 95 96 97 96 96 96 97 97 96 96 95
58 65 70 63 65 66 65 65 68 66 68 68 65 60 61 63 65 69 76 78 80 84 88 88 91 96 92 88 89 93 94 96 94 96 96 95 95 96 95 96 97 97 97 97
56 56 63 70 70 71 63 64 70 71 68 68 66 70 73 76 80 83 82 82 82 85 86 85 89 96 96 92 92 94 92 94 95 95 95 95 94 94 94 95 95 94 93 93
60 72 74 79 78 71 68 71 77 79 80 81 82 82 82 83 84 84 82 80 83 91 95 95 95 97 94 90 90 89 91 93 92 91 90 88 87 88 91 94 96 96 94 96
81 85 84 83 81 79 79 78 79 81 82 83 84 82 82 85 88 92 94 93 93 95 96 94 96 86 78 77 79 79 78 79 83 80 83 88 94 93 92 95 96 97 97 96
84 81 74 80 86 87 86 83 82 82 86 86 88 89 90 91 94 94 95 95 94 94 94 94 85 70 68 68 70 79 86 87 89 92 92 95 94 93 96 96 96 95 97 95
84 86 84 83 83 84 85 87 88 86 89 89 90 93 92 93 93 94 93 93 93 91 94 85 84 77 75 80 78 83 89 92 90 92 92 96 96 96 98 99 100 100 100 99
89 86 86 87 85 87 91 90 90 92 90 89 89 90 93 94 92 93 89 93 88 82 77 77 78 78 77 80 82 84 91 93 90 94 96 97 99 100 99 99 98 99 100 99
91 89 90 90 93 93 94 90 90 94 96 94 92 93 93 95 94 93 91 88 76 76 81 85 82 80 79 81 83 93 94 95 97 99 99 100 100 100 100 100 100 100 100 99
95 96 96 96 94 94 94 93 90 92 93 94 94 93 92 94 93 92 85 82 80 87 82 80 81 88 88 90 90 95 94 95 98 98 100 100 100 100 100 100 100 100 100 99
96 95 95 94 93 95 94 94 94 93 94 94 94 94 92 90 80 84 89 74 81 83 80 89 93 94 94 95 97 98 99 100 100 100 100 100 100 100 100 100 100 100 100 100
95 94 94 94 92 87 93 94 92 92 94 94 94 89 84 91 92 85 86 93 92 92 94 95 97 100 98 99 100 100 100 100 100 100 100 100 100 100 100 100 100 100 100 100
94 94 93 92 90 92 90 90 90 90 88 86 87 82 82 80 89 94 93 94 93 92 96 98 100 100 100 100 100 100 100 100 100 100 100 100 100 100 100 100 100 100 100 100
93 92 93 91 91 90 90 87 88 86 86 93 94 94 95 93 92 93 94 93 92 96 98 99 100 100 100 100 100 100 100 99 100 100 100 100 100 100 100 100 100 100 100 100
93 92 90 91 91 87 84 85 90 93 90 92 95 95 93 95 95 94 95 96 99 100 100 100 100 100 100 100 100 100 100 100 100 100 100 100 100 100 100 100 100 100 100 100

GFSNGP_sfc_rhum_090.txt.gz
RH
76 74 83 88 52 34 38 45 55 51 49 41 38 36 34 33 34 32 28 33 54 66 65 68 71 70 72 76 78 74 74 76 74 76 83 87 88 92 96 95 94 94 95 98
89 70 74 76 46 41 46 46 51 49 49 40 36 40 37 33 31 31 32 29 30 44 59 66 66 70 72 75 78 82 81 78 78 84 86 92 92 93 95 96 97 96 98 97
89 78 88 77 49 37 38 48 46 52 44 41 36 38 38 33 35 31 30 30 33 34 44 56 69 76 82 86 89 90 87 90 97 96 96 98 99 99 99 98 99 99 99 99
98 91 97 63 42 34 41 38 42 41 38 38 34 30 33 34 33 33 31 34 35 53 87 98 95 96 98 96 99 97 99 99 99 99 99 99 99 99 99 99 99 99 99 99
98 97 87 74 53 51 52 44 43 41 41 36 34 37 32 34 32 30 37 53 86 97 93 91 93 95 97 98 98 98 99 99 99 99 99 99 99 99 99 98 98 98 97 98
99 99 88 72 61 56 49 73 44 44 46 41 36 47 37 37 53 72 87 94 98 94 90 91 98 95 97 98 98 98 98 98 98 97 98 98 98 98 97 95 95 93 95 95
92 96 90 69 67 65 81 71 52 55 44 43 36 37 36 65 90 96 98 97 95 91 93 97 93 91 97 96 97 94 90 89 90 89 92 92 90 89 90 92 92 95 95 93
99 98 93 58 76 95 66 71 60 56 55 52 47 50 59 85 97 98 97 98 95 96 97 97 92 91 95 95 87 80 76 78 79 81 80 80 84 86 86 90 94 95 96 96
91 85 63 57 52 55 66 67 66 58 57 61 49 48 75 96 98 98 97 96 93 94 95 92 90 87 90 75 70 72 73 77 76 76 78 78 83 86 90 87 92 94 94 94
82 58 58 57 56 58 57 60 66 53 62 61 62 73 92 98 97 96 93 87 80 84 83 78 70 66 65 67 67 68 74 77 77 80 82 82 84 87 92 93 93 93 95 96
75 59 53 49 50 49 55 58 59 61 58 61 69 82 90 95 82 75 72 69 68 71 70 67 63 63 62 66 69 75 76 78 85 86 87 89 92 94 92 97 98 98 98 97
74 56 61 56 54 57 62 64 72 65 56 68 75 84 74 72 69 71 72 71 74 75 78 78 78 80 78 75 76 81 88 92 94 93 92 91 91 95 96 97 96 96 96 95
52 62 63 58 69 72 75 73 70 67 73 79 77 69 70 77 80 81 80 82 84 86 86 88 90 91 88 86 84 88 91 90 90 90 92 92 93 93 95 94 89 91 91 91
58 62 56 63 79 74 74 70 71 73 69 69 71 69 75 81 84 85 87 86 84 86 87 88 91 94 86 83 85 88 91 92 91 92 92 92 94 94 92 93 95 94 90 92
56 58 57 75 75 70 68 71 78 81 81 84 78 81 82 86 89 92 89 84 80 81 82 82 86 95 93 88 90 91 90 92 92 92 90 90 89 89 90 91 93 92 87 87
77 74 79 82 77 73 73 73 82 83 81 85 86 85 83 82 83 84 84 81 82 91 93 92 93 96 92 86 85 83 80 82 81 84 87 88 88 90 91 92 94 94 94 96
92 89 88 88 85 82 82 79 82 84 84 83 84 82 81 85 88 91 94 94 93 94 94 92 96 85 78 75 77 77 78 80 84 85 88 89 91 93 92 94 95 95 98 97
82 86 83 82 86 87 87 84 82 82 85 85 88 90 90 90 93 94 95 94 90 93 94 88 76 70 69 69 72 77 84 86 87 91 91 95 94 94 97 98 98 98 99 95
83 85 84 82 82 83 84 86 87 87 90 90 90 93 92 94 94 94 91 89 89 90 92 76 82 75 74 79 78 84 87 90 89 91 91 96 95 95 97 99 99 100 99 98
87 86 86 86 84 85 90 89 90 92 90 89 90 91 94 94 93 93 90 94 91 90 76 70 70 72 74 80 82 83 91 93 90 95 96 97 99 100 99 100 98 100 100 100
92 89 90 90 93 93 92 90 90 93 94 90 92 94 94 95 94 90 86 87 89 80 75 77 76 80 79 81 84 93 94 95 96 99 100 100 100 100 100 100 100 100 100 100
95 94 93 91 92 94 95 95 94 94 94 93 94 93 91 93 92 93 90 86 77 80 78 82 85 90 87 90 89 94 95 96 98 99 100 100 100 100 100 100 100 100 100 100
96 95 94 94 94 95 95 95 95 94 94 94 94 93 89 85 76 85 90 72 78 85 83 91 94 95 98 96 97 98 98 99 100 100 100 100 100 100 100 100 100 100 100 100
95 94 95 95 93 89 93 95 92 92 93 94 94 91 85 93 95 85 85 92 93 93 94 96 99 100 100 98 98 98 100 100 100 100 100 100 100 100 100 100 100 100 100 100
95 94 93 92 91 92 91 90 90 91 90 89 83 77 78 78 90 94 92 93 95 91 97 100 100 100 99 99 99 100 100 100 100 100 100 100 100 100 100 100 100 100 100 100
93 92 93 91 90 89 90 86 90 89 87 94 94 94 94 92 90 90 92 92 91 96 98 100 100 100 100 100 100 100 100 100 100 100 100 100 100 100 100 100 100 100 100 100
93 92 90 91 91 90 89 85 90 92 90 92 96 95 93 94 93 92 95 97 98 99 100 100 100 100 100 100 100 100 100 100 100 100 100 100 100 100 100 100 100 100 100 100

GFSNGP_sfc_rhum_093.txt.gz
RH
59 50 46 55 58 53 64 70 55 37 35 31 26 27 26 26 29 30 27 27 41 46 52 57 60 63 65 67 71 70 69 71 71 70 71 72 76 76 75 76 77 78 83 87
76 62 59 58 50 57 63 64 53 36 34 32 29 31 31 29 28 28 27 26 25 36 48 55 60 61 64 67 70 70 70 72 68 69 70 76 77 78 80 81 81 86 91 94
78 62 64 76 58 60 56 49 40 46 36 32 32 33 32 30 30 30 29 30 29 30 39 49 56 62 63 67 71 74 70 68 68 69 69 71 73 78 79 82 85 94 95 97
89 94 88 46 46 51 57 44 33 33 33 31 28 28 28 27 27 29 30 29 31 36 56 72 76 71 77 72 72 75 77 83 83 83 89 91 90 94 95 99 99 99 98 98
84 80 62 35 62 62 76 69 43 31 29 28 28 32 31 28 28 30 33 38 57 66 74 82 87 88 89 94 92 95 97 98 98 98 98 98 99 98 98 97 97 97 95 96
89 96 77 52 52 66 55 68 56 45 46 40 34 44 29 37 51 72 78 83 86 85 87 90 90 85 92 96 96 97 97 97 96 95 96 97 97 97 93 93 94 92 92 92
84 90 69 56 63 60 78 76 71 60 51 52 41 36 44 80 94 90 89 88 86 85 91 92 88 86 93 94 96 92 90 90 91 90 90 90 91 90 90 92 92 94 95 93
82 97 88 58 69 71 86 79 60 60 54 63 48 52 81 89 93 93 95 96 93 94 95 90 86 87 91 88 82 80 82 83 83 82 79 82 86 87 86 89 92 94 95 95
96 84 80 62 56 55 62 66 60 69 57 58 65 72 92 96 95 96 92 91 87 88 87 81 78 74 81 79 73 75 75 78 78 76 77 78 83 85 88 86 91 93 92 92
70 57 58 55 50 53 52 59 54 61 64 71 86 92 93 94 87 83 82 80 70 67 70 72 68 67 66 68 68 70 76 78 79 80 82 80 80 84 90 92 93 93 94 95
64 51 58 51 49 48 55 53 57 55 68 76 86 86 81 80 78 76 74 71 68 71 73 74 70 68 64 66 68 74 75 77 79 81 84 87 89 88 88 96 93 91 91 89
64 47 57 53 52 54 67 69 66 64 63 72 75 77 74 76 74 74 77 75 76 76 78 80 79 76 71 69 72 77 81 82 85 85 82 81 84 91 88 84 83 84 84 84
48 40 56 57 54 63 70 69 66 68 70 77 76 79 84 88 84 84 81 82 84 86 82 82 85 83 80 79 77 78 80 79 81 83 82 81 79 78 84 88 84 90 90 86
53 56 60 46 47 67 69 68 68 65 67 73 77 78 83 93 95 94 92 90 87 87 86 89 91 94 82 77 78 83 85 87 81 79 77 78 78 79 78 81 86 85 83 82
52 51 51 50 70 67 67 70 79 82 80 83 83 90 90 89 89 94 95 94 94 93 95 93 89 96 91 86 86 86 79 77 79 80 80 78 75 74 74 76 78 75 70 73
64 70 69 73 70 69 69 75 82 86 85 86 89 87 86 80 82 86 88 88 88 93 94 93 94 95 84 78 76 72 74 80 73 70 71 72 71 73 74 75 76 77 78 77
77 76 82 82 77 76 76 77 80 82 81 82 82 79 78 81 85 90 95 95 94 95 94 91 92 78 69 64 63 62 62 68 74 67 69 70 73 73 73 76 76 77 82 91
78 78 74 80 77 79 81 80 78 78 82 83 87 90 90 89 93 95 95 94 93 93 87 78 68 60 59 58 60 64 68 69 71 75 74 78 75 74 78 77 76 76 77 80
77 78 76 76 74 76 80 82 83 83 90 90 90 92 91 93 94 94 94 93 91 87 79 66 72 64 62 66 63 68 73 75 73 72 74 78 80 75 80 81 82 84 79 79
82 78 79 81 78 81 88 87 89 91 91 89 89 90 93 95 94 94 90 92 79 70 59 58 57 60 63 67 70 67 75 76 71 80 82 81 85 86 83 81 80 83 85 83
88 86 88 89 93 93 93 91 90 92 92 88 90 94 94 95 94 89 85 85 75 69 65 69 63 63 61 64 64 80 82 84 85 84 84 86 86 84 85 84 83 84 85 85
95 94 94 93 92 95 94 92 90 92 93 94 94 94 93 94 93 91 86 79 70 74 67 69 72 78 74 75 73 83 78 80 83 84 86 85 84 84 85 84 86 87 87 88
96 95 95 95 94 95 94 94 94 93 94 94 94 94 89 80 68 78 83 66 68 77 72 81 88 89 88 86 86 86 85 86 88 88 87 88 87 87 86 87 87 89 90 88
95 95 95 95 94 93 94 95 93 93 94 93 94 94 84 91 92 79 79 85 86 85 87 89 91 91 83 86 86 87 87 90 89 89 89 95 90 88 87 90 89 89 89 89
95 94 93 94 93 93 92 92 91 90 88 90 88 73 74 70 87 86 86 85 85 83 90 95 91 89 85 86 87 88 89 90 91 89 90 89 89 90 90 90 92 91 91 91
94 92 93 93 92 90 90 82 87 90 89 92 92 93 93 86 84 82 83 83 83 87 89 90 89 88 88 89 90 91 90 88 89 88 90 88 90 89 92 91 92 92 93 93
93 92 90 91 91 89 90 90 90 88 85 91 94 92 86 87 87 83 86 88 92 94 94 94 92 92 90 92 92 93 92 90 96 86 89 91 92 93 94 94 94 93 93 92

GFSNGP_sfc_rhum_096.txt.gz
RH
36 31 27 29 29 29 39 39 50 42 35 24 22 19 18 17 17 19 18 18 23 30 32 34 38 42 44 46 50 50 52 56 57 58 59 60 64 64 63 62 60 58 57 56
55 40 38 38 28 26 28 32 32 33 36 28 22 18 18 17 16 16 18 17 16 21 28 33 37 41 43 46 51 52 52 54 54 56 55 59 60 61 61 59 58 58 60 61
56 44 51 63 43 31 25 23 36 45 33 24 22 20 18 21 20 18 19 18 18 19 23 30 38 42 44 47 51 55 55 53 54 55 56 57 57 59 63 71 72 77 84 89
71 64 82 33 30 28 30 34 33 36 33 26 22 19 16 14 18 20 19 19 19 21 25 31 33 40 43 45 52 57 56 54 55 57 58 56 60 64 82 96 96 96 96 94
72 50 36 31 26 42 46 36 36 47 32 23 20 19 20 17 19 22 33 25 24 25 36 47 48 48 48 50 54 61 76 73 71 74 86 94 97 97 96 95 94 94 92 93
65 67 58 24 35 42 38 45 51 48 52 47 40 38 23 19 42 51 54 49 47 50 57 63 67 67 78 86 92 95 95 94 91 91 93 94 93 93 91 91 92 91 92 91
77 80 44 26 34 45 62 56 51 55 53 53 51 38 35 61 75 64 71 76 74 79 84 82 82 84 90 90 93 88 83 82 83 84 87 87 88 88 89 91 90 93 93 92
83 93 78 41 68 93 83 61 51 59 59 59 51 48 64 82 92 86 92 91 86 88 87 81 76 77 84 86 78 76 75 78 80 80 77 78 83 84 84 86 90 91 92 92
62 65 42 41 66 66 62 57 45 69 70 54 61 60 85 91 93 92 88 79 74 75 79 77 75 75 81 79 74 74 74 76 76 75 75 75 80 82 84 82 88 90 90 91
55 36 50 60 68 63 47 41 54 52 53 63 82 83 92 88 86 82 76 75 71 72 76 78 71 69 69 70 68 68 72 72 70 71 72 72 72 80 86 86 87 86 88 91
40 35 34 34 38 36 33 46 55 59 56 67 80 86 84 83 80 74 76 73 70 72 72 71 67 66 62 61 62 66 69 68 70 72 76 81 82 80 82 90 89 88 89 88
46 34 36 35 31 34 37 44 53 64 59 62 65 70 71 76 76 76 80 76 75 74 72 71 69 68 64 60 60 66 72 70 74 72 71 71 76 87 88 85 84 84 85 81
38 32 35 37 36 36 45 51 59 60 61 67 73 74 78 89 90 86 80 81 80 79 76 76 76 75 68 64 69 76 78 77 72 75 76 76 73 73 81 83 79 79 77 76
30 32 40 36 37 39 49 54 59 59 64 70 76 82 85 93 97 96 95 92 88 84 85 85 87 94 96 91 89 85 75 79 72 73 72 73 74 75 73 76 81 78 72 71
34 33 36 36 36 45 51 60 64 69 73 81 78 88 88 83 88 96 96 96 95 95 96 95 95 97 95 85 82 85 74 72 75 75 74 70 67 66 65 67 68 64 59 61
35 40 39 42 50 54 60 64 71 78 80 83 87 90 81 78 81 87 94 94 92 95 96 96 94 86 79 76 72 65 64 68 64 63 63 63 61 61 61 62 63 66 67 66
51 51 41 56 62 62 61 63 69 74 79 79 82 78 78 81 88 92 95 95 95 95 95 86 80 65 57 52 52 51 54 54 59 52 56 58 62 62 62 65 64 65 74 79
60 60 57 62 64 63 68 70 72 74 78 81 93 93 92 90 93 95 95 95 92 94 91 75 60 52 50 47 45 48 54 56 59 64 62 68 63 61 64 63 62 64 66 68
63 63 63 62 60 62 66 72 76 79 88 93 95 94 92 91 92 94 94 94 94 90 83 56 61 52 49 54 50 54 60 63 61 60 65 66 70 64 71 72 70 71 67 68
76 67 66 67 67 71 82 81 87 89 88 90 93 94 94 95 94 94 92 87 67 55 47 45 44 46 48 51 54 52 63 67 61 71 74 72 77 79 76 69 68 74 78 77
86 83 84 85 88 89 92 91 90 93 94 90 91 94 95 95 94 94 88 72 60 55 49 51 44 43 43 47 49 70 74 76 77 76 76 79 78 74 76 77 78 79 80 80
93 94 94 92 91 93 94 94 91 94 92 93 94 94 94 94 94 92 82 65 56 60 53 54 54 60 56 61 61 74 69 72 75 76 78 78 78 79 80 79 80 81 80 81
94 93 94 94 93 94 94 94 94 93 94 94 94 93 91 89 80 73 75 57 57 64 60 72 78 76 72 78 79 79 78 77 78 78 79 80 80 81 80 80 80 81 82 81
90 89 93 94 92 91 94 94 93 93 94 94 94 94 88 86 86 68 66 71 72 74 77 80 80 75 71 80 80 80 80 80 80 80 79 77 81 80 80 82 80 81 81 80
92 91 90 93 90 90 91 90 91 92 91 91 91 81 71 67 81 75 76 76 73 70 78 79 77 74 79 80 80 80 80 81 80 80 80 81 81 82 82 81 82 83 83 81
91 86 89 90 89 89 89 87 89 89 88 92 89 89 86 78 73 72 74 73 71 71 76 80 80 80 80 78 79 78 78 75 77 78 79 80 80 80 82 82 83 82 83 82
91 91 90 88 88 88 90 89 91 92 86 88 89 83 77 79 78 74 76 80 80 80 80 80 80 77 77 78 78 78 77 79 87 78 80 82 82 83 84 84 84 84 83 83

GFSNGP_sfc_rhum_099.txt.gz
RH
25 22 21 28 26 24 28 29 42 34 27 22 20 18 16 16 16 16 15 16 20 23 26 28 32 36 39 43 50 49 48 50 52 53 55 54 57 58 58 59 55 53 55 54
34 25 23 27 22 20 18 20 22 24 26 18 17 17 20 19 16 15 14 13 14 18 22 26 29 33 36 39 45 48 48 50 49 52 52 56 57 60 60 58 56 57 56 56
57 27 26 42 27 20 16 13 16 24 22 18 22 20 20 20 17 15 15 14 14 15 18 23 27 31 34 37 41 45 46 46 48 49 51 53 53 56 60 65 68 87 92 92
62 51 66 29 18 20 26 21 15 12 11 18 21 21 17 16 16 15 15 15 16 16 18 19 24 30 35 36 41 47 46 44 45 48 50 51 58 82 93 92 94 94 94 93
71 50 31 23 20 25 30 32 23 26 28 38 33 26 21 14 14 14 18 23 21 23 19 23 24 30 34 37 42 47 49 48 48 50 73 86 94 94 93 93 94 94 92 93
68 63 58 26 32 43 38 58 44 45 53 51 44 52 27 22 18 32 34 33 31 34 37 39 36 36 38 46 67 91 88 88 85 85 87 89 91 93 91 91 92 91 92 92
71 76 48 24 20 34 62 72 57 49 43 50 56 59 49 47 50 46 47 50 52 50 54 68 71 78 89 89 92 86 84 84 84 84 86 87 89 88 89 91 91 93 93 91
69 95 82 26 33 58 72 64 57 44 41 50 62 66 63 67 70 69 74 74 68 74 82 81 79 80 83 85 80 79 80 82 81 81 78 80 85 85 84 86 90 92 92 92
60 54 33 30 50 56 65 73 61 51 48 59 73 70 76 85 88 82 74 75 75 78 80 79 77 76 83 83 78 78 79 79 78 76 76 75 79 81 83 80 86 88 88 89
41 33 32 33 43 43 61 60 55 42 45 65 86 78 82 84 82 80 76 78 76 76 79 82 76 74 75 75 71 71 74 74 72 73 73 73 75 77 79 80 83 84 87 89
40 32 30 28 32 48 54 37 33 43 64 68 86 81 77 81 78 77 78 76 74 80 79 79 74 72 69 69 67 70 72 70 72 74 80 81 78 81 86 91 86 89 90 86
47 36 39 34 29 30 33 34 39 50 66 70 62 73 78 87 89 86 85 82 78 79 76 73 68 66 64 59 61 63 67 69 77 77 76 75 79 86 81 80 79 81 79 79
34 27 28 28 28 29 30 37 47 52 60 68 68 72 85 94 95 93 88 90 92 91 82 78 72 71 65 65 66 71 77 76 78 80 80 79 74 74 85 81 75 74 73 72
26 28 33 28 31 29 29 39 54 56 62 73 81 83 86 96 97 96 96 96 94 93 93 93 92 96 96 92 91 94 96 95 82 78 77 77 77 77 74 75 80 75 68 65
27 26 28 28 28 27 30 45 54 62 72 82 79 87 91 94 94 97 96 95 95 95 96 96 96 98 98 98 97 97 89 83 81 80 78 75 70 66 64 64 64 60 56 59
31 34 32 35 32 37 45 47 59 67 74 82 87 89 93 92 87 91 95 96 94 96 97 96 96 97 96 86 73 66 65 72 69 67 66 61 58 59 60 61 63 66 67 66
48 45 41 45 41 50 50 51 58 65 75 78 82 80 78 85 91 94 95 95 95 96 96 95 92 68 57 54 53 50 50 51 59 51 55 57 61 61 62 64 66 68 74 75
51 51 46 50 50 51 56 64 68 72 76 82 91 93 94 91 94 95 95 95 94 94 95 95 79 52 45 42 42 45 52 56 59 63 62 68 66 61 64 63 62 64 66 68
60 60 55 54 53 53 60 67 74 78 89 92 93 95 95 94 94 95 95 94 94 92 93 68 59 49 47 50 48 53 58 62 61 60 64 66 70 65 71 71 70 70 65 67
71 70 66 66 65 66 75 80 85 88 89 93 94 94 95 95 95 95 94 93 78 63 44 42 41 44 45 49 56 54 64 67 62 70 73 71 77 79 75 68 67 72 76 75
84 83 88 88 90 90 91 91 92 92 93 93 93 94 94 95 94 94 92 83 56 46 40 44 39 40 42 49 52 69 72 75 76 75 76 77 77 73 75 75 75 76 77 77
89 92 93 92 92 94 93 92 90 95 94 94 94 94 94 94 94 93 92 78 61 58 51 52 52 58 54 62 60 73 68 70 73 75 77 76 77 78 78 76 77 77 77 77
90 90 91 92 93 95 94 93 94 92 94 94 94 95 93 89 85 83 84 66 61 66 63 72 71 71 70 76 77 77 75 74 76 77 78 79 78 78 77 78 77 77 78 78
90 89 90 90 91 91 93 95 94 94 94 94 94 95 89 92 90 70 67 74 74 75 78 78 76 71 70 78 78 78 77 77 78 79 77 73 79 77 76 78 76 76 76 75
89 89 87 87 84 86 90 90 90 92 92 92 92 88 76 67 83 80 79 75 71 72 78 73 71 71 78 78 78 78 80 80 79 78 78 78 78 78 78 77 78 79 79 77
88 80 81 87 85 86 83 83 89 90 89 93 93 90 88 80 79 78 78 72 69 69 76 79 78 77 78 76 76 76 75 73 75 76 75 76 75 75 77 77 78 78 78 78
85 83 80 80 81 84 86 88 89 90 89 91 90 85 79 82 82 77 75 79 80 79 79 78 78 75 75 76 74 74 75 78 84 75 76 77 77 78 79 80 80 80 79 79

GFSNGP_sfc_rhum_102.txt.gz
RH
30 24 21 25 29 32 34 33 60 45 34 28 28 32 25 21 20 18 16 17 21 27 31 36 40 45 45 53 54 52 53 60 66 69 69 68 70 71 70 69 67 66 68 67
37 27 23 23 20 25 26 24 23 24 25 18 17 17 18 18 17 18 19 17 15 20 26 31 37 43 45 50 56 55 55 58 59 65 65 69 71 72 73 72 70 72 74 85
50 33 28 38 23 21 22 20 21 26 21 17 18 18 19 21 21 19 18 18 17 19 22 30 36 39 45 48 56 57 57 55 56 59 62 68 67 69 74 82 87 91 91 92
69 54 71 33 17 17 21 18 15 16 14 12 12 14 26 27 20 21 17 18 20 25 26 25 32 36 43 42 52 58 57 54 54 58 60 62 74 90 94 93 94 94 94 93
73 55 37 25 20 33 56 48 57 64 53 42 38 40 35 49 46 42 34 26 33 34 34 29 32 37 39 41 46 52 55 55 54 59 86 88 94 95 94 94 94 94 92 93
74 68 59 28 30 25 29 55 62 54 66 51 41 68 46 56 53 52 52 48 38 39 41 46 64 48 44 52 66 86 85 84 83 85 88 93 92 93 92 91 92 91 93 93
82 89 53 25 24 25 50 74 73 55 50 55 63 51 53 61 64 58 63 67 62 76 79 77 76 78 85 87 92 86 83 84 85 86 88 90 91 90 91 92 91 94 93 93
74 79 76 33 37 59 66 50 55 56 53 59 58 56 63 68 77 77 77 76 77 83 82 77 74 78 86 90 84 83 84 84 85 84 82 85 89 91 90 90 92 93 93 92
57 59 44 38 42 50 50 54 53 54 50 51 59 64 71 83 80 78 77 76 76 80 82 80 78 80 89 86 81 82 83 86 83 81 82 83 88 90 92 89 90 91 91 92
72 52 59 47 34 39 41 44 41 42 45 48 76 83 89 84 80 80 81 80 77 80 85 87 81 80 80 80 77 78 82 83 83 86 86 84 82 81 85 88 88 87 89 91
47 50 45 42 39 40 38 37 44 39 48 76 74 92 89 85 80 81 81 82 80 85 87 86 81 80 76 76 76 80 81 84 86 86 87 86 86 86 88 91 88 92 91 87
68 58 54 56 36 31 37 35 43 50 63 66 72 83 86 95 95 93 91 87 87 87 85 85 83 84 82 77 75 77 82 82 87 85 83 81 83 92 90 87 80 76 76 80
42 34 32 32 29 26 30 46 48 58 66 71 75 80 88 96 95 94 95 94 95 96 96 91 84 85 78 79 77 78 82 80 83 84 86 89 92 90 92 81 71 70 69 68
27 30 35 30 36 31 29 49 61 66 72 79 82 82 84 92 95 95 96 96 94 92 94 95 95 98 98 97 97 96 96 97 96 96 95 94 88 83 81 84 87 81 67 66
29 26 36 35 36 28 31 44 55 70 77 84 82 87 89 93 95 97 97 97 96 96 96 94 95 97 97 97 96 97 96 96 94 90 85 82 81 80 76 77 79 76 71 72
27 32 36 36 50 39 41 44 65 72 78 85 89 91 92 94 93 95 96 97 94 96 96 96 96 97 96 95 95 92 86 78 72 70 70 71 73 75 76 79 80 83 86 85
47 50 50 50 47 53 48 52 62 72 80 82 83 81 83 87 90 93 95 95 95 96 96 95 97 94 89 81 74 72 73 66 69 65 68 70 74 75 77 80 80 81 86 89
54 54 51 54 55 55 56 69 73 77 80 82 90 94 95 94 94 94 95 95 94 94 95 96 95 90 82 73 61 63 69 70 72 76 74 78 76 74 76 76 77 83 84 81
60 62 60 60 63 66 73 76 80 83 92 93 92 94 95 95 95 95 94 92 94 93 96 92 87 72 59 61 60 66 71 75 74 74 77 80 82 79 83 83 83 84 82 84
71 74 77 83 82 84 86 85 89 93 93 91 92 93 95 95 94 94 92 94 92 80 54 50 49 53 55 61 67 68 76 79 76 82 84 84 87 87 84 81 83 86 89 89
82 82 88 90 93 96 96 93 92 93 95 93 90 92 94 95 94 94 94 89 58 50 45 53 52 56 58 64 68 80 82 84 84 84 84 86 86 84 86 87 87 88 90 90
89 92 93 94 94 96 96 94 92 92 92 94 94 94 93 95 94 94 95 90 85 84 74 72 67 69 68 72 74 82 80 81 84 85 87 87 87 88 88 88 89 90 90 91
90 91 92 93 93 95 95 94 94 93 93 92 93 94 93 93 92 91 92 78 73 79 77 83 82 81 80 84 85 84 84 84 86 87 88 88 88 89 89 91 90 91 91 92
89 89 91 93 93 90 93 96 94 94 94 94 94 94 91 93 95 91 81 85 85 86 87 87 84 81 80 86 86 86 86 86 87 88 87 86 89 90 89 92 92 90 92 91
89 91 88 91 89 91 92 92 92 93 93 94 94 92 90 90 90 90 89 87 84 83 88 82 80 81 86 88 90 92 93 93 89 88 88 89 90 90 90 91 92 92 93 93
92 89 88 87 86 85 86 88 91 92 91 93 94 94 94 89 88 87 86 82 82 83 87 88 86 86 86 85 86 86 86 84 87 88 88 90 91 90 91 92 92 93 93 94
84 83 82 88 86 86 86 89 91 93 92 94 94 94 89 90 90 87 87 89 89 89 90 90 89 84 84 85 84 86 89 88 94 89 90 91 92 92 93 93 94 93 94 94

GFSNGP_sfc_rhum_105.txt.gz
RH
41 36 34 32 31 26 29 36 83 66 71 51 40 46 46 46 31 20 19 20 22 47 57 54 58 65 65 67 69 71 76 80 80 82 87 84 85 86 80 81 80 78 82 77
50 35 30 35 31 28 26 24 28 29 33 26 18 22 21 28 22 23 22 20 18 23 47 52 53 60 63 65 64 66 70 77 78 80 78 84 82 85 88 86 80 83 89 88
67 43 39 51 39 30 25 20 24 31 26 22 17 14 49 61 58 58 58 57 33 20 20 60 56 51 60 63 62 65 69 70 74 77 77 81 80 81 82 90 88 91 92 92
78 73 82 43 33 26 24 21 28 61 67 60 57 49 62 63 65 66 68 68 69 56 54 37 47 53 56 60 61 67 69 66 72 74 75 79 88 92 94 94 95 95 96 94
96 81 68 43 34 44 47 58 73 68 68 63 55 52 74 63 66 70 74 72 75 82 81 79 75 62 75 66 65 68 68 68 67 71 92 91 95 96 95 94 95 95 93 94
93 90 82 46 47 40 38 79 78 70 74 66 59 88 72 71 73 75 78 78 82 82 78 81 84 75 70 78 90 95 93 93 91 90 92 94 94 95 93 92 93 92 95 95
91 94 79 46 38 38 68 86 77 70 68 68 76 69 62 75 81 80 80 80 85 83 84 84 85 86 94 93 96 93 91 90 89 88 90 90 92 91 91 93 92 93 93 93
88 94 86 47 49 64 81 68 68 68 65 70 67 66 74 82 83 81 83 82 81 87 87 80 84 92 95 96 90 90 90 92 91 88 85 86 90 89 88 88 91 93 93 94
80 77 77 74 82 80 65 64 67 64 60 63 73 84 84 91 86 82 82 79 78 82 86 84 82 84 95 93 90 91 91 92 90 87 86 84 88 89 89 86 90 92 92 93
88 76 77 72 67 62 55 58 50 50 58 81 89 97 94 87 81 86 83 84 82 85 89 90 84 82 83 82 81 83 88 88 87 89 90 88 88 90 90 91 91 89 90 92
96 82 73 74 66 51 52 48 47 59 79 86 86 91 88 92 89 88 88 88 87 89 89 88 82 83 81 82 82 86 87 87 88 87 88 91 91 90 90 96 92 93 93 89
99 84 88 69 49 56 56 55 62 73 77 76 80 86 87 94 94 93 93 89 91 91 90 90 88 88 84 79 82 86 88 88 89 88 87 84 86 94 94 94 93 93 92 88
54 50 53 44 45 50 60 71 70 73 75 82 82 86 89 95 94 95 96 93 94 96 94 93 93 94 89 89 88 89 90 89 90 88 89 91 92 91 92 95 88 85 84 79
38 39 53 53 59 51 66 71 74 75 79 82 82 82 84 92 96 97 97 97 96 94 95 95 94 98 96 91 91 93 94 94 94 95 94 94 94 93 90 88 91 91 80 79
38 46 59 51 53 59 62 68 77 85 86 87 84 88 90 92 95 97 97 97 96 96 96 95 96 98 98 95 96 97 96 97 97 97 96 94 91 87 86 87 89 90 89 82
50 54 53 56 59 60 64 69 82 87 88 87 88 91 92 95 94 96 97 97 93 96 96 95 95 97 97 95 95 95 95 96 93 88 86 84 84 84 84 85 87 87 89 92
73 74 69 72 70 69 72 70 80 86 89 84 85 83 84 91 94 94 95 96 95 95 96 95 97 96 96 95 94 92 90 83 77 74 79 80 82 84 83 85 86 86 92 89
70 71 72 81 85 85 84 85 87 86 86 88 92 93 93 94 95 96 95 95 94 94 95 96 96 95 94 94 89 78 77 79 82 86 85 87 86 83 83 82 82 87 90 89
74 78 83 82 83 84 86 90 91 90 92 92 91 94 94 94 95 95 93 93 94 93 96 94 95 91 83 79 73 74 78 81 82 83 84 84 87 86 90 91 92 92 92 94
76 78 82 85 88 88 90 89 91 93 93 91 92 93 94 94 94 94 93 95 94 94 88 78 71 75 75 74 74 75 82 84 81 86 86 87 90 92 92 92 92 94 96 96
88 83 88 89 93 95 95 96 94 94 95 91 90 92 93 95 94 94 93 91 95 94 89 81 76 73 68 71 73 84 86 88 89 90 91 93 93 92 93 94 93 95 97 98
95 97 97 95 94 96 95 95 94 95 94 94 93 92 92 95 94 94 95 93 93 92 86 87 84 81 79 80 82 88 88 89 91 91 93 93 94 95 96 95 97 97 98 100
98 97 97 96 95 96 94 94 95 94 94 94 94 94 92 93 92 91 93 93 89 91 86 88 84 84 84 88 89 90 89 90 92 92 93 94 93 94 96 98 99 98 98 100
97 96 96 96 94 91 94 96 94 95 94 95 95 94 90 93 95 93 92 93 92 92 92 91 88 86 85 89 89 89 90 91 93 94 94 96 96 96 96 98 98 99 100 100
95 93 92 92 91 93 94 94 93 94 94 94 95 94 92 92 90 93 91 92 92 91 93 90 91 90 92 93 93 94 96 93 94 94 94 94 95 97 100 99 99 100 100 100
96 95 93 90 91 92 93 92 93 94 93 94 95 95 95 94 90 88 89 90 91 90 93 93 91 89 89 89 92 93 92 90 93 93 94 97 96 97 100 100 100 100 100 100
94 92 92 94 93 91 92 93 93 95 94 94 94 95 94 94 93 91 90 92 93 94 94 94 91 88 90 90 90 89 90 93 94 94 96 98 100 100 100 100 100 100 100 100

GFSNGP_sfc_rhum_111.txt.gz
RH
52 48 46 46 49 46 44 50 67 40 47 39 32 39 42 59 63 70 78 80 74 77 89 92 91 90 89 87 92 92 93 90 83 89 91 96 98 97 95 95 95 93 91 89
62 54 51 58 53 51 48 44 40 37 35 23 30 41 44 55 59 68 78 80 75 74 76 77 82 90 88 88 89 92 93 91 84 92 94 96 98 97 95 95 97 97 96 93
55 61 61 57 46 50 44 38 40 45 31 47 68 62 62 70 71 80 81 81 81 81 79 82 81 78 88 88 88 88 90 90 90 94 94 94 96 96 96 95 92 95 95 96
84 69 72 42 38 38 47 42 48 34 47 78 73 80 80 80 81 82 81 82 82 82 80 81 81 84 81 84 88 90 89 89 89 93 94 94 96 98 98 97 97 98 98 97
88 79 46 39 31 56 80 81 75 55 79 76 73 85 82 79 82 83 82 80 81 81 80 83 88 89 85 87 90 90 92 91 88 91 98 97 98 98 97 97 97 97 96 96
99 90 77 52 53 50 59 91 89 88 90 84 76 96 84 84 81 80 79 81 82 83 83 85 90 92 92 94 94 94 94 94 96 97 97 98 97 97 96 95 97 95 97 96
83 93 73 51 44 54 87 97 79 82 80 78 80 77 75 81 83 80 83 85 83 87 91 86 88 93 98 98 98 96 97 98 98 97 97 95 95 95 95 96 96 97 97 97
94 94 85 65 70 79 82 78 76 78 68 71 89 86 88 88 89 87 90 87 84 86 88 86 87 94 97 98 97 93 92 94 96 95 92 92 95 95 94 94 96 96 97 97
78 78 73 90 87 85 90 77 67 69 61 77 95 85 84 86 84 88 88 86 82 86 88 86 86 90 96 97 94 92 92 95 97 96 97 93 95 95 94 92 93 93 92 94
94 92 90 88 84 85 80 74 58 74 94 94 94 88 87 86 88 89 88 90 83 87 93 95 88 86 88 88 87 88 92 92 91 92 92 92 93 96 96 94 95 95 93 94
99 99 95 81 74 70 62 74 80 84 86 88 90 90 87 88 88 89 90 90 88 91 93 95 90 89 83 84 83 88 88 87 87 86 87 89 88 87 90 92 87 92 93 91
98 82 96 92 74 75 84 88 86 84 88 86 84 87 85 91 91 92 93 92 94 91 91 91 90 90 85 79 81 87 87 86 89 88 89 89 88 94 92 93 93 93 95 93
64 72 73 77 82 79 84 82 82 84 84 85 82 84 87 94 93 92 94 94 97 97 95 93 89 91 88 84 81 84 88 87 90 88 89 90 89 88 93 95 92 93 92 92
70 70 74 81 86 74 79 82 81 80 82 82 83 81 84 92 98 98 98 98 96 97 97 97 96 96 96 91 89 91 92 90 90 91 91 91 90 91 92 92 94 95 92 91
74 71 76 70 72 77 73 75 82 89 90 88 88 89 90 93 96 98 97 96 94 94 95 95 94 97 96 96 95 94 92 93 93 95 95 94 94 94 94 92 91 92 92 93
77 77 76 81 82 82 76 80 87 90 89 89 92 91 91 92 93 95 95 93 92 96 96 95 96 97 96 96 95 94 94 95 93 93 93 93 93 93 93 90 88 90 91 93
86 91 89 90 92 89 86 85 88 86 83 85 85 82 83 87 91 94 96 95 94 95 96 96 97 96 96 96 94 93 93 93 94 92 92 92 87 88 88 89 90 91 95 92
74 75 78 86 91 91 89 86 82 81 84 87 93 94 94 94 95 96 96 95 94 93 95 96 96 95 95 95 94 93 92 92 91 89 87 89 89 87 89 89 89 91 94 92
73 76 78 81 86 88 87 87 89 88 94 95 94 96 95 95 95 96 95 94 93 92 97 95 95 94 93 95 92 92 91 87 86 86 87 88 90 89 92 92 93 93 91 92
78 80 79 80 84 89 90 90 93 94 95 94 94 94 95 95 94 94 92 95 96 95 94 94 93 93 92 91 83 82 87 88 87 91 92 91 93 95 94 92 93 94 95 96
89 84 89 91 94 96 97 97 96 96 96 95 94 95 95 95 95 94 92 90 96 94 93 93 91 91 80 80 80 89 90 92 92 92 92 93 93 93 95 94 95 96 97 97
97 99 99 97 97 97 97 97 96 96 95 95 95 94 94 95 94 94 96 94 94 95 93 92 86 86 84 85 86 91 90 91 93 93 94 94 94 95 96 95 96 96 98 100
100 100 99 99 99 99 95 95 96 95 95 95 95 95 94 94 95 91 94 94 92 94 93 94 92 91 91 93 93 93 92 92 93 94 95 95 95 95 96 97 98 96 97 99
99 98 100 98 95 93 96 97 95 95 95 95 95 96 93 94 96 94 93 94 94 94 94 94 93 92 91 94 94 94 94 94 94 95 96 94 96 94 96 97 98 98 98 98
97 97 96 96 96 98 97 96 94 94 94 95 95 94 93 94 93 96 94 95 94 93 96 93 93 92 94 94 94 94 94 95 95 94 95 95 95 95 97 97 98 99 99 100
99 99 99 98 99 97 94 92 95 96 94 95 96 96 96 95 94 94 94 94 92 93 95 95 95 95 94 94 94 94 94 93 94 94 94 94 94 97 98 98 99 100 100 100
99 97 98 98 95 95 95 96 95 96 95 96 95 96 95 95 95 95 94 95 95 95 95 95 94 93 94 95 94 95 95 96 95 94 95 98 99 99 98 99 100 99 100 100

GFSNGP_sfc_rhum_114.txt.gz
RH
50 47 48 47 48 48 49 54 67 36 35 26 28 24 27 26 67 69 70 72 79 85 84 80 82 94 93 91 91 90 95 88 89 96 96 97 97 97 96 95 94 93 95 97
61 55 54 58 58 57 55 49 48 43 43 28 26 24 25 42 62 69 71 70 76 87 80 82 81 83 94 93 93 93 95 90 86 96 98 98 98 98 97 96 96 95 98 98
58 60 58 57 45 48 50 49 48 53 41 33 33 35 75 80 81 82 81 79 84 88 85 87 85 87 86 91 91 95 94 87 88 94 95 98 98 98 98 99 97 98 97 97
82 70 75 36 42 39 46 42 42 39 37 50 47 85 91 88 88 86 83 82 82 86 85 84 87 88 91 86 90 92 94 88 91 93 93 96 98 98 98 98 98 98 98 98
89 84 50 42 32 50 82 74 64 64 64 58 76 90 93 88 84 85 83 81 80 82 83 84 86 88 93 92 92 91 92 94 95 94 97 98 98 98 98 98 98 98 97 98
90 89 82 45 51 69 78 76 82 94 94 89 84 94 91 89 80 81 80 81 82 82 82 83 84 89 96 97 98 98 95 92 93 97 98 98 98 98 98 96 97 96 97 96
91 95 69 50 42 57 83 80 93 84 88 88 88 91 86 80 84 82 84 86 82 80 84 86 86 93 97 97 98 99 99 99 99 98 98 97 97 96 97 97 97 97 97 96
96 96 86 83 84 89 94 88 85 86 82 80 95 85 87 85 86 89 90 85 83 85 87 84 85 92 96 97 97 95 95 96 97 97 95 95 96 97 96 96 97 97 97 97
90 78 89 92 89 89 84 91 85 68 66 92 94 83 89 86 87 86 86 87 81 86 90 87 85 88 96 96 91 93 95 97 96 95 96 95 96 97 96 94 95 96 96 96
99 91 94 91 86 81 90 93 82 97 93 92 91 88 90 84 86 89 88 91 84 88 93 95 87 86 90 90 88 86 92 94 94 97 96 97 96 95 95 96 95 93 92 94
99 100 92 81 82 82 86 84 88 83 89 90 91 87 86 89 90 90 91 91 88 91 92 93 88 87 86 87 86 90 89 87 91 88 87 91 90 89 89 89 86 89 91 90
98 98 99 97 91 82 86 87 83 83 89 81 81 85 84 90 91 92 93 90 89 89 89 89 88 88 83 85 88 88 91 91 91 89 89 89 91 96 93 93 92 89 86 89
98 83 89 96 82 79 87 87 85 88 82 83 82 83 87 92 94 93 95 95 97 96 95 89 90 90 91 87 86 88 91 90 92 90 91 91 89 87 94 97 94 94 94 94
82 81 86 78 89 81 82 88 86 81 80 81 82 80 84 91 94 96 97 97 96 96 96 96 94 96 97 96 92 93 94 92 92 93 92 91 90 91 88 90 93 96 95 94
77 76 80 75 78 76 70 75 83 88 85 87 83 87 90 92 94 97 97 96 95 94 95 94 94 96 96 96 95 95 93 95 95 95 95 94 92 92 92 92 92 94 94 94
78 77 77 83 84 80 83 87 89 88 85 87 88 90 91 91 93 95 96 96 94 97 97 94 95 96 96 95 95 94 94 95 94 93 92 93 92 92 92 92 92 92 92 92
85 87 86 86 88 89 87 85 83 84 85 85 88 87 88 89 92 95 96 96 95 96 96 94 96 96 96 95 94 94 94 94 94 93 93 93 93 93 92 91 91 92 95 92
72 74 74 83 87 89 87 86 88 90 90 91 94 96 96 95 96 96 96 96 95 93 95 96 94 94 94 95 92 92 92 93 92 91 89 90 89 87 88 88 89 92 94 92
72 80 77 75 83 86 86 86 89 91 95 96 96 96 96 96 96 96 95 94 95 93 96 96 95 94 94 95 93 93 92 93 91 89 88 89 91 88 91 91 91 92 90 91
74 75 77 78 80 87 87 91 94 95 96 95 96 95 95 96 96 95 94 95 96 95 94 94 93 94 93 94 92 87 89 90 89 92 92 92 94 94 93 90 91 93 94 94
87 82 87 90 93 96 97 97 96 97 97 96 95 96 96 96 95 96 94 92 96 94 93 94 91 91 90 83 82 90 91 92 92 92 92 93 94 93 94 93 93 94 96 96
97 99 99 98 97 97 97 97 96 96 96 96 96 96 94 96 95 95 96 94 94 94 92 92 92 88 86 87 87 92 91 91 93 93 94 93 94 94 95 94 96 96 97 97
100 100 100 99 100 99 97 97 97 96 96 96 96 96 95 95 96 94 95 94 93 94 93 94 93 92 91 93 93 93 92 93 94 93 94 94 94 95 95 96 97 97 98 98
98 98 100 98 96 94 98 98 96 96 96 96 96 96 94 95 96 94 94 94 94 95 96 95 94 92 91 94 94 94 94 94 95 95 95 94 96 96 96 96 96 98 99 98
97 97 97 97 98 100 99 98 97 96 95 96 96 95 94 94 95 96 95 95 95 94 96 94 94 92 94 94 94 94 95 95 95 94 94 94 95 96 97 96 98 98 98 98
99 99 100 98 100 100 99 98 99 98 97 96 96 96 96 95 94 94 95 94 93 93 96 96 95 95 95 94 94 94 95 93 94 94 94 95 96 98 98 99 99 97 98 100
98 97 97 99 99 99 98 96 98 98 97 98 96 96 95 95 95 95 95 95 95 95 95 95 95 93 94 95 95 95 95 95 94 94 96 96 97 98 99 99 99 100 99 100

GFSNGP_sfc_rhum_117.txt.gz
RH
36 37 40 39 36 35 36 32 39 26 25 20 19 18 20 22 24 24 51 56 58 70 77 84 78 78 84 92 95 92 90 82 80 85 91 92 94 92 95 93 93 94 96 98
52 42 37 43 41 44 42 39 38 35 35 25 23 23 25 25 28 48 60 67 74 75 78 86 82 82 83 90 96 92 90 83 80 91 92 93 95 96 96 96 94 96 98 99
44 37 42 51 40 38 36 34 36 35 27 22 28 26 28 35 50 68 71 73 74 78 83 82 85 85 90 90 91 91 90 81 82 91 94 95 94 95 97 98 96 98 98 98
59 54 63 30 31 32 35 32 33 34 33 32 33 32 34 66 75 80 77 76 75 77 77 76 80 88 91 88 89 95 90 83 86 88 93 94 97 98 98 98 98 98 98 98
75 60 40 34 27 27 35 35 46 58 65 70 67 50 60 78 75 76 76 75 76 76 77 76 78 86 92 91 91 95 94 87 83 83 94 98 98 98 98 97 97 97 97 97
78 75 74 34 50 48 53 51 79 86 94 85 72 74 61 82 77 75 74 77 78 75 73 77 81 85 91 92 94 98 95 88 84 86 96 97 97 97 97 95 97 97 97 96
85 92 69 44 59 48 50 72 83 96 97 82 90 84 86 81 80 76 79 79 75 76 81 83 81 86 92 92 97 96 98 97 98 96 97 96 97 95 95 96 95 97 97 96
94 95 84 78 63 73 81 82 93 94 84 85 89 86 85 79 80 81 84 82 77 83 85 83 81 86 91 95 96 97 97 97 98 97 96 96 96 96 95 96 97 97 97 97
92 67 73 76 80 78 86 86 86 86 90 93 89 84 83 80 80 83 85 86 80 84 87 85 83 85 93 94 92 95 96 98 96 96 97 96 97 98 96 94 95 96 96 96
98 92 92 86 78 75 79 86 80 82 86 84 86 84 81 77 80 82 86 89 81 83 88 90 84 85 90 89 90 91 95 98 100 98 98 98 96 97 96 96 96 95 95 95
95 100 95 94 96 86 83 81 82 80 80 82 81 85 83 86 85 84 85 82 78 82 85 88 83 84 85 88 87 91 91 95 95 95 94 94 94 95 94 97 94 92 91 90
98 100 100 100 100 98 90 89 84 81 80 77 78 84 83 88 86 86 86 83 82 78 81 84 83 86 86 85 88 91 90 90 94 95 96 93 93 97 93 93 92 90 86 87
99 100 96 97 96 95 96 99 94 79 80 78 76 77 81 88 89 89 90 90 90 90 87 84 82 86 89 88 85 90 92 91 93 94 95 91 90 89 94 96 94 94 93 92
71 73 75 82 97 91 78 77 76 75 76 76 77 75 77 86 91 93 96 96 94 92 92 91 92 94 96 95 92 93 94 92 93 94 93 92 92 93 92 92 94 96 94 93
72 69 82 83 82 82 75 74 78 79 77 79 78 82 86 89 93 96 95 93 92 93 95 93 92 94 92 93 96 95 93 95 95 95 95 94 94 94 93 91 91 93 93 94
69 68 68 74 78 78 77 78 81 81 80 80 81 87 87 87 88 92 93 94 92 96 96 94 93 95 93 92 95 94 94 95 93 92 92 92 92 92 92 92 91 91 90 88
74 77 78 78 81 81 83 82 82 84 82 82 85 82 81 84 86 92 94 94 92 95 94 93 94 94 94 93 92 91 90 92 92 89 90 91 90 92 91 91 91 90 90 85
67 70 70 75 81 81 80 79 78 79 83 86 91 92 93 93 94 94 94 93 93 93 92 93 92 92 92 94 92 89 87 88 89 90 89 91 91 91 92 89 85 86 87 84
66 70 70 70 75 77 77 79 81 84 92 94 93 95 93 93 92 93 92 92 93 93 94 92 91 88 88 92 86 85 87 90 90 89 90 92 92 86 88 88 85 83 79 79
66 66 68 72 74 81 83 85 89 90 92 92 94 93 93 93 93 93 90 92 91 87 89 90 90 90 90 90 90 85 89 91 88 91 90 87 90 91 86 80 81 84 86 85
81 76 82 84 87 92 96 96 94 93 94 94 92 94 95 94 93 92 90 82 90 89 89 90 83 79 79 79 75 85 87 89 90 89 88 91 91 86 85 85 85 85 87 86
93 96 97 95 94 94 95 95 92 94 94 94 95 94 93 93 93 92 94 86 85 91 84 84 81 83 77 79 78 87 83 84 86 86 87 86 86 87 87 85 86 86 86 86
95 95 95 97 98 95 94 95 96 94 94 94 93 92 89 86 83 84 88 87 82 90 85 87 88 88 87 88 89 89 87 86 86 86 87 86 86 86 85 86 86 87 88 87
94 93 94 93 91 88 93 93 92 92 93 92 94 94 88 90 92 86 84 89 92 90 91 91 90 88 86 89 88 89 87 88 88 88 87 84 88 87 87 88 88 88 89 87
94 93 91 91 88 87 91 90 88 89 90 90 91 90 90 87 90 90 90 90 90 87 91 90 88 87 89 89 89 89 89 88 88 87 87 88 88 88 87 87 87 88 88 86
94 88 88 94 90 85 83 83 85 86 86 90 91 92 93 91 90 90 91 90 86 87 89 90 90 89 89 88 88 88 87 83 85 86 86 87 87 87 88 88 88 87 87 87
91 90 85 84 83 84 84 85 87 88 89 91 91 92 90 92 92 91 92 92 91 90 91 91 89 86 87 87 87 87 86 86 85 85 86 87 87 88 88 88 88 88 88 89

GFSNGP_sfc_rhum_120.txt.gz
RH
24 24 25 36 39 32 32 28 36 28 20 15 13 13 13 14 15 17 20 23 35 43 49 52 58 62 69 83 86 89 94 93 85 71 72 68 73 81 81 83 88 88 88 92
34 26 27 33 26 26 24 26 22 20 22 14 12 12 15 17 15 20 27 39 48 51 53 58 61 70 80 85 89 89 95 92 76 71 73 71 75 83 88 90 91 93 93 96
42 25 25 35 26 23 22 19 22 27 19 14 15 16 19 20 20 32 43 56 56 56 57 60 62 70 85 89 88 89 94 92 77 68 70 73 75 81 93 97 96 98 98 97
56 40 58 22 16 20 24 20 16 17 17 17 19 24 30 28 28 48 62 58 56 56 58 59 61 66 82 86 89 92 92 94 80 71 72 70 80 91 97 96 97 97 98 97
68 45 29 24 22 24 24 23 17 20 28 33 45 52 40 43 60 61 61 58 57 56 59 60 66 71 81 86 88 90 92 94 84 77 79 84 95 96 96 97 97 96 96 97
56 70 62 34 30 28 32 44 53 61 74 86 88 84 76 70 66 66 64 62 60 60 61 67 73 74 81 86 92 90 94 96 88 81 90 96 96 97 95 96 96 95 96 96
71 90 54 35 40 37 60 72 64 82 99 100 97 95 87 78 76 70 69 66 64 65 72 77 76 77 85 86 93 93 94 95 93 92 96 94 96 95 95 97 97 97 97 97
84 92 82 49 45 75 69 68 81 92 96 96 89 86 83 70 71 72 72 71 68 71 75 74 76 79 82 89 92 96 95 96 99 97 95 94 96 96 95 96 97 97 97 97
92 77 73 71 81 66 65 82 89 91 81 82 82 78 71 71 74 72 74 72 66 68 72 74 76 79 87 88 88 93 96 97 97 97 97 95 97 98 97 94 95 96 96 96
98 96 91 98 94 95 80 86 79 78 74 73 77 78 78 75 75 73 68 66 61 62 65 74 78 79 83 84 87 92 100 100 100 100 99 99 98 98 98 98 97 97 97 97
98 94 92 91 98 98 97 97 96 69 66 70 69 74 76 79 77 73 68 64 62 66 64 69 79 82 83 84 84 91 96 99 98 99 97 97 96 96 96 96 93 94 93 92
95 100 100 100 100 100 99 97 89 71 68 64 64 67 68 71 75 77 76 70 71 69 68 65 76 83 85 86 85 89 90 94 95 96 97 96 95 97 96 94 96 95 94 91
91 74 97 83 70 77 77 81 75 68 69 69 66 66 70 81 84 86 87 84 85 87 84 74 75 85 87 91 85 89 93 93 95 94 96 94 94 93 96 96 93 94 94 94
60 63 68 70 86 68 68 66 65 63 66 71 72 70 71 82 90 91 92 92 88 86 86 88 88 92 95 95 94 93 94 95 93 96 96 93 93 93 89 89 93 96 95 94
58 61 66 62 62 66 61 58 60 64 70 73 75 77 83 86 90 93 91 89 85 86 88 87 89 92 94 94 95 96 92 94 96 96 96 95 95 95 94 94 93 94 94 94
51 54 53 61 63 64 66 66 69 69 67 70 78 83 79 83 85 89 90 88 89 91 88 88 89 91 90 93 91 94 94 94 93 92 93 93 92 92 92 92 92 91 89 89
57 60 61 63 65 66 68 68 70 69 69 69 76 73 71 77 83 89 90 88 88 90 90 86 89 88 89 89 87 85 86 89 92 90 91 91 92 92 92 92 90 89 89 79
50 53 53 61 64 65 66 66 68 71 75 78 86 88 88 89 91 91 90 92 89 89 91 92 88 84 86 90 88 85 85 85 87 88 87 90 89 87 88 87 84 78 80 78
50 52 54 56 60 63 63 66 72 76 86 89 88 91 90 89 89 89 86 88 88 88 94 90 90 82 81 89 80 83 86 88 87 85 86 90 90 86 88 81 80 80 75 76
49 49 52 57 61 70 74 78 84 84 87 87 87 87 89 90 89 88 86 91 88 82 82 87 84 84 85 87 84 79 86 90 84 88 90 89 89 85 81 76 78 81 83 82
68 60 69 74 78 83 89 90 89 89 89 90 88 90 89 88 88 85 81 76 85 82 80 80 73 68 68 78 81 89 90 91 91 88 85 84 83 78 80 81 81 82 82 82
84 88 88 89 88 87 88 88 87 89 89 88 89 88 86 87 87 87 89 82 75 82 75 74 71 76 67 71 75 86 80 82 82 81 82 82 82 82 83 81 82 82 82 82
86 87 85 89 90 88 86 87 88 88 88 87 87 86 84 80 77 78 81 79 73 82 75 81 81 81 78 83 83 83 81 80 80 80 81 81 80 80 80 80 80 81 82 81
85 85 85 84 84 80 83 84 83 83 85 85 88 89 84 83 87 76 74 83 87 87 87 86 85 79 76 84 84 83 82 82 82 83 80 75 82 80 80 80 80 80 81 78
87 86 81 82 73 70 77 77 74 75 78 80 83 80 82 77 86 84 84 85 83 77 85 84 81 78 83 83 83 82 82 82 82 81 80 81 81 81 81 79 80 80 80 78
83 73 72 83 78 70 67 68 71 74 74 79 82 86 88 84 82 81 84 84 81 76 80 84 83 83 83 81 82 81 80 76 79 78 78 79 79 79 79 80 80 78 79 79
76 80 66 65 65 68 71 73 77 78 78 85 84 87 83 86 87 84 87 87 85 84 83 84 84 79 80 81 80 80 79 80 76 77 79 80 79 80 80 79 80 80 81 81

GFSNGP_sfc_rhum_123.txt.gz
RH
29 19 17 18 23 33 44 46 50 31 33 50 23 13 12 11 12 12 12 14 18 22 32 40 45 47 50 60 62 69 82 90 90 89 92 79 78 80 79 77 72 77 84 90
36 24 20 19 17 22 26 29 28 26 24 14 13 11 11 11 12 14 14 17 23 34 40 46 48 50 52 61 71 73 85 88 90 92 88 80 83 82 82 80 78 83 86 95
47 27 29 31 19 16 17 18 25 26 20 14 12 12 14 18 19 20 17 38 39 46 47 49 51 52 59 64 68 79 86 83 87 90 85 76 80 80 82 87 92 96 97 95
60 46 59 23 13 13 18 17 16 15 13 11 14 24 28 26 24 25 40 45 46 48 48 48 50 59 68 65 71 79 86 84 86 90 82 71 81 86 96 95 97 97 98 96
72 60 46 28 38 29 31 28 17 18 18 22 37 48 35 50 49 54 58 53 51 47 49 50 58 64 68 74 71 77 85 85 87 94 76 72 92 98 96 96 97 97 97 97
60 86 67 52 28 26 29 47 44 52 56 59 64 92 76 77 64 63 58 56 54 51 54 60 64 66 68 75 77 79 87 90 89 94 78 87 98 97 97 96 97 97 97 96
69 87 49 67 41 35 66 82 67 71 93 98 97 95 94 88 78 72 59 61 55 54 61 65 64 69 74 74 83 85 88 91 89 91 94 92 96 96 97 97 97 98 97 98
87 90 91 85 53 96 90 63 83 86 95 100 97 92 77 68 74 64 61 56 50 51 55 58 64 72 74 76 81 83 92 94 95 98 98 95 95 97 97 97 97 97 97 97
96 92 96 93 98 96 94 91 93 96 96 70 71 68 68 69 68 62 56 49 46 47 50 53 57 71 79 80 81 87 96 98 98 97 99 97 97 98 97 97 96 97 96 97
98 86 94 98 94 97 98 97 97 92 65 62 69 66 66 62 58 55 51 51 48 50 52 55 57 64 77 79 84 93 98 100 100 99 100 100 99 99 99 98 97 97 97 97
99 88 72 75 99 100 98 95 94 88 61 62 62 65 63 65 62 59 58 55 56 60 62 60 58 64 76 81 85 90 97 98 100 98 97 97 97 97 98 99 94 96 95 93
92 95 95 100 99 76 89 77 69 67 65 59 59 64 66 68 68 71 70 66 68 69 70 67 62 66 80 83 89 93 97 97 98 97 97 96 94 97 96 93 92 92 89 88
84 63 66 76 71 62 68 68 65 61 63 64 62 62 68 80 81 81 82 81 82 83 82 74 71 75 82 89 92 93 95 96 96 97 96 95 95 92 94 96 93 92 92 90
57 57 65 59 67 57 58 53 53 55 57 62 65 64 66 79 86 88 91 90 85 83 85 86 86 90 92 94 95 95 95 96 96 96 97 96 96 96 94 92 94 96 95 94
47 50 50 48 47 47 48 51 55 59 61 63 64 69 78 82 86 90 89 88 87 85 89 88 90 91 94 94 95 96 95 95 96 96 96 96 95 95 95 94 94 94 94 94
42 42 42 48 48 49 48 54 63 63 64 64 68 73 71 79 85 89 90 88 87 90 90 88 89 91 94 94 92 92 95 94 92 94 95 94 94 94 94 94 93 94 93 94
48 51 49 52 53 53 51 53 61 65 70 70 73 73 70 80 87 89 90 88 88 91 91 88 91 88 90 94 93 86 87 91 92 91 91 92 93 94 94 94 94 92 95 94
42 43 42 50 52 54 55 58 64 70 76 78 84 85 84 86 88 91 91 91 93 89 91 90 89 88 84 86 88 86 86 88 89 90 92 92 92 91 92 92 91 90 92 83
40 43 44 46 52 56 57 62 70 74 84 91 87 88 88 87 86 86 84 84 85 89 94 89 92 85 82 89 80 79 85 89 88 87 89 92 93 91 93 91 85 82 77 79
44 45 49 52 55 66 69 74 80 81 83 84 92 89 88 88 88 87 83 88 86 84 85 89 84 84 84 82 79 80 86 86 83 89 90 89 93 94 91 77 77 82 86 85
66 57 65 70 73 77 84 84 84 85 86 86 88 89 89 87 86 88 92 76 83 81 80 80 74 70 72 72 73 87 89 91 91 90 91 91 89 87 83 80 80 82 85 84
79 84 83 84 83 81 81 82 81 84 85 86 85 86 90 90 88 85 87 88 78 87 75 72 70 74 73 80 82 89 87 84 80 80 81 80 80 81 81 80 81 81 81 81
80 81 80 83 84 82 77 83 82 85 84 87 86 87 83 79 79 85 85 79 74 83 76 75 73 73 74 82 82 82 80 78 78 78 79 80 80 80 79 79 80 80 80 80
79 78 79 77 78 76 77 80 75 77 79 87 86 85 84 90 86 80 79 83 83 83 87 83 77 72 73 81 80 80 78 78 79 80 77 74 80 78 77 78 78 79 78 77
82 79 86 81 71 68 73 74 72 77 75 82 82 81 82 79 89 84 86 86 86 80 80 74 72 72 80 80 80 79 79 79 79 78 78 78 78 78 78 77 77 78 78 76
78 70 67 73 70 67 66 69 73 72 71 82 80 86 87 85 84 82 84 84 82 82 84 84 80 79 79 78 78 78 76 73 75 75 76 76 76 76 78 78 76 76 77 78
77 79 61 62 61 63 69 70 77 78 78 87 85 86 82 85 86 84 87 88 88 87 89 84 80 76 76 77 76 76 75 76 74 74 76 77 76 77 77 77 78 78 79 79

GFSNGP_sfc_rhum_126.txt.gz
RH
30 30 22 19 19 19 26 50 57 49 51 69 89 74 61 48 11 11 12 13 14 19 42 46 51 54 55 58 64 68 74 76 78 85 89 94 95 91 90 88 83 81 85 87
84 40 26 29 27 19 16 22 29 32 39 26 33 32 24 14 13 16 18 16 18 38 44 48 51 53 56 64 68 68 74 79 77 82 88 95 96 93 90 90 88 90 91 96
61 34 36 41 24 19 14 14 18 31 28 23 20 27 36 34 30 27 23 32 43 50 51 54 55 56 64 68 67 70 72 76 76 81 88 94 93 93 92 94 98 99 98 97
63 51 66 34 37 29 17 17 16 15 16 29 48 43 42 59 61 61 56 53 53 52 51 52 54 62 69 67 68 71 74 73 75 80 85 90 95 94 98 98 99 99 99 98
73 52 38 32 58 38 34 30 49 56 61 61 57 50 60 70 64 63 60 57 55 52 53 55 60 64 70 72 70 74 75 76 77 82 86 90 96 98 98 98 98 99 98 97
65 86 66 94 76 52 36 50 88 69 84 93 86 85 80 86 81 75 62 56 54 51 53 58 61 64 70 74 75 77 80 81 81 83 88 92 97 98 98 98 98 98 98 97
85 84 81 94 70 50 75 99 93 81 90 99 99 98 95 78 72 70 67 53 47 48 51 54 57 63 75 75 79 80 81 83 85 84 90 94 99 98 98 98 98 98 98 98
81 84 90 94 65 94 99 96 96 95 96 100 88 75 71 66 65 59 54 50 47 49 50 49 53 62 70 78 78 81 84 88 90 90 93 99 98 98 98 97 97 98 97 98
98 94 100 99 99 99 99 98 98 99 94 70 70 65 63 60 57 54 53 51 50 51 53 54 54 58 71 79 79 87 89 92 96 93 96 98 99 98 98 98 97 97 97 97
95 84 78 100 96 98 99 100 97 96 81 73 68 64 63 61 61 60 57 57 56 58 60 63 60 60 69 77 86 93 95 96 99 100 97 98 98 100 99 99 98 97 97 97
93 88 71 70 99 97 97 92 77 64 66 65 65 67 68 68 68 67 66 63 62 66 68 68 64 68 70 79 92 94 95 95 96 96 97 96 96 98 99 99 96 96 96 95
94 100 98 95 97 71 72 66 63 60 64 64 64 68 67 73 74 76 76 72 71 71 73 81 78 73 75 81 95 96 95 94 96 95 97 98 95 96 95 95 95 94 92 90
88 65 91 66 56 51 58 63 66 57 58 63 62 64 68 76 81 82 82 85 84 86 85 85 79 81 85 91 95 95 96 95 95 96 96 97 97 94 95 96 94 93 91 89
47 50 60 50 56 47 49 51 53 53 56 60 67 65 69 75 87 91 92 93 94 89 90 90 92 94 96 96 95 96 96 96 95 95 96 97 97 97 95 93 93 96 94 93
43 42 44 44 44 45 43 49 56 60 62 64 65 73 80 85 90 93 92 90 90 90 93 90 91 94 97 96 96 96 96 96 96 95 96 96 96 96 95 95 94 95 95 95
41 41 40 46 47 47 47 52 62 66 68 68 70 77 75 82 80 89 91 90 93 95 96 96 92 95 96 97 96 95 95 95 95 95 95 95 95 94 94 95 95 95 95 96
47 51 48 52 51 51 51 54 61 69 72 72 76 76 77 76 83 90 92 97 91 94 93 94 96 93 93 96 97 94 94 94 94 93 94 94 95 95 95 95 95 95 96 96
40 42 41 47 52 55 56 60 65 72 79 79 87 93 91 94 95 94 93 92 91 91 93 94 94 91 93 93 92 95 94 94 94 94 94 94 94 94 94 94 94 94 95 95
41 44 47 48 54 60 61 66 71 76 88 90 92 94 94 92 94 95 91 91 90 88 95 94 90 88 88 90 86 90 94 95 94 94 93 94 94 94 94 94 94 94 94 94
49 49 55 58 59 69 72 74 81 81 86 89 91 91 92 93 93 93 96 93 92 91 86 90 89 88 89 89 82 85 92 93 92 93 94 94 94 95 94 91 92 91 92 91
71 64 70 74 76 82 90 88 88 87 89 91 93 94 95 92 93 92 91 89 91 94 88 86 87 87 86 85 86 92 92 93 93 93 92 93 94 94 94 94 93 91 91 91
81 90 91 91 89 87 86 89 82 92 88 90 90 92 95 94 95 92 93 93 86 92 84 82 87 94 93 93 90 94 90 91 92 93 94 94 93 93 92 90 90 90 89 89
88 84 84 91 89 86 93 92 89 89 90 89 90 91 92 84 80 88 88 82 83 92 83 83 86 88 91 96 95 94 91 90 91 88 88 88 88 88 88 88 89 88 89 89
84 84 84 85 85 87 82 85 81 86 88 92 94 92 90 92 93 87 88 92 90 91 92 93 90 83 84 90 89 89 88 88 88 88 88 85 88 86 87 88 89 88 87 87
87 87 90 82 75 72 78 78 76 79 76 92 84 85 83 82 93 91 92 91 92 87 86 85 86 87 91 91 90 91 90 88 88 87 87 87 88 88 86 86 88 87 86 86
74 68 68 83 77 69 68 68 76 85 76 87 86 90 91 90 90 88 88 91 90 90 92 94 90 87 87 86 86 86 86 85 86 86 86 87 88 89 88 86 86 87 90 91
84 78 64 69 67 70 74 81 82 85 83 89 91 87 88 89 89 90 91 92 93 94 94 92 91 87 88 88 87 89 91 90 86 86 86 86 86 87 88 90 92 90 88 88

GFSNGP_sfc_rhum_129.txt.gz
RH
66 59 50 47 39 28 33 39 75 49 51 52 57 78 82 68 55 40 25 30 41 56 62 59 63 66 69 73 74 74 76 80 83 83 82 82 86 92 94 96 95 95 95 95
78 58 56 43 37 33 32 28 27 34 37 35 48 64 72 61 56 62 61 58 56 56 57 61 63 68 72 75 75 75 77 77 74 79 80 83 87 89 95 96 96 96 97 97
74 49 53 60 58 48 46 28 36 49 81 60 62 58 77 77 69 67 63 61 61 61 62 65 69 68 77 76 74 75 75 75 73 76 79 81 79 89 95 97 96 98 99 99
82 72 77 62 66 71 76 88 86 73 71 69 68 67 78 76 78 74 65 63 62 62 64 66 67 71 74 73 76 76 75 76 77 78 80 82 84 90 93 99 99 99 99 99
93 86 56 75 72 91 94 92 94 89 74 77 76 70 86 75 77 76 71 64 61 58 65 67 69 70 73 76 74 75 78 80 78 79 82 84 88 91 92 99 99 99 99 99
96 94 93 87 74 48 64 96 96 96 87 88 82 86 94 88 74 67 63 59 53 49 56 68 71 72 72 77 77 79 80 82 80 82 86 87 89 92 95 99 98 98 99 98
92 96 96 88 67 55 81 95 98 98 98 99 98 99 97 69 66 58 54 53 52 53 60 65 66 70 76 78 81 79 81 83 83 83 88 89 92 95 99 99 98 98 98 98
95 93 95 95 69 91 98 98 99 99 100 100 97 78 68 62 63 59 63 60 59 63 64 64 64 69 76 81 80 80 85 86 86 88 90 88 97 99 99 99 98 98 98 98
99 98 100 100 100 100 100 100 100 99 99 95 80 70 66 67 66 64 67 66 63 67 68 66 67 70 80 82 81 86 88 89 90 92 92 93 99 99 100 99 99 97 97 97
95 96 88 100 98 99 99 100 92 71 72 70 75 72 74 72 73 73 72 69 65 69 72 73 75 75 80 81 85 90 93 94 95 96 95 95 95 100 100 100 100 98 97 97
94 92 78 95 100 98 86 72 72 62 65 72 72 75 71 76 74 74 73 70 67 72 74 75 80 86 87 85 89 92 93 95 96 96 96 96 96 99 98 99 100 100 95 96
99 100 100 100 94 75 69 72 70 64 67 66 74 75 74 80 77 76 81 81 84 82 81 83 82 84 88 88 91 94 94 95 96 96 96 97 96 95 97 96 96 97 96 95
92 70 99 85 61 52 60 66 65 65 66 73 70 72 73 86 88 84 88 92 94 94 92 87 85 86 90 90 93 94 96 96 96 96 96 96 96 97 95 97 93 93 94 95
61 52 66 54 64 52 55 59 60 59 61 68 73 73 83 86 93 95 95 96 96 95 95 94 93 93 97 93 95 96 96 96 96 96 97 96 96 97 97 96 95 96 95 93
49 47 52 52 50 51 52 59 66 67 69 73 73 82 87 95 97 97 97 95 94 94 93 94 95 95 97 95 96 96 95 96 96 96 96 96 96 96 96 96 96 95 96 97
50 47 49 56 55 54 57 65 74 77 74 75 78 86 86 88 96 94 96 97 96 96 96 95 94 96 96 96 96 95 95 96 96 95 95 95 95 95 95 96 95 96 95 96
59 58 59 62 63 62 62 68 73 77 77 76 81 85 83 88 90 95 95 97 97 97 97 97 97 95 96 96 95 96 95 95 95 94 95 95 96 95 95 95 95 95 96 96
50 53 53 62 66 68 68 70 75 77 82 82 92 94 97 98 98 97 97 94 92 92 94 97 95 96 96 94 94 94 95 94 94 95 94 95 95 94 94 94 94 94 95 95
54 59 61 58 66 70 72 74 76 79 90 95 95 96 97 98 98 97 97 95 95 96 96 95 94 96 95 95 93 95 95 95 94 94 95 95 95 95 95 95 95 95 94 95
64 66 68 67 69 77 76 79 91 91 91 94 98 96 96 96 97 96 97 100 99 97 94 94 95 97 97 92 89 88 93 94 93 95 95 95 95 95 95 94 94 95 95 95
77 76 80 78 87 92 95 96 96 97 93 96 99 96 96 95 97 97 95 97 97 95 94 94 94 96 97 94 93 95 94 95 95 95 95 95 95 95 95 95 95 95 95 95
94 95 97 94 96 95 94 95 93 97 96 96 97 96 96 95 97 98 97 97 94 96 94 94 94 97 96 96 96 96 94 94 95 94 95 95 94 95 95 95 95 94 94 94
98 94 96 94 94 95 96 97 93 97 97 96 99 97 97 97 98 96 97 94 93 95 94 96 96 97 97 97 96 95 95 95 96 96 96 95 95 94 94 93 93 93 93 93
90 92 96 97 93 92 94 94 94 97 96 97 99 99 98 96 98 99 98 96 96 96 96 96 96 96 96 97 96 96 96 95 95 94 93 92 94 94 94 93 94 93 94 94
93 92 91 91 93 96 92 91 92 93 91 97 96 96 96 98 99 99 98 96 95 96 97 96 95 93 95 94 95 96 95 95 96 96 96 94 94 95 95 93 93 94 93 92
92 94 95 95 95 96 95 96 98 98 96 97 98 98 98 98 98 98 98 97 97 96 96 96 96 95 95 95 95 95 95 94 94 95 95 95 94 93 93 94 96 95 95 95
96 90 95 96 96 96 98 97 98 98 97 98 98 99 98 98 98 98 97 98 98 98 96 96 95 92 93 92 92 94 94 94 93 92 94 96 96 96 95 95 95 95 95 95